<?xml version="1.0" encoding="UTF-8" standalone="no" ?>
<gpx xmlns="http://www.topografix.com/GPX/1/1" xmlns:xsi="http://www.w3.org/2001/XMLSchema-instance" xsi:schemaLocation="http://www.topografix.com/GPX/1/1 http://www.topografix.com/GPX/1/1/gpx.xsd" version="1.1" creator="VisuGPX - https://www.visugpx.com">
  <metadata>
    <name>rando des loups </name>
    <desc><![CDATA[rando super avec de belles patates]]></desc>
  </metadata>
  <trk>
    <name><![CDATA[LES LOUPS2 12:34:05]]></name>
    <trkseg>
      <trkpt lat="47.32656" lon="-0.34831">
        <ele>33.3</ele>
        <time>2012-03-18T07:28:59Z</time>
      </trkpt>
      <trkpt lat="47.32655" lon="-0.34829">
        <ele>33.3</ele>
        <time>2012-03-18T07:29:00Z</time>
      </trkpt>
      <trkpt lat="47.32652" lon="-0.34829">
        <ele>36.67</ele>
        <time>2012-03-18T07:29:13Z</time>
      </trkpt>
      <trkpt lat="47.32651" lon="-0.3483">
        <ele>39.07</ele>
        <time>2012-03-18T07:29:23Z</time>
      </trkpt>
      <trkpt lat="47.3265" lon="-0.34831">
        <ele>42.92</ele>
        <time>2012-03-18T07:29:36Z</time>
      </trkpt>
      <trkpt lat="47.32648" lon="-0.34831">
        <ele>46.28</ele>
        <time>2012-03-18T07:29:51Z</time>
      </trkpt>
      <trkpt lat="47.32648" lon="-0.34832">
        <ele>46.76</ele>
        <time>2012-03-18T07:29:56Z</time>
      </trkpt>
      <trkpt lat="47.32647" lon="-0.34835">
        <ele>48.68</ele>
        <time>2012-03-18T07:30:11Z</time>
      </trkpt>
      <trkpt lat="47.32648" lon="-0.34835">
        <ele>48.2</ele>
        <time>2012-03-18T07:30:16Z</time>
      </trkpt>
      <trkpt lat="47.32647" lon="-0.34837">
        <ele>49.65</ele>
        <time>2012-03-18T07:30:24Z</time>
      </trkpt>
      <trkpt lat="47.32648" lon="-0.34835">
        <ele>50.61</ele>
        <time>2012-03-18T07:30:38Z</time>
      </trkpt>
      <trkpt lat="47.32648" lon="-0.34835">
        <ele>50.61</ele>
        <time>2012-03-18T07:30:56Z</time>
      </trkpt>
      <trkpt lat="47.32648" lon="-0.34835">
        <ele>51.09</ele>
        <time>2012-03-18T07:31:14Z</time>
      </trkpt>
      <trkpt lat="47.32648" lon="-0.34835">
        <ele>50.61</ele>
        <time>2012-03-18T07:31:27Z</time>
      </trkpt>
      <trkpt lat="47.32648" lon="-0.34835">
        <ele>50.61</ele>
        <time>2012-03-18T07:31:44Z</time>
      </trkpt>
      <trkpt lat="47.32648" lon="-0.34835">
        <ele>51.09</ele>
        <time>2012-03-18T07:31:57Z</time>
      </trkpt>
      <trkpt lat="47.32648" lon="-0.34835">
        <ele>50.61</ele>
        <time>2012-03-18T07:32:13Z</time>
      </trkpt>
      <trkpt lat="47.32648" lon="-0.34835">
        <ele>50.61</ele>
        <time>2012-03-18T07:32:29Z</time>
      </trkpt>
      <trkpt lat="47.32648" lon="-0.34835">
        <ele>51.09</ele>
        <time>2012-03-18T07:32:45Z</time>
      </trkpt>
      <trkpt lat="47.32648" lon="-0.34835">
        <ele>51.09</ele>
        <time>2012-03-18T07:32:59Z</time>
      </trkpt>
      <trkpt lat="47.32648" lon="-0.34835">
        <ele>51.09</ele>
        <time>2012-03-18T07:33:13Z</time>
      </trkpt>
      <trkpt lat="47.32648" lon="-0.34835">
        <ele>50.61</ele>
        <time>2012-03-18T07:33:28Z</time>
      </trkpt>
      <trkpt lat="47.32648" lon="-0.34835">
        <ele>51.09</ele>
        <time>2012-03-18T07:33:40Z</time>
      </trkpt>
      <trkpt lat="47.32648" lon="-0.34835">
        <ele>51.09</ele>
        <time>2012-03-18T07:33:56Z</time>
      </trkpt>
      <trkpt lat="47.32648" lon="-0.34836">
        <ele>51.09</ele>
        <time>2012-03-18T07:34:08Z</time>
      </trkpt>
      <trkpt lat="47.32648" lon="-0.34836">
        <ele>50.61</ele>
        <time>2012-03-18T07:34:22Z</time>
      </trkpt>
      <trkpt lat="47.32648" lon="-0.34836">
        <ele>50.61</ele>
        <time>2012-03-18T07:34:40Z</time>
      </trkpt>
      <trkpt lat="47.32648" lon="-0.34836">
        <ele>50.61</ele>
        <time>2012-03-18T07:34:57Z</time>
      </trkpt>
      <trkpt lat="47.32648" lon="-0.34836">
        <ele>50.61</ele>
        <time>2012-03-18T07:35:16Z</time>
      </trkpt>
      <trkpt lat="47.32648" lon="-0.34835">
        <ele>51.09</ele>
        <time>2012-03-18T07:35:29Z</time>
      </trkpt>
      <trkpt lat="47.32648" lon="-0.34835">
        <ele>50.13</ele>
        <time>2012-03-18T07:35:48Z</time>
      </trkpt>
      <trkpt lat="47.32648" lon="-0.34836">
        <ele>50.61</ele>
        <time>2012-03-18T07:36:05Z</time>
      </trkpt>
      <trkpt lat="47.32648" lon="-0.34836">
        <ele>50.61</ele>
        <time>2012-03-18T07:36:20Z</time>
      </trkpt>
      <trkpt lat="47.32648" lon="-0.34836">
        <ele>50.13</ele>
        <time>2012-03-18T07:36:34Z</time>
      </trkpt>
      <trkpt lat="47.32646" lon="-0.34828">
        <ele>52.53</ele>
        <time>2012-03-18T07:36:40Z</time>
      </trkpt>
      <trkpt lat="47.32646" lon="-0.34828">
        <ele>49.16</ele>
        <time>2012-03-18T07:36:45Z</time>
      </trkpt>
      <trkpt lat="47.32646" lon="-0.34828">
        <ele>53.97</ele>
        <time>2012-03-18T07:36:47Z</time>
      </trkpt>
      <trkpt lat="47.32646" lon="-0.34828">
        <ele>49.16</ele>
        <time>2012-03-18T07:36:48Z</time>
      </trkpt>
      <trkpt lat="47.32646" lon="-0.34828">
        <ele>52.53</ele>
        <time>2012-03-18T07:36:50Z</time>
      </trkpt>
      <trkpt lat="47.32646" lon="-0.34828">
        <ele>47.72</ele>
        <time>2012-03-18T07:36:57Z</time>
      </trkpt>
      <trkpt lat="47.32646" lon="-0.34828">
        <ele>53.01</ele>
        <time>2012-03-18T07:36:58Z</time>
      </trkpt>
      <trkpt lat="47.32646" lon="-0.34828">
        <ele>48.68</ele>
        <time>2012-03-18T07:36:59Z</time>
      </trkpt>
      <trkpt lat="47.32646" lon="-0.34828">
        <ele>59.26</ele>
        <time>2012-03-18T07:37:01Z</time>
      </trkpt>
      <trkpt lat="47.32646" lon="-0.34828">
        <ele>52.05</ele>
        <time>2012-03-18T07:37:02Z</time>
      </trkpt>
      <trkpt lat="47.32646" lon="-0.34828">
        <ele>50.61</ele>
        <time>2012-03-18T07:37:04Z</time>
      </trkpt>
      <trkpt lat="47.32646" lon="-0.34828">
        <ele>50.61</ele>
        <time>2012-03-18T07:37:21Z</time>
      </trkpt>
      <trkpt lat="47.32647" lon="-0.34827">
        <ele>50.61</ele>
        <time>2012-03-18T07:37:45Z</time>
      </trkpt>
      <trkpt lat="47.32647" lon="-0.34827">
        <ele>50.61</ele>
        <time>2012-03-18T07:38:04Z</time>
      </trkpt>
      <trkpt lat="47.32647" lon="-0.34827">
        <ele>50.13</ele>
        <time>2012-03-18T07:38:14Z</time>
      </trkpt>
      <trkpt lat="47.32647" lon="-0.34827">
        <ele>52.05</ele>
        <time>2012-03-18T07:38:27Z</time>
      </trkpt>
      <trkpt lat="47.32647" lon="-0.34827">
        <ele>49.65</ele>
        <time>2012-03-18T07:38:39Z</time>
      </trkpt>
      <trkpt lat="47.32647" lon="-0.34827">
        <ele>50.61</ele>
        <time>2012-03-18T07:38:50Z</time>
      </trkpt>
      <trkpt lat="47.32647" lon="-0.34827">
        <ele>49.16</ele>
        <time>2012-03-18T07:39:05Z</time>
      </trkpt>
      <trkpt lat="47.32647" lon="-0.34827">
        <ele>49.65</ele>
        <time>2012-03-18T07:39:25Z</time>
      </trkpt>
      <trkpt lat="47.32648" lon="-0.34828">
        <ele>50.61</ele>
        <time>2012-03-18T07:39:39Z</time>
      </trkpt>
      <trkpt lat="47.32648" lon="-0.34829">
        <ele>49.16</ele>
        <time>2012-03-18T07:39:49Z</time>
      </trkpt>
      <trkpt lat="47.32648" lon="-0.34832">
        <ele>49.16</ele>
        <time>2012-03-18T07:39:57Z</time>
      </trkpt>
      <trkpt lat="47.32648" lon="-0.34832">
        <ele>49.65</ele>
        <time>2012-03-18T07:40:00Z</time>
      </trkpt>
      <trkpt lat="47.32651" lon="-0.34852">
        <ele>49.16</ele>
        <time>2012-03-18T07:40:07Z</time>
      </trkpt>
      <trkpt lat="47.32655" lon="-0.34854">
        <ele>48.68</ele>
        <time>2012-03-18T07:40:11Z</time>
      </trkpt>
      <trkpt lat="47.32654" lon="-0.34854">
        <ele>48.68</ele>
        <time>2012-03-18T07:40:19Z</time>
      </trkpt>
      <trkpt lat="47.32656" lon="-0.34852">
        <ele>48.68</ele>
        <time>2012-03-18T07:40:22Z</time>
      </trkpt>
      <trkpt lat="47.32656" lon="-0.34833">
        <ele>49.16</ele>
        <time>2012-03-18T07:40:28Z</time>
      </trkpt>
      <trkpt lat="47.32656" lon="-0.3483">
        <ele>49.65</ele>
        <time>2012-03-18T07:40:29Z</time>
      </trkpt>
      <trkpt lat="47.32653" lon="-0.34799">
        <ele>49.65</ele>
        <time>2012-03-18T07:40:37Z</time>
      </trkpt>
      <trkpt lat="47.32651" lon="-0.34778">
        <ele>50.61</ele>
        <time>2012-03-18T07:40:42Z</time>
      </trkpt>
      <trkpt lat="47.32649" lon="-0.34742">
        <ele>51.09</ele>
        <time>2012-03-18T07:40:50Z</time>
      </trkpt>
      <trkpt lat="47.32649" lon="-0.34719">
        <ele>51.09</ele>
        <time>2012-03-18T07:40:56Z</time>
      </trkpt>
      <trkpt lat="47.3266" lon="-0.34699">
        <ele>51.57</ele>
        <time>2012-03-18T07:41:03Z</time>
      </trkpt>
      <trkpt lat="47.32662" lon="-0.34685">
        <ele>52.05</ele>
        <time>2012-03-18T07:41:07Z</time>
      </trkpt>
      <trkpt lat="47.32661" lon="-0.34646">
        <ele>52.05</ele>
        <time>2012-03-18T07:41:15Z</time>
      </trkpt>
      <trkpt lat="47.3266" lon="-0.34596">
        <ele>52.05</ele>
        <time>2012-03-18T07:41:24Z</time>
      </trkpt>
      <trkpt lat="47.32658" lon="-0.34583">
        <ele>52.53</ele>
        <time>2012-03-18T07:41:27Z</time>
      </trkpt>
      <trkpt lat="47.32657" lon="-0.34562">
        <ele>53.01</ele>
        <time>2012-03-18T07:41:34Z</time>
      </trkpt>
      <trkpt lat="47.32655" lon="-0.34538">
        <ele>53.01</ele>
        <time>2012-03-18T07:41:39Z</time>
      </trkpt>
      <trkpt lat="47.32647" lon="-0.34496">
        <ele>53.01</ele>
        <time>2012-03-18T07:41:47Z</time>
      </trkpt>
      <trkpt lat="47.32631" lon="-0.34461">
        <ele>53.01</ele>
        <time>2012-03-18T07:41:54Z</time>
      </trkpt>
      <trkpt lat="47.32605" lon="-0.34419">
        <ele>53.49</ele>
        <time>2012-03-18T07:42:03Z</time>
      </trkpt>
      <trkpt lat="47.32587" lon="-0.34362">
        <ele>53.49</ele>
        <time>2012-03-18T07:42:13Z</time>
      </trkpt>
      <trkpt lat="47.32578" lon="-0.34311">
        <ele>53.97</ele>
        <time>2012-03-18T07:42:22Z</time>
      </trkpt>
      <trkpt lat="47.32569" lon="-0.34261">
        <ele>53.97</ele>
        <time>2012-03-18T07:42:31Z</time>
      </trkpt>
      <trkpt lat="47.3256" lon="-0.34214">
        <ele>55.41</ele>
        <time>2012-03-18T07:42:40Z</time>
      </trkpt>
      <trkpt lat="47.32555" lon="-0.34192">
        <ele>54.93</ele>
        <time>2012-03-18T07:42:47Z</time>
      </trkpt>
      <trkpt lat="47.32555" lon="-0.34191">
        <ele>54.93</ele>
        <time>2012-03-18T07:42:51Z</time>
      </trkpt>
      <trkpt lat="47.32555" lon="-0.34191">
        <ele>55.41</ele>
        <time>2012-03-18T07:42:55Z</time>
      </trkpt>
      <trkpt lat="47.32553" lon="-0.34181">
        <ele>55.41</ele>
        <time>2012-03-18T07:43:00Z</time>
      </trkpt>
      <trkpt lat="47.32551" lon="-0.34163">
        <ele>55.41</ele>
        <time>2012-03-18T07:43:12Z</time>
      </trkpt>
      <trkpt lat="47.32551" lon="-0.34163">
        <ele>55.41</ele>
        <time>2012-03-18T07:43:25Z</time>
      </trkpt>
      <trkpt lat="47.32551" lon="-0.34163">
        <ele>55.89</ele>
        <time>2012-03-18T07:43:38Z</time>
      </trkpt>
      <trkpt lat="47.3255" lon="-0.34163">
        <ele>54.93</ele>
        <time>2012-03-18T07:43:47Z</time>
      </trkpt>
      <trkpt lat="47.3255" lon="-0.34164">
        <ele>55.89</ele>
        <time>2012-03-18T07:44:01Z</time>
      </trkpt>
      <trkpt lat="47.3255" lon="-0.34164">
        <ele>55.89</ele>
        <time>2012-03-18T07:44:09Z</time>
      </trkpt>
      <trkpt lat="47.32556" lon="-0.34176">
        <ele>54.93</ele>
        <time>2012-03-18T07:44:14Z</time>
      </trkpt>
      <trkpt lat="47.32565" lon="-0.34226">
        <ele>55.41</ele>
        <time>2012-03-18T07:44:20Z</time>
      </trkpt>
      <trkpt lat="47.32582" lon="-0.34321">
        <ele>54.93</ele>
        <time>2012-03-18T07:44:28Z</time>
      </trkpt>
      <trkpt lat="47.32601" lon="-0.34401">
        <ele>53.97</ele>
        <time>2012-03-18T07:44:35Z</time>
      </trkpt>
      <trkpt lat="47.32635" lon="-0.34462">
        <ele>53.49</ele>
        <time>2012-03-18T07:44:42Z</time>
      </trkpt>
      <trkpt lat="47.32653" lon="-0.34518">
        <ele>53.97</ele>
        <time>2012-03-18T07:44:48Z</time>
      </trkpt>
      <trkpt lat="47.32662" lon="-0.34612">
        <ele>52.53</ele>
        <time>2012-03-18T07:44:57Z</time>
      </trkpt>
      <trkpt lat="47.32664" lon="-0.34688">
        <ele>51.57</ele>
        <time>2012-03-18T07:45:05Z</time>
      </trkpt>
      <trkpt lat="47.32656" lon="-0.34713">
        <ele>51.09</ele>
        <time>2012-03-18T07:45:10Z</time>
      </trkpt>
      <trkpt lat="47.32651" lon="-0.34742">
        <ele>51.09</ele>
        <time>2012-03-18T07:45:14Z</time>
      </trkpt>
      <trkpt lat="47.32657" lon="-0.34801">
        <ele>50.13</ele>
        <time>2012-03-18T07:45:22Z</time>
      </trkpt>
      <trkpt lat="47.32657" lon="-0.34805">
        <ele>49.65</ele>
        <time>2012-03-18T07:45:26Z</time>
      </trkpt>
      <trkpt lat="47.32658" lon="-0.34805">
        <ele>49.65</ele>
        <time>2012-03-18T07:45:33Z</time>
      </trkpt>
      <trkpt lat="47.32658" lon="-0.34806">
        <ele>49.16</ele>
        <time>2012-03-18T07:45:45Z</time>
      </trkpt>
      <trkpt lat="47.32658" lon="-0.34806">
        <ele>49.65</ele>
        <time>2012-03-18T07:45:58Z</time>
      </trkpt>
      <trkpt lat="47.32657" lon="-0.3481">
        <ele>49.65</ele>
        <time>2012-03-18T07:46:00Z</time>
      </trkpt>
      <trkpt lat="47.32665" lon="-0.34824">
        <ele>49.65</ele>
        <time>2012-03-18T07:46:05Z</time>
      </trkpt>
      <trkpt lat="47.32679" lon="-0.3483">
        <ele>49.65</ele>
        <time>2012-03-18T07:46:09Z</time>
      </trkpt>
      <trkpt lat="47.3269" lon="-0.34844">
        <ele>50.13</ele>
        <time>2012-03-18T07:46:14Z</time>
      </trkpt>
      <trkpt lat="47.32697" lon="-0.34841">
        <ele>50.13</ele>
        <time>2012-03-18T07:46:19Z</time>
      </trkpt>
      <trkpt lat="47.32697" lon="-0.34841">
        <ele>49.16</ele>
        <time>2012-03-18T07:46:31Z</time>
      </trkpt>
      <trkpt lat="47.32697" lon="-0.34841">
        <ele>49.65</ele>
        <time>2012-03-18T07:46:46Z</time>
      </trkpt>
      <trkpt lat="47.32697" lon="-0.3484">
        <ele>49.65</ele>
        <time>2012-03-18T07:47:03Z</time>
      </trkpt>
      <trkpt lat="47.32697" lon="-0.3484">
        <ele>49.65</ele>
        <time>2012-03-18T07:47:19Z</time>
      </trkpt>
      <trkpt lat="47.32697" lon="-0.3484">
        <ele>49.65</ele>
        <time>2012-03-18T07:47:28Z</time>
      </trkpt>
      <trkpt lat="47.32696" lon="-0.3483">
        <ele>49.65</ele>
        <time>2012-03-18T07:47:33Z</time>
      </trkpt>
      <trkpt lat="47.32698" lon="-0.34825">
        <ele>50.13</ele>
        <time>2012-03-18T07:47:36Z</time>
      </trkpt>
      <trkpt lat="47.32699" lon="-0.34823">
        <ele>50.13</ele>
        <time>2012-03-18T07:47:42Z</time>
      </trkpt>
      <trkpt lat="47.32699" lon="-0.34822">
        <ele>49.65</ele>
        <time>2012-03-18T07:47:52Z</time>
      </trkpt>
      <trkpt lat="47.32699" lon="-0.34822">
        <ele>49.16</ele>
        <time>2012-03-18T07:48:03Z</time>
      </trkpt>
      <trkpt lat="47.32699" lon="-0.34822">
        <ele>50.13</ele>
        <time>2012-03-18T07:48:18Z</time>
      </trkpt>
      <trkpt lat="47.32699" lon="-0.34822">
        <ele>49.65</ele>
        <time>2012-03-18T07:48:30Z</time>
      </trkpt>
      <trkpt lat="47.32699" lon="-0.34822">
        <ele>49.65</ele>
        <time>2012-03-18T07:48:33Z</time>
      </trkpt>
      <trkpt lat="47.32697" lon="-0.34822">
        <ele>50.13</ele>
        <time>2012-03-18T07:48:40Z</time>
      </trkpt>
      <trkpt lat="47.32697" lon="-0.34822">
        <ele>49.65</ele>
        <time>2012-03-18T07:48:50Z</time>
      </trkpt>
      <trkpt lat="47.32697" lon="-0.34822">
        <ele>50.13</ele>
        <time>2012-03-18T07:49:00Z</time>
      </trkpt>
      <trkpt lat="47.32697" lon="-0.34822">
        <ele>50.61</ele>
        <time>2012-03-18T07:49:07Z</time>
      </trkpt>
      <trkpt lat="47.32697" lon="-0.34822">
        <ele>47.24</ele>
        <time>2012-03-18T07:49:09Z</time>
      </trkpt>
      <trkpt lat="47.32697" lon="-0.34821">
        <ele>50.13</ele>
        <time>2012-03-18T07:49:22Z</time>
      </trkpt>
      <trkpt lat="47.32694" lon="-0.34822">
        <ele>50.61</ele>
        <time>2012-03-18T07:49:28Z</time>
      </trkpt>
      <trkpt lat="47.32694" lon="-0.34822">
        <ele>46.76</ele>
        <time>2012-03-18T07:49:31Z</time>
      </trkpt>
      <trkpt lat="47.32694" lon="-0.34822">
        <ele>49.65</ele>
        <time>2012-03-18T07:49:32Z</time>
      </trkpt>
      <trkpt lat="47.32694" lon="-0.34822">
        <ele>46.28</ele>
        <time>2012-03-18T07:49:48Z</time>
      </trkpt>
      <trkpt lat="47.32694" lon="-0.34822">
        <ele>50.13</ele>
        <time>2012-03-18T07:49:49Z</time>
      </trkpt>
      <trkpt lat="47.32694" lon="-0.34822">
        <ele>46.76</ele>
        <time>2012-03-18T07:49:50Z</time>
      </trkpt>
      <trkpt lat="47.32694" lon="-0.34822">
        <ele>50.13</ele>
        <time>2012-03-18T07:49:51Z</time>
      </trkpt>
      <trkpt lat="47.32694" lon="-0.34822">
        <ele>51.09</ele>
        <time>2012-03-18T07:50:01Z</time>
      </trkpt>
      <trkpt lat="47.32694" lon="-0.34822">
        <ele>50.61</ele>
        <time>2012-03-18T07:50:02Z</time>
      </trkpt>
      <trkpt lat="47.32687" lon="-0.34822">
        <ele>49.65</ele>
        <time>2012-03-18T07:50:08Z</time>
      </trkpt>
      <trkpt lat="47.3268" lon="-0.34822">
        <ele>49.16</ele>
        <time>2012-03-18T07:50:13Z</time>
      </trkpt>
      <trkpt lat="47.32679" lon="-0.34822">
        <ele>49.65</ele>
        <time>2012-03-18T07:50:22Z</time>
      </trkpt>
      <trkpt lat="47.32679" lon="-0.34822">
        <ele>49.65</ele>
        <time>2012-03-18T07:50:32Z</time>
      </trkpt>
      <trkpt lat="47.32679" lon="-0.34822">
        <ele>49.65</ele>
        <time>2012-03-18T07:50:46Z</time>
      </trkpt>
      <trkpt lat="47.32679" lon="-0.34821">
        <ele>50.13</ele>
        <time>2012-03-18T07:51:01Z</time>
      </trkpt>
      <trkpt lat="47.32679" lon="-0.34821">
        <ele>49.65</ele>
        <time>2012-03-18T07:51:15Z</time>
      </trkpt>
      <trkpt lat="47.32679" lon="-0.34821">
        <ele>50.13</ele>
        <time>2012-03-18T07:51:30Z</time>
      </trkpt>
      <trkpt lat="47.32679" lon="-0.34821">
        <ele>50.13</ele>
        <time>2012-03-18T07:51:40Z</time>
      </trkpt>
      <trkpt lat="47.32676" lon="-0.34821">
        <ele>50.13</ele>
        <time>2012-03-18T07:51:54Z</time>
      </trkpt>
      <trkpt lat="47.32661" lon="-0.34823">
        <ele>50.13</ele>
        <time>2012-03-18T07:52:00Z</time>
      </trkpt>
      <trkpt lat="47.32654" lon="-0.34806">
        <ele>50.13</ele>
        <time>2012-03-18T07:52:06Z</time>
      </trkpt>
      <trkpt lat="47.32652" lon="-0.3478">
        <ele>50.13</ele>
        <time>2012-03-18T07:52:12Z</time>
      </trkpt>
      <trkpt lat="47.32648" lon="-0.34741">
        <ele>50.61</ele>
        <time>2012-03-18T07:52:19Z</time>
      </trkpt>
      <trkpt lat="47.3265" lon="-0.34709">
        <ele>51.57</ele>
        <time>2012-03-18T07:52:26Z</time>
      </trkpt>
      <trkpt lat="47.32657" lon="-0.34687">
        <ele>51.57</ele>
        <time>2012-03-18T07:52:32Z</time>
      </trkpt>
      <trkpt lat="47.32659" lon="-0.34656">
        <ele>52.05</ele>
        <time>2012-03-18T07:52:38Z</time>
      </trkpt>
      <trkpt lat="47.32657" lon="-0.34616">
        <ele>52.05</ele>
        <time>2012-03-18T07:52:45Z</time>
      </trkpt>
      <trkpt lat="47.32656" lon="-0.34605">
        <ele>52.53</ele>
        <time>2012-03-18T07:52:47Z</time>
      </trkpt>
      <trkpt lat="47.32655" lon="-0.34574">
        <ele>53.01</ele>
        <time>2012-03-18T07:52:52Z</time>
      </trkpt>
      <trkpt lat="47.32653" lon="-0.34542">
        <ele>53.49</ele>
        <time>2012-03-18T07:52:57Z</time>
      </trkpt>
      <trkpt lat="47.32639" lon="-0.34479">
        <ele>53.97</ele>
        <time>2012-03-18T07:53:07Z</time>
      </trkpt>
      <trkpt lat="47.32615" lon="-0.34433">
        <ele>54.45</ele>
        <time>2012-03-18T07:53:15Z</time>
      </trkpt>
      <trkpt lat="47.32605" lon="-0.34416">
        <ele>53.97</ele>
        <time>2012-03-18T07:53:18Z</time>
      </trkpt>
      <trkpt lat="47.32589" lon="-0.34365">
        <ele>53.97</ele>
        <time>2012-03-18T07:53:26Z</time>
      </trkpt>
      <trkpt lat="47.32578" lon="-0.34309">
        <ele>53.97</ele>
        <time>2012-03-18T07:53:35Z</time>
      </trkpt>
      <trkpt lat="47.32568" lon="-0.34258">
        <ele>54.93</ele>
        <time>2012-03-18T07:53:43Z</time>
      </trkpt>
      <trkpt lat="47.32558" lon="-0.34205">
        <ele>54.45</ele>
        <time>2012-03-18T07:53:52Z</time>
      </trkpt>
      <trkpt lat="47.32554" lon="-0.34182">
        <ele>54.93</ele>
        <time>2012-03-18T07:53:56Z</time>
      </trkpt>
      <trkpt lat="47.32548" lon="-0.34129">
        <ele>56.37</ele>
        <time>2012-03-18T07:54:04Z</time>
      </trkpt>
      <trkpt lat="47.32541" lon="-0.34064">
        <ele>57.34</ele>
        <time>2012-03-18T07:54:14Z</time>
      </trkpt>
      <trkpt lat="47.32536" lon="-0.34007">
        <ele>58.78</ele>
        <time>2012-03-18T07:54:23Z</time>
      </trkpt>
      <trkpt lat="47.32538" lon="-0.33961">
        <ele>58.78</ele>
        <time>2012-03-18T07:54:30Z</time>
      </trkpt>
      <trkpt lat="47.32546" lon="-0.33945">
        <ele>59.74</ele>
        <time>2012-03-18T07:54:34Z</time>
      </trkpt>
      <trkpt lat="47.32569" lon="-0.33947">
        <ele>60.22</ele>
        <time>2012-03-18T07:54:40Z</time>
      </trkpt>
      <trkpt lat="47.32609" lon="-0.33952">
        <ele>60.7</ele>
        <time>2012-03-18T07:54:49Z</time>
      </trkpt>
      <trkpt lat="47.32659" lon="-0.33957">
        <ele>60.22</ele>
        <time>2012-03-18T07:54:59Z</time>
      </trkpt>
      <trkpt lat="47.32701" lon="-0.33961">
        <ele>60.22</ele>
        <time>2012-03-18T07:55:07Z</time>
      </trkpt>
      <trkpt lat="47.32758" lon="-0.33963">
        <ele>60.7</ele>
        <time>2012-03-18T07:55:18Z</time>
      </trkpt>
      <trkpt lat="47.32797" lon="-0.33963">
        <ele>61.18</ele>
        <time>2012-03-18T07:55:26Z</time>
      </trkpt>
      <trkpt lat="47.32836" lon="-0.33964">
        <ele>62.14</ele>
        <time>2012-03-18T07:55:34Z</time>
      </trkpt>
      <trkpt lat="47.3284" lon="-0.33964">
        <ele>61.66</ele>
        <time>2012-03-18T07:55:35Z</time>
      </trkpt>
      <trkpt lat="47.3288" lon="-0.33965">
        <ele>64.07</ele>
        <time>2012-03-18T07:55:44Z</time>
      </trkpt>
      <trkpt lat="47.32913" lon="-0.33968">
        <ele>65.03</ele>
        <time>2012-03-18T07:55:52Z</time>
      </trkpt>
      <trkpt lat="47.32921" lon="-0.33967">
        <ele>65.51</ele>
        <time>2012-03-18T07:55:54Z</time>
      </trkpt>
      <trkpt lat="47.32927" lon="-0.33951">
        <ele>66.47</ele>
        <time>2012-03-18T07:55:58Z</time>
      </trkpt>
      <trkpt lat="47.32927" lon="-0.33929">
        <ele>66.95</ele>
        <time>2012-03-18T07:56:02Z</time>
      </trkpt>
      <trkpt lat="47.32939" lon="-0.3392">
        <ele>67.91</ele>
        <time>2012-03-18T07:56:06Z</time>
      </trkpt>
      <trkpt lat="47.32952" lon="-0.33932">
        <ele>69.35</ele>
        <time>2012-03-18T07:56:11Z</time>
      </trkpt>
      <trkpt lat="47.32956" lon="-0.33941">
        <ele>69.35</ele>
        <time>2012-03-18T07:56:13Z</time>
      </trkpt>
      <trkpt lat="47.32973" lon="-0.33951">
        <ele>69.35</ele>
        <time>2012-03-18T07:56:18Z</time>
      </trkpt>
      <trkpt lat="47.32977" lon="-0.3395">
        <ele>68.87</ele>
        <time>2012-03-18T07:56:19Z</time>
      </trkpt>
      <trkpt lat="47.33008" lon="-0.33936">
        <ele>68.87</ele>
        <time>2012-03-18T07:56:27Z</time>
      </trkpt>
      <trkpt lat="47.33013" lon="-0.33935">
        <ele>68.87</ele>
        <time>2012-03-18T07:56:28Z</time>
      </trkpt>
      <trkpt lat="47.33054" lon="-0.33915">
        <ele>66.95</ele>
        <time>2012-03-18T07:56:36Z</time>
      </trkpt>
      <trkpt lat="47.3306" lon="-0.33913">
        <ele>66.47</ele>
        <time>2012-03-18T07:56:37Z</time>
      </trkpt>
      <trkpt lat="47.3307" lon="-0.33907">
        <ele>65.51</ele>
        <time>2012-03-18T07:56:39Z</time>
      </trkpt>
      <trkpt lat="47.33112" lon="-0.33885">
        <ele>64.55</ele>
        <time>2012-03-18T07:56:47Z</time>
      </trkpt>
      <trkpt lat="47.33121" lon="-0.33881">
        <ele>65.51</ele>
        <time>2012-03-18T07:56:49Z</time>
      </trkpt>
      <trkpt lat="47.3313" lon="-0.33877">
        <ele>65.51</ele>
        <time>2012-03-18T07:56:51Z</time>
      </trkpt>
      <trkpt lat="47.33138" lon="-0.33873">
        <ele>65.51</ele>
        <time>2012-03-18T07:56:53Z</time>
      </trkpt>
      <trkpt lat="47.33157" lon="-0.33865">
        <ele>66.47</ele>
        <time>2012-03-18T07:56:58Z</time>
      </trkpt>
      <trkpt lat="47.3318" lon="-0.33854">
        <ele>66.95</ele>
        <time>2012-03-18T07:57:04Z</time>
      </trkpt>
      <trkpt lat="47.33189" lon="-0.33852">
        <ele>66.95</ele>
        <time>2012-03-18T07:57:06Z</time>
      </trkpt>
      <trkpt lat="47.33209" lon="-0.33851">
        <ele>67.43</ele>
        <time>2012-03-18T07:57:11Z</time>
      </trkpt>
      <trkpt lat="47.33229" lon="-0.33846">
        <ele>67.43</ele>
        <time>2012-03-18T07:57:16Z</time>
      </trkpt>
      <trkpt lat="47.33255" lon="-0.33846">
        <ele>67.43</ele>
        <time>2012-03-18T07:57:22Z</time>
      </trkpt>
      <trkpt lat="47.33293" lon="-0.33876">
        <ele>66.95</ele>
        <time>2012-03-18T07:57:31Z</time>
      </trkpt>
      <trkpt lat="47.33309" lon="-0.33897">
        <ele>67.91</ele>
        <time>2012-03-18T07:57:36Z</time>
      </trkpt>
      <trkpt lat="47.33328" lon="-0.33913">
        <ele>68.87</ele>
        <time>2012-03-18T07:57:41Z</time>
      </trkpt>
      <trkpt lat="47.33346" lon="-0.33925">
        <ele>68.39</ele>
        <time>2012-03-18T07:57:45Z</time>
      </trkpt>
      <trkpt lat="47.3337" lon="-0.33943">
        <ele>67.43</ele>
        <time>2012-03-18T07:57:51Z</time>
      </trkpt>
      <trkpt lat="47.33383" lon="-0.33949">
        <ele>67.43</ele>
        <time>2012-03-18T07:57:54Z</time>
      </trkpt>
      <trkpt lat="47.33403" lon="-0.33961">
        <ele>66.47</ele>
        <time>2012-03-18T07:57:58Z</time>
      </trkpt>
      <trkpt lat="47.3341" lon="-0.33962">
        <ele>66.47</ele>
        <time>2012-03-18T07:58:00Z</time>
      </trkpt>
      <trkpt lat="47.33424" lon="-0.33949">
        <ele>66.95</ele>
        <time>2012-03-18T07:58:04Z</time>
      </trkpt>
      <trkpt lat="47.33447" lon="-0.3392">
        <ele>68.39</ele>
        <time>2012-03-18T07:58:12Z</time>
      </trkpt>
      <trkpt lat="47.33464" lon="-0.33895">
        <ele>69.35</ele>
        <time>2012-03-18T07:58:19Z</time>
      </trkpt>
      <trkpt lat="47.33478" lon="-0.3387">
        <ele>70.31</ele>
        <time>2012-03-18T07:58:25Z</time>
      </trkpt>
      <trkpt lat="47.33485" lon="-0.33852">
        <ele>71.76</ele>
        <time>2012-03-18T07:58:30Z</time>
      </trkpt>
      <trkpt lat="47.33495" lon="-0.33834">
        <ele>72.72</ele>
        <time>2012-03-18T07:58:35Z</time>
      </trkpt>
      <trkpt lat="47.33509" lon="-0.33809">
        <ele>74.16</ele>
        <time>2012-03-18T07:58:42Z</time>
      </trkpt>
      <trkpt lat="47.33521" lon="-0.33786">
        <ele>74.64</ele>
        <time>2012-03-18T07:58:48Z</time>
      </trkpt>
      <trkpt lat="47.33529" lon="-0.33771">
        <ele>76.08</ele>
        <time>2012-03-18T07:58:53Z</time>
      </trkpt>
      <trkpt lat="47.33541" lon="-0.33751">
        <ele>77.52</ele>
        <time>2012-03-18T07:58:59Z</time>
      </trkpt>
      <trkpt lat="47.33554" lon="-0.33734">
        <ele>80.41</ele>
        <time>2012-03-18T07:59:06Z</time>
      </trkpt>
      <trkpt lat="47.33566" lon="-0.33721">
        <ele>80.41</ele>
        <time>2012-03-18T07:59:12Z</time>
      </trkpt>
      <trkpt lat="47.33577" lon="-0.33704">
        <ele>81.85</ele>
        <time>2012-03-18T07:59:18Z</time>
      </trkpt>
      <trkpt lat="47.33586" lon="-0.33686">
        <ele>83.29</ele>
        <time>2012-03-18T07:59:24Z</time>
      </trkpt>
      <trkpt lat="47.33585" lon="-0.33662">
        <ele>85.21</ele>
        <time>2012-03-18T07:59:31Z</time>
      </trkpt>
      <trkpt lat="47.33574" lon="-0.33643">
        <ele>85.69</ele>
        <time>2012-03-18T07:59:38Z</time>
      </trkpt>
      <trkpt lat="47.33556" lon="-0.33626">
        <ele>86.66</ele>
        <time>2012-03-18T07:59:47Z</time>
      </trkpt>
      <trkpt lat="47.33536" lon="-0.33608">
        <ele>87.62</ele>
        <time>2012-03-18T07:59:56Z</time>
      </trkpt>
      <trkpt lat="47.33522" lon="-0.33595">
        <ele>88.1</ele>
        <time>2012-03-18T08:00:02Z</time>
      </trkpt>
      <trkpt lat="47.33507" lon="-0.3358">
        <ele>89.06</ele>
        <time>2012-03-18T08:00:09Z</time>
      </trkpt>
      <trkpt lat="47.33497" lon="-0.33562">
        <ele>88.1</ele>
        <time>2012-03-18T08:00:14Z</time>
      </trkpt>
      <trkpt lat="47.33494" lon="-0.33526">
        <ele>88.1</ele>
        <time>2012-03-18T08:00:21Z</time>
      </trkpt>
      <trkpt lat="47.33495" lon="-0.33509">
        <ele>88.58</ele>
        <time>2012-03-18T08:00:24Z</time>
      </trkpt>
      <trkpt lat="47.33505" lon="-0.33494">
        <ele>88.1</ele>
        <time>2012-03-18T08:00:28Z</time>
      </trkpt>
      <trkpt lat="47.33529" lon="-0.33473">
        <ele>88.58</ele>
        <time>2012-03-18T08:00:35Z</time>
      </trkpt>
      <trkpt lat="47.33557" lon="-0.33447">
        <ele>87.62</ele>
        <time>2012-03-18T08:00:43Z</time>
      </trkpt>
      <trkpt lat="47.33586" lon="-0.33424">
        <ele>87.62</ele>
        <time>2012-03-18T08:00:51Z</time>
      </trkpt>
      <trkpt lat="47.33608" lon="-0.3341">
        <ele>87.14</ele>
        <time>2012-03-18T08:00:57Z</time>
      </trkpt>
      <trkpt lat="47.33633" lon="-0.3339">
        <ele>87.14</ele>
        <time>2012-03-18T08:01:04Z</time>
      </trkpt>
      <trkpt lat="47.33662" lon="-0.33368">
        <ele>87.14</ele>
        <time>2012-03-18T08:01:12Z</time>
      </trkpt>
      <trkpt lat="47.33685" lon="-0.33343">
        <ele>86.18</ele>
        <time>2012-03-18T08:01:19Z</time>
      </trkpt>
      <trkpt lat="47.337" lon="-0.33331">
        <ele>85.69</ele>
        <time>2012-03-18T08:01:23Z</time>
      </trkpt>
      <trkpt lat="47.33716" lon="-0.33321">
        <ele>86.66</ele>
        <time>2012-03-18T08:01:27Z</time>
      </trkpt>
      <trkpt lat="47.33727" lon="-0.33314">
        <ele>85.69</ele>
        <time>2012-03-18T08:01:30Z</time>
      </trkpt>
      <trkpt lat="47.33745" lon="-0.333">
        <ele>85.69</ele>
        <time>2012-03-18T08:01:35Z</time>
      </trkpt>
      <trkpt lat="47.33752" lon="-0.33296">
        <ele>86.18</ele>
        <time>2012-03-18T08:01:37Z</time>
      </trkpt>
      <trkpt lat="47.33776" lon="-0.33273">
        <ele>85.21</ele>
        <time>2012-03-18T08:01:44Z</time>
      </trkpt>
      <trkpt lat="47.33793" lon="-0.33259">
        <ele>85.21</ele>
        <time>2012-03-18T08:01:49Z</time>
      </trkpt>
      <trkpt lat="47.33821" lon="-0.33238">
        <ele>86.18</ele>
        <time>2012-03-18T08:01:57Z</time>
      </trkpt>
      <trkpt lat="47.33841" lon="-0.33223">
        <ele>85.69</ele>
        <time>2012-03-18T08:02:03Z</time>
      </trkpt>
      <trkpt lat="47.33874" lon="-0.33198">
        <ele>85.21</ele>
        <time>2012-03-18T08:02:12Z</time>
      </trkpt>
      <trkpt lat="47.33903" lon="-0.33176">
        <ele>85.21</ele>
        <time>2012-03-18T08:02:20Z</time>
      </trkpt>
      <trkpt lat="47.33938" lon="-0.33148">
        <ele>84.73</ele>
        <time>2012-03-18T08:02:29Z</time>
      </trkpt>
      <trkpt lat="47.33951" lon="-0.3316">
        <ele>83.29</ele>
        <time>2012-03-18T08:02:34Z</time>
      </trkpt>
      <trkpt lat="47.33953" lon="-0.33166">
        <ele>83.29</ele>
        <time>2012-03-18T08:02:35Z</time>
      </trkpt>
      <trkpt lat="47.33959" lon="-0.3319">
        <ele>83.29</ele>
        <time>2012-03-18T08:02:39Z</time>
      </trkpt>
      <trkpt lat="47.33965" lon="-0.33209">
        <ele>83.77</ele>
        <time>2012-03-18T08:02:42Z</time>
      </trkpt>
      <trkpt lat="47.3398" lon="-0.33255">
        <ele>84.25</ele>
        <time>2012-03-18T08:02:50Z</time>
      </trkpt>
      <trkpt lat="47.33995" lon="-0.33312">
        <ele>84.73</ele>
        <time>2012-03-18T08:02:59Z</time>
      </trkpt>
      <trkpt lat="47.34004" lon="-0.33349">
        <ele>85.21</ele>
        <time>2012-03-18T08:03:05Z</time>
      </trkpt>
      <trkpt lat="47.34015" lon="-0.33406">
        <ele>84.73</ele>
        <time>2012-03-18T08:03:14Z</time>
      </trkpt>
      <trkpt lat="47.34017" lon="-0.33419">
        <ele>85.21</ele>
        <time>2012-03-18T08:03:16Z</time>
      </trkpt>
      <trkpt lat="47.34021" lon="-0.33461">
        <ele>85.21</ele>
        <time>2012-03-18T08:03:22Z</time>
      </trkpt>
      <trkpt lat="47.34022" lon="-0.3349">
        <ele>85.21</ele>
        <time>2012-03-18T08:03:26Z</time>
      </trkpt>
      <trkpt lat="47.34025" lon="-0.33517">
        <ele>85.69</ele>
        <time>2012-03-18T08:03:30Z</time>
      </trkpt>
      <trkpt lat="47.34026" lon="-0.33538">
        <ele>85.69</ele>
        <time>2012-03-18T08:03:33Z</time>
      </trkpt>
      <trkpt lat="47.34028" lon="-0.33591">
        <ele>86.18</ele>
        <time>2012-03-18T08:03:41Z</time>
      </trkpt>
      <trkpt lat="47.34029" lon="-0.3364">
        <ele>86.18</ele>
        <time>2012-03-18T08:03:49Z</time>
      </trkpt>
      <trkpt lat="47.34028" lon="-0.33669">
        <ele>86.18</ele>
        <time>2012-03-18T08:03:54Z</time>
      </trkpt>
      <trkpt lat="47.34027" lon="-0.33707">
        <ele>89.54</ele>
        <time>2012-03-18T08:04:00Z</time>
      </trkpt>
      <trkpt lat="47.34027" lon="-0.33712">
        <ele>84.25</ele>
        <time>2012-03-18T08:04:01Z</time>
      </trkpt>
      <trkpt lat="47.34028" lon="-0.33718">
        <ele>88.58</ele>
        <time>2012-03-18T08:04:02Z</time>
      </trkpt>
      <trkpt lat="47.34027" lon="-0.33737">
        <ele>77.04</ele>
        <time>2012-03-18T08:04:05Z</time>
      </trkpt>
      <trkpt lat="47.34027" lon="-0.33743">
        <ele>87.62</ele>
        <time>2012-03-18T08:04:06Z</time>
      </trkpt>
      <trkpt lat="47.34025" lon="-0.3379">
        <ele>86.66</ele>
        <time>2012-03-18T08:04:13Z</time>
      </trkpt>
      <trkpt lat="47.34023" lon="-0.33812">
        <ele>86.18</ele>
        <time>2012-03-18T08:04:16Z</time>
      </trkpt>
      <trkpt lat="47.34019" lon="-0.3385">
        <ele>85.69</ele>
        <time>2012-03-18T08:04:21Z</time>
      </trkpt>
      <trkpt lat="47.34018" lon="-0.33873">
        <ele>86.18</ele>
        <time>2012-03-18T08:04:24Z</time>
      </trkpt>
      <trkpt lat="47.34016" lon="-0.33912">
        <ele>85.69</ele>
        <time>2012-03-18T08:04:29Z</time>
      </trkpt>
      <trkpt lat="47.34017" lon="-0.33974">
        <ele>85.21</ele>
        <time>2012-03-18T08:04:37Z</time>
      </trkpt>
      <trkpt lat="47.34016" lon="-0.34022">
        <ele>84.25</ele>
        <time>2012-03-18T08:04:43Z</time>
      </trkpt>
      <trkpt lat="47.34015" lon="-0.34056">
        <ele>84.25</ele>
        <time>2012-03-18T08:04:47Z</time>
      </trkpt>
      <trkpt lat="47.34014" lon="-0.3408">
        <ele>84.73</ele>
        <time>2012-03-18T08:04:50Z</time>
      </trkpt>
      <trkpt lat="47.34026" lon="-0.34107">
        <ele>84.73</ele>
        <time>2012-03-18T08:04:55Z</time>
      </trkpt>
      <trkpt lat="47.34033" lon="-0.34112">
        <ele>84.25</ele>
        <time>2012-03-18T08:04:57Z</time>
      </trkpt>
      <trkpt lat="47.34046" lon="-0.3412">
        <ele>84.73</ele>
        <time>2012-03-18T08:05:00Z</time>
      </trkpt>
      <trkpt lat="47.34067" lon="-0.34142">
        <ele>84.25</ele>
        <time>2012-03-18T08:05:06Z</time>
      </trkpt>
      <trkpt lat="47.34081" lon="-0.34157">
        <ele>85.21</ele>
        <time>2012-03-18T08:05:10Z</time>
      </trkpt>
      <trkpt lat="47.34096" lon="-0.34183">
        <ele>85.21</ele>
        <time>2012-03-18T08:05:15Z</time>
      </trkpt>
      <trkpt lat="47.34122" lon="-0.34235">
        <ele>85.69</ele>
        <time>2012-03-18T08:05:24Z</time>
      </trkpt>
      <trkpt lat="47.34134" lon="-0.34255">
        <ele>85.69</ele>
        <time>2012-03-18T08:05:28Z</time>
      </trkpt>
      <trkpt lat="47.34149" lon="-0.34289">
        <ele>85.21</ele>
        <time>2012-03-18T08:05:34Z</time>
      </trkpt>
      <trkpt lat="47.34168" lon="-0.34323">
        <ele>84.73</ele>
        <time>2012-03-18T08:05:40Z</time>
      </trkpt>
      <trkpt lat="47.34184" lon="-0.34349">
        <ele>85.21</ele>
        <time>2012-03-18T08:05:45Z</time>
      </trkpt>
      <trkpt lat="47.34203" lon="-0.34385">
        <ele>85.69</ele>
        <time>2012-03-18T08:05:51Z</time>
      </trkpt>
      <trkpt lat="47.34225" lon="-0.34438">
        <ele>85.69</ele>
        <time>2012-03-18T08:05:59Z</time>
      </trkpt>
      <trkpt lat="47.34236" lon="-0.34463">
        <ele>85.69</ele>
        <time>2012-03-18T08:06:03Z</time>
      </trkpt>
      <trkpt lat="47.34247" lon="-0.34486">
        <ele>86.18</ele>
        <time>2012-03-18T08:06:07Z</time>
      </trkpt>
      <trkpt lat="47.34256" lon="-0.34499">
        <ele>86.18</ele>
        <time>2012-03-18T08:06:10Z</time>
      </trkpt>
      <trkpt lat="47.34281" lon="-0.34547">
        <ele>85.69</ele>
        <time>2012-03-18T08:06:19Z</time>
      </trkpt>
      <trkpt lat="47.34297" lon="-0.34582">
        <ele>84.25</ele>
        <time>2012-03-18T08:06:25Z</time>
      </trkpt>
      <trkpt lat="47.34316" lon="-0.34621">
        <ele>79.93</ele>
        <time>2012-03-18T08:06:30Z</time>
      </trkpt>
      <trkpt lat="47.34325" lon="-0.34637">
        <ele>77.04</ele>
        <time>2012-03-18T08:06:32Z</time>
      </trkpt>
      <trkpt lat="47.3433" lon="-0.34645">
        <ele>76.08</ele>
        <time>2012-03-18T08:06:33Z</time>
      </trkpt>
      <trkpt lat="47.34342" lon="-0.34659">
        <ele>72.72</ele>
        <time>2012-03-18T08:06:36Z</time>
      </trkpt>
      <trkpt lat="47.34348" lon="-0.34657">
        <ele>72.24</ele>
        <time>2012-03-18T08:06:38Z</time>
      </trkpt>
      <trkpt lat="47.34353" lon="-0.3465">
        <ele>71.76</ele>
        <time>2012-03-18T08:06:40Z</time>
      </trkpt>
      <trkpt lat="47.3438" lon="-0.34617">
        <ele>71.76</ele>
        <time>2012-03-18T08:06:48Z</time>
      </trkpt>
      <trkpt lat="47.34386" lon="-0.34607">
        <ele>71.76</ele>
        <time>2012-03-18T08:06:50Z</time>
      </trkpt>
      <trkpt lat="47.34413" lon="-0.34562">
        <ele>70.79</ele>
        <time>2012-03-18T08:06:57Z</time>
      </trkpt>
      <trkpt lat="47.34435" lon="-0.34511">
        <ele>70.31</ele>
        <time>2012-03-18T08:07:04Z</time>
      </trkpt>
      <trkpt lat="47.34447" lon="-0.34485">
        <ele>69.83</ele>
        <time>2012-03-18T08:07:08Z</time>
      </trkpt>
      <trkpt lat="47.3447" lon="-0.3443">
        <ele>69.35</ele>
        <time>2012-03-18T08:07:16Z</time>
      </trkpt>
      <trkpt lat="47.3448" lon="-0.34411">
        <ele>68.87</ele>
        <time>2012-03-18T08:07:19Z</time>
      </trkpt>
      <trkpt lat="47.34512" lon="-0.34367">
        <ele>68.87</ele>
        <time>2012-03-18T08:07:27Z</time>
      </trkpt>
      <trkpt lat="47.34554" lon="-0.34316">
        <ele>69.35</ele>
        <time>2012-03-18T08:07:37Z</time>
      </trkpt>
      <trkpt lat="47.34584" lon="-0.34279">
        <ele>71.27</ele>
        <time>2012-03-18T08:07:46Z</time>
      </trkpt>
      <trkpt lat="47.3459" lon="-0.34271">
        <ele>71.76</ele>
        <time>2012-03-18T08:07:48Z</time>
      </trkpt>
      <trkpt lat="47.34593" lon="-0.34244">
        <ele>72.24</ele>
        <time>2012-03-18T08:07:53Z</time>
      </trkpt>
      <trkpt lat="47.34575" lon="-0.34205">
        <ele>74.16</ele>
        <time>2012-03-18T08:08:01Z</time>
      </trkpt>
      <trkpt lat="47.34566" lon="-0.34185">
        <ele>74.64</ele>
        <time>2012-03-18T08:08:05Z</time>
      </trkpt>
      <trkpt lat="47.34545" lon="-0.34142">
        <ele>75.12</ele>
        <time>2012-03-18T08:08:13Z</time>
      </trkpt>
      <trkpt lat="47.34537" lon="-0.34122">
        <ele>74.64</ele>
        <time>2012-03-18T08:08:16Z</time>
      </trkpt>
      <trkpt lat="47.34525" lon="-0.34102">
        <ele>74.64</ele>
        <time>2012-03-18T08:08:20Z</time>
      </trkpt>
      <trkpt lat="47.34517" lon="-0.34093">
        <ele>75.12</ele>
        <time>2012-03-18T08:08:22Z</time>
      </trkpt>
      <trkpt lat="47.34488" lon="-0.34063">
        <ele>75.12</ele>
        <time>2012-03-18T08:08:30Z</time>
      </trkpt>
      <trkpt lat="47.34483" lon="-0.34055">
        <ele>74.64</ele>
        <time>2012-03-18T08:08:32Z</time>
      </trkpt>
      <trkpt lat="47.34489" lon="-0.34035">
        <ele>74.16</ele>
        <time>2012-03-18T08:08:36Z</time>
      </trkpt>
      <trkpt lat="47.34504" lon="-0.34009">
        <ele>74.64</ele>
        <time>2012-03-18T08:08:42Z</time>
      </trkpt>
      <trkpt lat="47.34502" lon="-0.33979">
        <ele>75.12</ele>
        <time>2012-03-18T08:08:47Z</time>
      </trkpt>
      <trkpt lat="47.34499" lon="-0.3396">
        <ele>74.64</ele>
        <time>2012-03-18T08:08:50Z</time>
      </trkpt>
      <trkpt lat="47.34494" lon="-0.33939">
        <ele>74.64</ele>
        <time>2012-03-18T08:08:53Z</time>
      </trkpt>
      <trkpt lat="47.34486" lon="-0.33902">
        <ele>74.64</ele>
        <time>2012-03-18T08:08:59Z</time>
      </trkpt>
      <trkpt lat="47.34485" lon="-0.33897">
        <ele>74.64</ele>
        <time>2012-03-18T08:09:00Z</time>
      </trkpt>
      <trkpt lat="47.34473" lon="-0.33844">
        <ele>74.64</ele>
        <time>2012-03-18T08:09:08Z</time>
      </trkpt>
      <trkpt lat="47.34465" lon="-0.33802">
        <ele>74.16</ele>
        <time>2012-03-18T08:09:14Z</time>
      </trkpt>
      <trkpt lat="47.34462" lon="-0.33771">
        <ele>73.2</ele>
        <time>2012-03-18T08:09:18Z</time>
      </trkpt>
      <trkpt lat="47.34461" lon="-0.33703">
        <ele>72.72</ele>
        <time>2012-03-18T08:09:27Z</time>
      </trkpt>
      <trkpt lat="47.34461" lon="-0.33679">
        <ele>70.79</ele>
        <time>2012-03-18T08:09:30Z</time>
      </trkpt>
      <trkpt lat="47.34464" lon="-0.33652">
        <ele>69.35</ele>
        <time>2012-03-18T08:09:33Z</time>
      </trkpt>
      <trkpt lat="47.34468" lon="-0.33619">
        <ele>67.91</ele>
        <time>2012-03-18T08:09:36Z</time>
      </trkpt>
      <trkpt lat="47.3447" lon="-0.33595">
        <ele>66.47</ele>
        <time>2012-03-18T08:09:38Z</time>
      </trkpt>
      <trkpt lat="47.34459" lon="-0.33527">
        <ele>66.95</ele>
        <time>2012-03-18T08:09:45Z</time>
      </trkpt>
      <trkpt lat="47.34457" lon="-0.33518">
        <ele>66.47</ele>
        <time>2012-03-18T08:09:46Z</time>
      </trkpt>
      <trkpt lat="47.34459" lon="-0.33473">
        <ele>65.99</ele>
        <time>2012-03-18T08:09:51Z</time>
      </trkpt>
      <trkpt lat="47.34464" lon="-0.33413">
        <ele>65.03</ele>
        <time>2012-03-18T08:09:58Z</time>
      </trkpt>
      <trkpt lat="47.3447" lon="-0.33364">
        <ele>65.99</ele>
        <time>2012-03-18T08:10:05Z</time>
      </trkpt>
      <trkpt lat="47.34472" lon="-0.3335">
        <ele>65.99</ele>
        <time>2012-03-18T08:10:07Z</time>
      </trkpt>
      <trkpt lat="47.34477" lon="-0.33315">
        <ele>67.43</ele>
        <time>2012-03-18T08:10:13Z</time>
      </trkpt>
      <trkpt lat="47.34475" lon="-0.33284">
        <ele>68.87</ele>
        <time>2012-03-18T08:10:19Z</time>
      </trkpt>
      <trkpt lat="47.34471" lon="-0.33257">
        <ele>69.83</ele>
        <time>2012-03-18T08:10:25Z</time>
      </trkpt>
      <trkpt lat="47.34468" lon="-0.33232">
        <ele>71.76</ele>
        <time>2012-03-18T08:10:31Z</time>
      </trkpt>
      <trkpt lat="47.34466" lon="-0.33224">
        <ele>72.24</ele>
        <time>2012-03-18T08:10:33Z</time>
      </trkpt>
      <trkpt lat="47.34465" lon="-0.33201">
        <ele>74.16</ele>
        <time>2012-03-18T08:10:39Z</time>
      </trkpt>
      <trkpt lat="47.34462" lon="-0.33177">
        <ele>76.08</ele>
        <time>2012-03-18T08:10:45Z</time>
      </trkpt>
      <trkpt lat="47.34462" lon="-0.33174">
        <ele>76.56</ele>
        <time>2012-03-18T08:10:46Z</time>
      </trkpt>
      <trkpt lat="47.3446" lon="-0.33167">
        <ele>77.04</ele>
        <time>2012-03-18T08:10:48Z</time>
      </trkpt>
      <trkpt lat="47.34459" lon="-0.33166">
        <ele>77.52</ele>
        <time>2012-03-18T08:10:50Z</time>
      </trkpt>
      <trkpt lat="47.34463" lon="-0.33158">
        <ele>78.48</ele>
        <time>2012-03-18T08:10:53Z</time>
      </trkpt>
      <trkpt lat="47.34465" lon="-0.33155">
        <ele>78.97</ele>
        <time>2012-03-18T08:10:54Z</time>
      </trkpt>
      <trkpt lat="47.34482" lon="-0.33137">
        <ele>80.89</ele>
        <time>2012-03-18T08:11:02Z</time>
      </trkpt>
      <trkpt lat="47.34484" lon="-0.33135">
        <ele>80.41</ele>
        <time>2012-03-18T08:11:03Z</time>
      </trkpt>
      <trkpt lat="47.34501" lon="-0.33126">
        <ele>81.85</ele>
        <time>2012-03-18T08:11:10Z</time>
      </trkpt>
      <trkpt lat="47.34521" lon="-0.33124">
        <ele>81.85</ele>
        <time>2012-03-18T08:11:18Z</time>
      </trkpt>
      <trkpt lat="47.34531" lon="-0.33131">
        <ele>82.33</ele>
        <time>2012-03-18T08:11:22Z</time>
      </trkpt>
      <trkpt lat="47.34556" lon="-0.33134">
        <ele>82.33</ele>
        <time>2012-03-18T08:11:30Z</time>
      </trkpt>
      <trkpt lat="47.34581" lon="-0.33131">
        <ele>82.81</ele>
        <time>2012-03-18T08:11:38Z</time>
      </trkpt>
      <trkpt lat="47.34598" lon="-0.33124">
        <ele>83.77</ele>
        <time>2012-03-18T08:11:44Z</time>
      </trkpt>
      <trkpt lat="47.34615" lon="-0.33116">
        <ele>83.29</ele>
        <time>2012-03-18T08:11:50Z</time>
      </trkpt>
      <trkpt lat="47.34634" lon="-0.33099">
        <ele>83.29</ele>
        <time>2012-03-18T08:11:56Z</time>
      </trkpt>
      <trkpt lat="47.34664" lon="-0.33076">
        <ele>82.81</ele>
        <time>2012-03-18T08:12:04Z</time>
      </trkpt>
      <trkpt lat="47.34667" lon="-0.33074">
        <ele>82.33</ele>
        <time>2012-03-18T08:12:05Z</time>
      </trkpt>
      <trkpt lat="47.34681" lon="-0.33069">
        <ele>82.33</ele>
        <time>2012-03-18T08:12:08Z</time>
      </trkpt>
      <trkpt lat="47.34697" lon="-0.33063">
        <ele>82.33</ele>
        <time>2012-03-18T08:12:12Z</time>
      </trkpt>
      <trkpt lat="47.3472" lon="-0.3305">
        <ele>81.85</ele>
        <time>2012-03-18T08:12:19Z</time>
      </trkpt>
      <trkpt lat="47.34729" lon="-0.33044">
        <ele>82.33</ele>
        <time>2012-03-18T08:12:22Z</time>
      </trkpt>
      <trkpt lat="47.34757" lon="-0.33016">
        <ele>82.81</ele>
        <time>2012-03-18T08:12:30Z</time>
      </trkpt>
      <trkpt lat="47.34769" lon="-0.33003">
        <ele>82.81</ele>
        <time>2012-03-18T08:12:34Z</time>
      </trkpt>
      <trkpt lat="47.34769" lon="-0.32967">
        <ele>82.33</ele>
        <time>2012-03-18T08:12:41Z</time>
      </trkpt>
      <trkpt lat="47.34769" lon="-0.32961">
        <ele>82.33</ele>
        <time>2012-03-18T08:12:42Z</time>
      </trkpt>
      <trkpt lat="47.34771" lon="-0.32922">
        <ele>82.33</ele>
        <time>2012-03-18T08:12:47Z</time>
      </trkpt>
      <trkpt lat="47.34774" lon="-0.32892">
        <ele>80.89</ele>
        <time>2012-03-18T08:12:52Z</time>
      </trkpt>
      <trkpt lat="47.34777" lon="-0.32863">
        <ele>79.45</ele>
        <time>2012-03-18T08:12:57Z</time>
      </trkpt>
      <trkpt lat="47.34781" lon="-0.32816">
        <ele>77.04</ele>
        <time>2012-03-18T08:13:03Z</time>
      </trkpt>
      <trkpt lat="47.34785" lon="-0.32778">
        <ele>74.16</ele>
        <time>2012-03-18T08:13:09Z</time>
      </trkpt>
      <trkpt lat="47.34786" lon="-0.3277">
        <ele>72.72</ele>
        <time>2012-03-18T08:13:10Z</time>
      </trkpt>
      <trkpt lat="47.34794" lon="-0.32734">
        <ele>67.43</ele>
        <time>2012-03-18T08:13:14Z</time>
      </trkpt>
      <trkpt lat="47.34796" lon="-0.32714">
        <ele>65.03</ele>
        <time>2012-03-18T08:13:16Z</time>
      </trkpt>
      <trkpt lat="47.34802" lon="-0.32686">
        <ele>63.58</ele>
        <time>2012-03-18T08:13:20Z</time>
      </trkpt>
      <trkpt lat="47.34805" lon="-0.32683">
        <ele>63.1</ele>
        <time>2012-03-18T08:13:21Z</time>
      </trkpt>
      <trkpt lat="47.34832" lon="-0.32676">
        <ele>63.58</ele>
        <time>2012-03-18T08:13:28Z</time>
      </trkpt>
      <trkpt lat="47.34855" lon="-0.32667">
        <ele>64.07</ele>
        <time>2012-03-18T08:13:34Z</time>
      </trkpt>
      <trkpt lat="47.34871" lon="-0.32661">
        <ele>65.03</ele>
        <time>2012-03-18T08:13:39Z</time>
      </trkpt>
      <trkpt lat="47.34884" lon="-0.32655">
        <ele>66.47</ele>
        <time>2012-03-18T08:13:43Z</time>
      </trkpt>
      <trkpt lat="47.34893" lon="-0.32651">
        <ele>67.91</ele>
        <time>2012-03-18T08:13:46Z</time>
      </trkpt>
      <trkpt lat="47.34896" lon="-0.32649">
        <ele>67.43</ele>
        <time>2012-03-18T08:13:47Z</time>
      </trkpt>
      <trkpt lat="47.34899" lon="-0.32627">
        <ele>66.95</ele>
        <time>2012-03-18T08:13:52Z</time>
      </trkpt>
      <trkpt lat="47.34897" lon="-0.32621">
        <ele>66.95</ele>
        <time>2012-03-18T08:13:53Z</time>
      </trkpt>
      <trkpt lat="47.34883" lon="-0.32566">
        <ele>64.07</ele>
        <time>2012-03-18T08:14:01Z</time>
      </trkpt>
      <trkpt lat="47.34882" lon="-0.32559">
        <ele>63.1</ele>
        <time>2012-03-18T08:14:02Z</time>
      </trkpt>
      <trkpt lat="47.34878" lon="-0.32481">
        <ele>60.7</ele>
        <time>2012-03-18T08:14:11Z</time>
      </trkpt>
      <trkpt lat="47.34873" lon="-0.32409">
        <ele>58.3</ele>
        <time>2012-03-18T08:14:18Z</time>
      </trkpt>
      <trkpt lat="47.34868" lon="-0.32356">
        <ele>58.78</ele>
        <time>2012-03-18T08:14:25Z</time>
      </trkpt>
      <trkpt lat="47.34866" lon="-0.32327">
        <ele>59.74</ele>
        <time>2012-03-18T08:14:31Z</time>
      </trkpt>
      <trkpt lat="47.34867" lon="-0.32324">
        <ele>59.26</ele>
        <time>2012-03-18T08:14:32Z</time>
      </trkpt>
      <trkpt lat="47.34875" lon="-0.3232">
        <ele>58.78</ele>
        <time>2012-03-18T08:14:35Z</time>
      </trkpt>
      <trkpt lat="47.34892" lon="-0.32315">
        <ele>58.3</ele>
        <time>2012-03-18T08:14:39Z</time>
      </trkpt>
      <trkpt lat="47.34934" lon="-0.32305">
        <ele>57.82</ele>
        <time>2012-03-18T08:14:46Z</time>
      </trkpt>
      <trkpt lat="47.3496" lon="-0.32309">
        <ele>56.37</ele>
        <time>2012-03-18T08:14:50Z</time>
      </trkpt>
      <trkpt lat="47.35011" lon="-0.32301">
        <ele>54.93</ele>
        <time>2012-03-18T08:14:57Z</time>
      </trkpt>
      <trkpt lat="47.35045" lon="-0.3228">
        <ele>53.01</ele>
        <time>2012-03-18T08:15:02Z</time>
      </trkpt>
      <trkpt lat="47.35099" lon="-0.32231">
        <ele>50.13</ele>
        <time>2012-03-18T08:15:10Z</time>
      </trkpt>
      <trkpt lat="47.35131" lon="-0.32203">
        <ele>46.28</ele>
        <time>2012-03-18T08:15:14Z</time>
      </trkpt>
      <trkpt lat="47.3515" lon="-0.32187">
        <ele>43.88</ele>
        <time>2012-03-18T08:15:17Z</time>
      </trkpt>
      <trkpt lat="47.35162" lon="-0.32163">
        <ele>42.92</ele>
        <time>2012-03-18T08:15:21Z</time>
      </trkpt>
      <trkpt lat="47.35161" lon="-0.32154">
        <ele>43.4</ele>
        <time>2012-03-18T08:15:22Z</time>
      </trkpt>
      <trkpt lat="47.35158" lon="-0.32109">
        <ele>41.95</ele>
        <time>2012-03-18T08:15:27Z</time>
      </trkpt>
      <trkpt lat="47.35149" lon="-0.32057">
        <ele>41.95</ele>
        <time>2012-03-18T08:15:33Z</time>
      </trkpt>
      <trkpt lat="47.35148" lon="-0.31996">
        <ele>41.47</ele>
        <time>2012-03-18T08:15:40Z</time>
      </trkpt>
      <trkpt lat="47.35153" lon="-0.31944">
        <ele>42.92</ele>
        <time>2012-03-18T08:15:47Z</time>
      </trkpt>
      <trkpt lat="47.35159" lon="-0.31896">
        <ele>44.36</ele>
        <time>2012-03-18T08:15:54Z</time>
      </trkpt>
      <trkpt lat="47.35161" lon="-0.31873">
        <ele>45.8</ele>
        <time>2012-03-18T08:15:58Z</time>
      </trkpt>
      <trkpt lat="47.35166" lon="-0.31825">
        <ele>48.2</ele>
        <time>2012-03-18T08:16:07Z</time>
      </trkpt>
      <trkpt lat="47.35171" lon="-0.31772">
        <ele>50.61</ele>
        <time>2012-03-18T08:16:17Z</time>
      </trkpt>
      <trkpt lat="47.35171" lon="-0.31735">
        <ele>51.09</ele>
        <time>2012-03-18T08:16:24Z</time>
      </trkpt>
      <trkpt lat="47.35169" lon="-0.31719">
        <ele>52.05</ele>
        <time>2012-03-18T08:16:27Z</time>
      </trkpt>
      <trkpt lat="47.35168" lon="-0.31701">
        <ele>53.01</ele>
        <time>2012-03-18T08:16:30Z</time>
      </trkpt>
      <trkpt lat="47.35162" lon="-0.3165">
        <ele>54.93</ele>
        <time>2012-03-18T08:16:40Z</time>
      </trkpt>
      <trkpt lat="47.35165" lon="-0.31612">
        <ele>55.89</ele>
        <time>2012-03-18T08:16:48Z</time>
      </trkpt>
      <trkpt lat="47.35153" lon="-0.31588">
        <ele>56.86</ele>
        <time>2012-03-18T08:16:54Z</time>
      </trkpt>
      <trkpt lat="47.35144" lon="-0.3156">
        <ele>57.82</ele>
        <time>2012-03-18T08:17:01Z</time>
      </trkpt>
      <trkpt lat="47.35132" lon="-0.3153">
        <ele>58.3</ele>
        <time>2012-03-18T08:17:09Z</time>
      </trkpt>
      <trkpt lat="47.35123" lon="-0.31505">
        <ele>58.78</ele>
        <time>2012-03-18T08:17:16Z</time>
      </trkpt>
      <trkpt lat="47.35111" lon="-0.31477">
        <ele>59.26</ele>
        <time>2012-03-18T08:17:24Z</time>
      </trkpt>
      <trkpt lat="47.35102" lon="-0.31453">
        <ele>59.26</ele>
        <time>2012-03-18T08:17:31Z</time>
      </trkpt>
      <trkpt lat="47.35091" lon="-0.3142">
        <ele>59.74</ele>
        <time>2012-03-18T08:17:40Z</time>
      </trkpt>
      <trkpt lat="47.35084" lon="-0.31397">
        <ele>60.22</ele>
        <time>2012-03-18T08:17:46Z</time>
      </trkpt>
      <trkpt lat="47.35074" lon="-0.31367">
        <ele>60.22</ele>
        <time>2012-03-18T08:17:54Z</time>
      </trkpt>
      <trkpt lat="47.35062" lon="-0.31329">
        <ele>61.18</ele>
        <time>2012-03-18T08:18:04Z</time>
      </trkpt>
      <trkpt lat="47.35051" lon="-0.31294">
        <ele>61.18</ele>
        <time>2012-03-18T08:18:13Z</time>
      </trkpt>
      <trkpt lat="47.3504" lon="-0.31256">
        <ele>62.14</ele>
        <time>2012-03-18T08:18:23Z</time>
      </trkpt>
      <trkpt lat="47.35032" lon="-0.31227">
        <ele>63.58</ele>
        <time>2012-03-18T08:18:31Z</time>
      </trkpt>
      <trkpt lat="47.35022" lon="-0.31197">
        <ele>64.07</ele>
        <time>2012-03-18T08:18:39Z</time>
      </trkpt>
      <trkpt lat="47.3501" lon="-0.31173">
        <ele>65.03</ele>
        <time>2012-03-18T08:18:47Z</time>
      </trkpt>
      <trkpt lat="47.35004" lon="-0.31159">
        <ele>65.99</ele>
        <time>2012-03-18T08:18:53Z</time>
      </trkpt>
      <trkpt lat="47.35003" lon="-0.31156">
        <ele>65.99</ele>
        <time>2012-03-18T08:18:54Z</time>
      </trkpt>
      <trkpt lat="47.34998" lon="-0.31144">
        <ele>67.43</ele>
        <time>2012-03-18T08:19:01Z</time>
      </trkpt>
      <trkpt lat="47.34997" lon="-0.3114">
        <ele>67.43</ele>
        <time>2012-03-18T08:19:03Z</time>
      </trkpt>
      <trkpt lat="47.34991" lon="-0.31127">
        <ele>69.35</ele>
        <time>2012-03-18T08:19:09Z</time>
      </trkpt>
      <trkpt lat="47.34989" lon="-0.31123">
        <ele>69.35</ele>
        <time>2012-03-18T08:19:14Z</time>
      </trkpt>
      <trkpt lat="47.34985" lon="-0.31111">
        <ele>70.31</ele>
        <time>2012-03-18T08:19:21Z</time>
      </trkpt>
      <trkpt lat="47.34981" lon="-0.31104">
        <ele>71.27</ele>
        <time>2012-03-18T08:19:27Z</time>
      </trkpt>
      <trkpt lat="47.3498" lon="-0.311">
        <ele>71.76</ele>
        <time>2012-03-18T08:19:30Z</time>
      </trkpt>
      <trkpt lat="47.34975" lon="-0.31087">
        <ele>73.2</ele>
        <time>2012-03-18T08:19:38Z</time>
      </trkpt>
      <trkpt lat="47.34974" lon="-0.31085">
        <ele>73.2</ele>
        <time>2012-03-18T08:19:39Z</time>
      </trkpt>
      <trkpt lat="47.3497" lon="-0.3108">
        <ele>74.16</ele>
        <time>2012-03-18T08:19:45Z</time>
      </trkpt>
      <trkpt lat="47.34967" lon="-0.31075">
        <ele>74.64</ele>
        <time>2012-03-18T08:19:50Z</time>
      </trkpt>
      <trkpt lat="47.34961" lon="-0.31061">
        <ele>76.08</ele>
        <time>2012-03-18T08:19:57Z</time>
      </trkpt>
      <trkpt lat="47.34959" lon="-0.31054">
        <ele>77.04</ele>
        <time>2012-03-18T08:20:01Z</time>
      </trkpt>
      <trkpt lat="47.34957" lon="-0.31046">
        <ele>77.52</ele>
        <time>2012-03-18T08:20:06Z</time>
      </trkpt>
      <trkpt lat="47.34954" lon="-0.31035">
        <ele>78.48</ele>
        <time>2012-03-18T08:20:13Z</time>
      </trkpt>
      <trkpt lat="47.34952" lon="-0.31026">
        <ele>79.45</ele>
        <time>2012-03-18T08:20:19Z</time>
      </trkpt>
      <trkpt lat="47.3495" lon="-0.31019">
        <ele>79.93</ele>
        <time>2012-03-18T08:20:23Z</time>
      </trkpt>
      <trkpt lat="47.3495" lon="-0.31009">
        <ele>79.93</ele>
        <time>2012-03-18T08:20:31Z</time>
      </trkpt>
      <trkpt lat="47.3495" lon="-0.31009">
        <ele>80.41</ele>
        <time>2012-03-18T08:20:44Z</time>
      </trkpt>
      <trkpt lat="47.34946" lon="-0.31">
        <ele>80.89</ele>
        <time>2012-03-18T08:20:50Z</time>
      </trkpt>
      <trkpt lat="47.34945" lon="-0.30998">
        <ele>80.89</ele>
        <time>2012-03-18T08:20:51Z</time>
      </trkpt>
      <trkpt lat="47.34931" lon="-0.30981">
        <ele>79.93</ele>
        <time>2012-03-18T08:20:58Z</time>
      </trkpt>
      <trkpt lat="47.34924" lon="-0.30951">
        <ele>79.93</ele>
        <time>2012-03-18T08:21:04Z</time>
      </trkpt>
      <trkpt lat="47.34919" lon="-0.30924">
        <ele>79.45</ele>
        <time>2012-03-18T08:21:09Z</time>
      </trkpt>
      <trkpt lat="47.34912" lon="-0.30894">
        <ele>79.45</ele>
        <time>2012-03-18T08:21:15Z</time>
      </trkpt>
      <trkpt lat="47.349" lon="-0.30859">
        <ele>79.93</ele>
        <time>2012-03-18T08:21:22Z</time>
      </trkpt>
      <trkpt lat="47.34895" lon="-0.30833">
        <ele>78.97</ele>
        <time>2012-03-18T08:21:27Z</time>
      </trkpt>
      <trkpt lat="47.34895" lon="-0.30808">
        <ele>80.41</ele>
        <time>2012-03-18T08:21:33Z</time>
      </trkpt>
      <trkpt lat="47.34895" lon="-0.30777">
        <ele>80.89</ele>
        <time>2012-03-18T08:21:39Z</time>
      </trkpt>
      <trkpt lat="47.34895" lon="-0.30773">
        <ele>81.37</ele>
        <time>2012-03-18T08:21:40Z</time>
      </trkpt>
      <trkpt lat="47.34896" lon="-0.30768">
        <ele>81.85</ele>
        <time>2012-03-18T08:21:42Z</time>
      </trkpt>
      <trkpt lat="47.34897" lon="-0.30763">
        <ele>82.33</ele>
        <time>2012-03-18T08:21:48Z</time>
      </trkpt>
      <trkpt lat="47.34897" lon="-0.30763">
        <ele>81.85</ele>
        <time>2012-03-18T08:21:55Z</time>
      </trkpt>
      <trkpt lat="47.34897" lon="-0.30763">
        <ele>81.85</ele>
        <time>2012-03-18T08:22:15Z</time>
      </trkpt>
      <trkpt lat="47.34897" lon="-0.30763">
        <ele>81.85</ele>
        <time>2012-03-18T08:22:26Z</time>
      </trkpt>
      <trkpt lat="47.34897" lon="-0.30763">
        <ele>77.52</ele>
        <time>2012-03-18T08:22:27Z</time>
      </trkpt>
      <trkpt lat="47.34897" lon="-0.30762">
        <ele>82.81</ele>
        <time>2012-03-18T08:22:28Z</time>
      </trkpt>
      <trkpt lat="47.34897" lon="-0.30762">
        <ele>81.37</ele>
        <time>2012-03-18T08:22:45Z</time>
      </trkpt>
      <trkpt lat="47.34897" lon="-0.30762">
        <ele>81.85</ele>
        <time>2012-03-18T08:22:54Z</time>
      </trkpt>
      <trkpt lat="47.34897" lon="-0.30762">
        <ele>81.85</ele>
        <time>2012-03-18T08:23:09Z</time>
      </trkpt>
      <trkpt lat="47.34897" lon="-0.30754">
        <ele>82.33</ele>
        <time>2012-03-18T08:23:16Z</time>
      </trkpt>
      <trkpt lat="47.34897" lon="-0.30721">
        <ele>81.85</ele>
        <time>2012-03-18T08:23:23Z</time>
      </trkpt>
      <trkpt lat="47.34896" lon="-0.30686">
        <ele>81.85</ele>
        <time>2012-03-18T08:23:30Z</time>
      </trkpt>
      <trkpt lat="47.34895" lon="-0.30674">
        <ele>82.33</ele>
        <time>2012-03-18T08:23:32Z</time>
      </trkpt>
      <trkpt lat="47.34887" lon="-0.30633">
        <ele>82.33</ele>
        <time>2012-03-18T08:23:39Z</time>
      </trkpt>
      <trkpt lat="47.34868" lon="-0.30561">
        <ele>81.85</ele>
        <time>2012-03-18T08:23:50Z</time>
      </trkpt>
      <trkpt lat="47.34852" lon="-0.30499">
        <ele>81.85</ele>
        <time>2012-03-18T08:23:59Z</time>
      </trkpt>
      <trkpt lat="47.34838" lon="-0.30431">
        <ele>79.93</ele>
        <time>2012-03-18T08:24:08Z</time>
      </trkpt>
      <trkpt lat="47.34828" lon="-0.30363">
        <ele>78.97</ele>
        <time>2012-03-18T08:24:16Z</time>
      </trkpt>
      <trkpt lat="47.34824" lon="-0.30323">
        <ele>78</ele>
        <time>2012-03-18T08:24:21Z</time>
      </trkpt>
      <trkpt lat="47.34834" lon="-0.30302">
        <ele>78.48</ele>
        <time>2012-03-18T08:24:25Z</time>
      </trkpt>
      <trkpt lat="47.34838" lon="-0.30299">
        <ele>78.48</ele>
        <time>2012-03-18T08:24:26Z</time>
      </trkpt>
      <trkpt lat="47.3485" lon="-0.30285">
        <ele>78</ele>
        <time>2012-03-18T08:24:29Z</time>
      </trkpt>
      <trkpt lat="47.34863" lon="-0.30235">
        <ele>78</ele>
        <time>2012-03-18T08:24:36Z</time>
      </trkpt>
      <trkpt lat="47.34872" lon="-0.30205">
        <ele>77.04</ele>
        <time>2012-03-18T08:24:40Z</time>
      </trkpt>
      <trkpt lat="47.34899" lon="-0.30168">
        <ele>74.64</ele>
        <time>2012-03-18T08:24:46Z</time>
      </trkpt>
      <trkpt lat="47.34904" lon="-0.30163">
        <ele>74.64</ele>
        <time>2012-03-18T08:24:47Z</time>
      </trkpt>
      <trkpt lat="47.34909" lon="-0.30158">
        <ele>74.64</ele>
        <time>2012-03-18T08:24:48Z</time>
      </trkpt>
      <trkpt lat="47.34926" lon="-0.30145">
        <ele>73.2</ele>
        <time>2012-03-18T08:24:51Z</time>
      </trkpt>
      <trkpt lat="47.34966" lon="-0.30124">
        <ele>70.31</ele>
        <time>2012-03-18T08:24:57Z</time>
      </trkpt>
      <trkpt lat="47.34987" lon="-0.30109">
        <ele>68.87</ele>
        <time>2012-03-18T08:25:00Z</time>
      </trkpt>
      <trkpt lat="47.35" lon="-0.30094">
        <ele>67.91</ele>
        <time>2012-03-18T08:25:02Z</time>
      </trkpt>
      <trkpt lat="47.35048" lon="-0.30048">
        <ele>65.99</ele>
        <time>2012-03-18T08:25:09Z</time>
      </trkpt>
      <trkpt lat="47.35061" lon="-0.30039">
        <ele>64.55</ele>
        <time>2012-03-18T08:25:11Z</time>
      </trkpt>
      <trkpt lat="47.35072" lon="-0.30033">
        <ele>64.55</ele>
        <time>2012-03-18T08:25:13Z</time>
      </trkpt>
      <trkpt lat="47.35075" lon="-0.30011">
        <ele>64.07</ele>
        <time>2012-03-18T08:25:18Z</time>
      </trkpt>
      <trkpt lat="47.35054" lon="-0.29984">
        <ele>65.51</ele>
        <time>2012-03-18T08:25:26Z</time>
      </trkpt>
      <trkpt lat="47.35038" lon="-0.29964">
        <ele>66.95</ele>
        <time>2012-03-18T08:25:33Z</time>
      </trkpt>
      <trkpt lat="47.35023" lon="-0.29946">
        <ele>68.39</ele>
        <time>2012-03-18T08:25:39Z</time>
      </trkpt>
      <trkpt lat="47.35012" lon="-0.29929">
        <ele>70.31</ele>
        <time>2012-03-18T08:25:46Z</time>
      </trkpt>
      <trkpt lat="47.35001" lon="-0.29908">
        <ele>71.76</ele>
        <time>2012-03-18T08:25:53Z</time>
      </trkpt>
      <trkpt lat="47.34993" lon="-0.29889">
        <ele>73.68</ele>
        <time>2012-03-18T08:25:59Z</time>
      </trkpt>
      <trkpt lat="47.34987" lon="-0.2987">
        <ele>74.64</ele>
        <time>2012-03-18T08:26:06Z</time>
      </trkpt>
      <trkpt lat="47.34981" lon="-0.29846">
        <ele>75.6</ele>
        <time>2012-03-18T08:26:14Z</time>
      </trkpt>
      <trkpt lat="47.34975" lon="-0.29822">
        <ele>76.56</ele>
        <time>2012-03-18T08:26:22Z</time>
      </trkpt>
      <trkpt lat="47.34969" lon="-0.29792">
        <ele>76.56</ele>
        <time>2012-03-18T08:26:31Z</time>
      </trkpt>
      <trkpt lat="47.34965" lon="-0.29762">
        <ele>76.56</ele>
        <time>2012-03-18T08:26:38Z</time>
      </trkpt>
      <trkpt lat="47.34961" lon="-0.29713">
        <ele>77.04</ele>
        <time>2012-03-18T08:26:48Z</time>
      </trkpt>
      <trkpt lat="47.34961" lon="-0.29677">
        <ele>77.52</ele>
        <time>2012-03-18T08:26:55Z</time>
      </trkpt>
      <trkpt lat="47.3497" lon="-0.29633">
        <ele>78</ele>
        <time>2012-03-18T08:27:04Z</time>
      </trkpt>
      <trkpt lat="47.3498" lon="-0.29599">
        <ele>77.52</ele>
        <time>2012-03-18T08:27:11Z</time>
      </trkpt>
      <trkpt lat="47.34981" lon="-0.29593">
        <ele>77.52</ele>
        <time>2012-03-18T08:27:12Z</time>
      </trkpt>
      <trkpt lat="47.34985" lon="-0.29546">
        <ele>78.48</ele>
        <time>2012-03-18T08:27:20Z</time>
      </trkpt>
      <trkpt lat="47.34984" lon="-0.2951">
        <ele>78.97</ele>
        <time>2012-03-18T08:27:26Z</time>
      </trkpt>
      <trkpt lat="47.34977" lon="-0.29456">
        <ele>78.97</ele>
        <time>2012-03-18T08:27:35Z</time>
      </trkpt>
      <trkpt lat="47.34974" lon="-0.29433">
        <ele>79.45</ele>
        <time>2012-03-18T08:27:39Z</time>
      </trkpt>
      <trkpt lat="47.34971" lon="-0.29403">
        <ele>79.45</ele>
        <time>2012-03-18T08:27:44Z</time>
      </trkpt>
      <trkpt lat="47.3497" lon="-0.29371">
        <ele>78.97</ele>
        <time>2012-03-18T08:27:49Z</time>
      </trkpt>
      <trkpt lat="47.34968" lon="-0.29338">
        <ele>78.97</ele>
        <time>2012-03-18T08:27:54Z</time>
      </trkpt>
      <trkpt lat="47.34975" lon="-0.29311">
        <ele>78.97</ele>
        <time>2012-03-18T08:27:59Z</time>
      </trkpt>
      <trkpt lat="47.34979" lon="-0.2931">
        <ele>78.97</ele>
        <time>2012-03-18T08:28:00Z</time>
      </trkpt>
      <trkpt lat="47.35002" lon="-0.29309">
        <ele>78</ele>
        <time>2012-03-18T08:28:05Z</time>
      </trkpt>
      <trkpt lat="47.35054" lon="-0.29297">
        <ele>77.52</ele>
        <time>2012-03-18T08:28:15Z</time>
      </trkpt>
      <trkpt lat="47.35093" lon="-0.2929">
        <ele>77.04</ele>
        <time>2012-03-18T08:28:22Z</time>
      </trkpt>
      <trkpt lat="47.35121" lon="-0.29294">
        <ele>76.56</ele>
        <time>2012-03-18T08:28:27Z</time>
      </trkpt>
      <trkpt lat="47.35142" lon="-0.29302">
        <ele>76.56</ele>
        <time>2012-03-18T08:28:31Z</time>
      </trkpt>
      <trkpt lat="47.35159" lon="-0.29306">
        <ele>76.56</ele>
        <time>2012-03-18T08:28:35Z</time>
      </trkpt>
      <trkpt lat="47.35162" lon="-0.29295">
        <ele>77.04</ele>
        <time>2012-03-18T08:28:37Z</time>
      </trkpt>
      <trkpt lat="47.35164" lon="-0.29276">
        <ele>76.56</ele>
        <time>2012-03-18T08:28:40Z</time>
      </trkpt>
      <trkpt lat="47.35166" lon="-0.29219">
        <ele>76.56</ele>
        <time>2012-03-18T08:28:48Z</time>
      </trkpt>
      <trkpt lat="47.3517" lon="-0.29194">
        <ele>76.56</ele>
        <time>2012-03-18T08:28:52Z</time>
      </trkpt>
      <trkpt lat="47.3518" lon="-0.2916">
        <ele>76.56</ele>
        <time>2012-03-18T08:28:58Z</time>
      </trkpt>
      <trkpt lat="47.35201" lon="-0.29111">
        <ele>77.04</ele>
        <time>2012-03-18T08:29:06Z</time>
      </trkpt>
      <trkpt lat="47.35204" lon="-0.29064">
        <ele>75.6</ele>
        <time>2012-03-18T08:29:12Z</time>
      </trkpt>
      <trkpt lat="47.35209" lon="-0.29001">
        <ele>75.12</ele>
        <time>2012-03-18T08:29:19Z</time>
      </trkpt>
      <trkpt lat="47.35214" lon="-0.28939">
        <ele>75.6</ele>
        <time>2012-03-18T08:29:27Z</time>
      </trkpt>
      <trkpt lat="47.35216" lon="-0.28904">
        <ele>75.12</ele>
        <time>2012-03-18T08:29:32Z</time>
      </trkpt>
      <trkpt lat="47.35227" lon="-0.28875">
        <ele>73.2</ele>
        <time>2012-03-18T08:29:37Z</time>
      </trkpt>
      <trkpt lat="47.35248" lon="-0.28872">
        <ele>73.2</ele>
        <time>2012-03-18T08:29:42Z</time>
      </trkpt>
      <trkpt lat="47.35279" lon="-0.2887">
        <ele>73.68</ele>
        <time>2012-03-18T08:29:49Z</time>
      </trkpt>
      <trkpt lat="47.35306" lon="-0.28874">
        <ele>71.27</ele>
        <time>2012-03-18T08:29:55Z</time>
      </trkpt>
      <trkpt lat="47.35334" lon="-0.28874">
        <ele>68.87</ele>
        <time>2012-03-18T08:29:59Z</time>
      </trkpt>
      <trkpt lat="47.35342" lon="-0.28874">
        <ele>70.31</ele>
        <time>2012-03-18T08:30:00Z</time>
      </trkpt>
      <trkpt lat="47.35362" lon="-0.28877">
        <ele>69.83</ele>
        <time>2012-03-18T08:30:04Z</time>
      </trkpt>
      <trkpt lat="47.35383" lon="-0.28895">
        <ele>67.91</ele>
        <time>2012-03-18T08:30:08Z</time>
      </trkpt>
      <trkpt lat="47.35402" lon="-0.28892">
        <ele>67.91</ele>
        <time>2012-03-18T08:30:12Z</time>
      </trkpt>
      <trkpt lat="47.35418" lon="-0.28899">
        <ele>67.91</ele>
        <time>2012-03-18T08:30:16Z</time>
      </trkpt>
      <trkpt lat="47.35445" lon="-0.28913">
        <ele>66.95</ele>
        <time>2012-03-18T08:30:21Z</time>
      </trkpt>
      <trkpt lat="47.35479" lon="-0.28924">
        <ele>63.58</ele>
        <time>2012-03-18T08:30:27Z</time>
      </trkpt>
      <trkpt lat="47.355" lon="-0.28928">
        <ele>61.66</ele>
        <time>2012-03-18T08:30:31Z</time>
      </trkpt>
      <trkpt lat="47.35514" lon="-0.2893">
        <ele>61.66</ele>
        <time>2012-03-18T08:30:33Z</time>
      </trkpt>
      <trkpt lat="47.35574" lon="-0.28932">
        <ele>58.3</ele>
        <time>2012-03-18T08:30:41Z</time>
      </trkpt>
      <trkpt lat="47.35595" lon="-0.28933">
        <ele>57.34</ele>
        <time>2012-03-18T08:30:44Z</time>
      </trkpt>
      <trkpt lat="47.3561" lon="-0.28935">
        <ele>57.34</ele>
        <time>2012-03-18T08:30:46Z</time>
      </trkpt>
      <trkpt lat="47.35667" lon="-0.28933">
        <ele>55.41</ele>
        <time>2012-03-18T08:30:54Z</time>
      </trkpt>
      <trkpt lat="47.35734" lon="-0.28928">
        <ele>54.45</ele>
        <time>2012-03-18T08:31:03Z</time>
      </trkpt>
      <trkpt lat="47.35791" lon="-0.28933">
        <ele>53.97</ele>
        <time>2012-03-18T08:31:11Z</time>
      </trkpt>
      <trkpt lat="47.35805" lon="-0.28936">
        <ele>53.97</ele>
        <time>2012-03-18T08:31:13Z</time>
      </trkpt>
      <trkpt lat="47.35831" lon="-0.28963">
        <ele>54.45</ele>
        <time>2012-03-18T08:31:18Z</time>
      </trkpt>
      <trkpt lat="47.35855" lon="-0.29004">
        <ele>54.45</ele>
        <time>2012-03-18T08:31:24Z</time>
      </trkpt>
      <trkpt lat="47.35877" lon="-0.29019">
        <ele>53.97</ele>
        <time>2012-03-18T08:31:29Z</time>
      </trkpt>
      <trkpt lat="47.3589" lon="-0.28998">
        <ele>54.45</ele>
        <time>2012-03-18T08:31:33Z</time>
      </trkpt>
      <trkpt lat="47.35904" lon="-0.28973">
        <ele>55.41</ele>
        <time>2012-03-18T08:31:37Z</time>
      </trkpt>
      <trkpt lat="47.35919" lon="-0.28945">
        <ele>55.89</ele>
        <time>2012-03-18T08:31:42Z</time>
      </trkpt>
      <trkpt lat="47.35934" lon="-0.28932">
        <ele>56.37</ele>
        <time>2012-03-18T08:31:46Z</time>
      </trkpt>
      <trkpt lat="47.35979" lon="-0.28922">
        <ele>59.26</ele>
        <time>2012-03-18T08:31:56Z</time>
      </trkpt>
      <trkpt lat="47.35983" lon="-0.28921">
        <ele>59.26</ele>
        <time>2012-03-18T08:31:57Z</time>
      </trkpt>
      <trkpt lat="47.3602" lon="-0.28914">
        <ele>61.18</ele>
        <time>2012-03-18T08:32:06Z</time>
      </trkpt>
      <trkpt lat="47.36049" lon="-0.28907">
        <ele>61.66</ele>
        <time>2012-03-18T08:32:13Z</time>
      </trkpt>
      <trkpt lat="47.36081" lon="-0.28898">
        <ele>61.66</ele>
        <time>2012-03-18T08:32:21Z</time>
      </trkpt>
      <trkpt lat="47.36099" lon="-0.28891">
        <ele>62.62</ele>
        <time>2012-03-18T08:32:26Z</time>
      </trkpt>
      <trkpt lat="47.36114" lon="-0.28882">
        <ele>63.58</ele>
        <time>2012-03-18T08:32:30Z</time>
      </trkpt>
      <trkpt lat="47.36128" lon="-0.28867">
        <ele>62.62</ele>
        <time>2012-03-18T08:32:35Z</time>
      </trkpt>
      <trkpt lat="47.36151" lon="-0.28851">
        <ele>63.1</ele>
        <time>2012-03-18T08:32:41Z</time>
      </trkpt>
      <trkpt lat="47.36165" lon="-0.28844">
        <ele>64.07</ele>
        <time>2012-03-18T08:32:44Z</time>
      </trkpt>
      <trkpt lat="47.36179" lon="-0.28841">
        <ele>64.07</ele>
        <time>2012-03-18T08:32:47Z</time>
      </trkpt>
      <trkpt lat="47.36202" lon="-0.28834">
        <ele>65.03</ele>
        <time>2012-03-18T08:32:53Z</time>
      </trkpt>
      <trkpt lat="47.36214" lon="-0.28834">
        <ele>65.03</ele>
        <time>2012-03-18T08:32:56Z</time>
      </trkpt>
      <trkpt lat="47.36238" lon="-0.28839">
        <ele>65.51</ele>
        <time>2012-03-18T08:33:02Z</time>
      </trkpt>
      <trkpt lat="47.36265" lon="-0.28843">
        <ele>66.47</ele>
        <time>2012-03-18T08:33:09Z</time>
      </trkpt>
      <trkpt lat="47.36284" lon="-0.28844">
        <ele>66.47</ele>
        <time>2012-03-18T08:33:14Z</time>
      </trkpt>
      <trkpt lat="47.36305" lon="-0.28839">
        <ele>66.47</ele>
        <time>2012-03-18T08:33:20Z</time>
      </trkpt>
      <trkpt lat="47.36327" lon="-0.28833">
        <ele>66.95</ele>
        <time>2012-03-18T08:33:26Z</time>
      </trkpt>
      <trkpt lat="47.36355" lon="-0.28823">
        <ele>67.43</ele>
        <time>2012-03-18T08:33:33Z</time>
      </trkpt>
      <trkpt lat="47.36373" lon="-0.28816">
        <ele>67.43</ele>
        <time>2012-03-18T08:33:38Z</time>
      </trkpt>
      <trkpt lat="47.36401" lon="-0.28807">
        <ele>68.39</ele>
        <time>2012-03-18T08:33:45Z</time>
      </trkpt>
      <trkpt lat="47.36428" lon="-0.28814">
        <ele>69.83</ele>
        <time>2012-03-18T08:33:52Z</time>
      </trkpt>
      <trkpt lat="47.36449" lon="-0.28819">
        <ele>70.31</ele>
        <time>2012-03-18T08:33:58Z</time>
      </trkpt>
      <trkpt lat="47.36473" lon="-0.28826">
        <ele>70.79</ele>
        <time>2012-03-18T08:34:05Z</time>
      </trkpt>
      <trkpt lat="47.36491" lon="-0.28831">
        <ele>70.79</ele>
        <time>2012-03-18T08:34:10Z</time>
      </trkpt>
      <trkpt lat="47.36518" lon="-0.28838">
        <ele>71.76</ele>
        <time>2012-03-18T08:34:17Z</time>
      </trkpt>
      <trkpt lat="47.3654" lon="-0.28838">
        <ele>72.72</ele>
        <time>2012-03-18T08:34:23Z</time>
      </trkpt>
      <trkpt lat="47.36558" lon="-0.2884">
        <ele>72.72</ele>
        <time>2012-03-18T08:34:29Z</time>
      </trkpt>
      <trkpt lat="47.36572" lon="-0.28853">
        <ele>73.2</ele>
        <time>2012-03-18T08:34:35Z</time>
      </trkpt>
      <trkpt lat="47.3658" lon="-0.28885">
        <ele>73.2</ele>
        <time>2012-03-18T08:34:41Z</time>
      </trkpt>
      <trkpt lat="47.3658" lon="-0.28902">
        <ele>73.2</ele>
        <time>2012-03-18T08:34:44Z</time>
      </trkpt>
      <trkpt lat="47.36587" lon="-0.28927">
        <ele>72.72</ele>
        <time>2012-03-18T08:34:49Z</time>
      </trkpt>
      <trkpt lat="47.36599" lon="-0.2896">
        <ele>72.72</ele>
        <time>2012-03-18T08:34:55Z</time>
      </trkpt>
      <trkpt lat="47.36601" lon="-0.28991">
        <ele>72.24</ele>
        <time>2012-03-18T08:35:00Z</time>
      </trkpt>
      <trkpt lat="47.36599" lon="-0.28998">
        <ele>72.24</ele>
        <time>2012-03-18T08:35:01Z</time>
      </trkpt>
      <trkpt lat="47.36597" lon="-0.29018">
        <ele>71.76</ele>
        <time>2012-03-18T08:35:04Z</time>
      </trkpt>
      <trkpt lat="47.36595" lon="-0.29058">
        <ele>71.76</ele>
        <time>2012-03-18T08:35:10Z</time>
      </trkpt>
      <trkpt lat="47.36592" lon="-0.29072">
        <ele>70.79</ele>
        <time>2012-03-18T08:35:12Z</time>
      </trkpt>
      <trkpt lat="47.36588" lon="-0.29094">
        <ele>71.27</ele>
        <time>2012-03-18T08:35:15Z</time>
      </trkpt>
      <trkpt lat="47.36582" lon="-0.29124">
        <ele>71.27</ele>
        <time>2012-03-18T08:35:20Z</time>
      </trkpt>
      <trkpt lat="47.36575" lon="-0.29162">
        <ele>70.79</ele>
        <time>2012-03-18T08:35:26Z</time>
      </trkpt>
      <trkpt lat="47.36564" lon="-0.2918">
        <ele>71.27</ele>
        <time>2012-03-18T08:35:30Z</time>
      </trkpt>
      <trkpt lat="47.36555" lon="-0.2919">
        <ele>70.79</ele>
        <time>2012-03-18T08:35:33Z</time>
      </trkpt>
      <trkpt lat="47.36547" lon="-0.29211">
        <ele>69.35</ele>
        <time>2012-03-18T08:35:37Z</time>
      </trkpt>
      <trkpt lat="47.36543" lon="-0.29225">
        <ele>68.39</ele>
        <time>2012-03-18T08:35:39Z</time>
      </trkpt>
      <trkpt lat="47.36538" lon="-0.29236">
        <ele>67.43</ele>
        <time>2012-03-18T08:35:41Z</time>
      </trkpt>
      <trkpt lat="47.36531" lon="-0.29258">
        <ele>65.51</ele>
        <time>2012-03-18T08:35:45Z</time>
      </trkpt>
      <trkpt lat="47.3653" lon="-0.2927">
        <ele>64.55</ele>
        <time>2012-03-18T08:35:47Z</time>
      </trkpt>
      <trkpt lat="47.36528" lon="-0.29295">
        <ele>62.62</ele>
        <time>2012-03-18T08:35:52Z</time>
      </trkpt>
      <trkpt lat="47.36528" lon="-0.29298">
        <ele>61.18</ele>
        <time>2012-03-18T08:35:53Z</time>
      </trkpt>
      <trkpt lat="47.36525" lon="-0.29308">
        <ele>60.7</ele>
        <time>2012-03-18T08:35:55Z</time>
      </trkpt>
      <trkpt lat="47.36518" lon="-0.2934">
        <ele>58.3</ele>
        <time>2012-03-18T08:36:00Z</time>
      </trkpt>
      <trkpt lat="47.36515" lon="-0.29355">
        <ele>58.3</ele>
        <time>2012-03-18T08:36:02Z</time>
      </trkpt>
      <trkpt lat="47.36505" lon="-0.2939">
        <ele>57.34</ele>
        <time>2012-03-18T08:36:07Z</time>
      </trkpt>
      <trkpt lat="47.36499" lon="-0.29405">
        <ele>57.34</ele>
        <time>2012-03-18T08:36:09Z</time>
      </trkpt>
      <trkpt lat="47.36486" lon="-0.29431">
        <ele>57.34</ele>
        <time>2012-03-18T08:36:14Z</time>
      </trkpt>
      <trkpt lat="47.36481" lon="-0.2944">
        <ele>56.86</ele>
        <time>2012-03-18T08:36:16Z</time>
      </trkpt>
      <trkpt lat="47.36464" lon="-0.29476">
        <ele>56.86</ele>
        <time>2012-03-18T08:36:22Z</time>
      </trkpt>
      <trkpt lat="47.36464" lon="-0.29483">
        <ele>56.37</ele>
        <time>2012-03-18T08:36:23Z</time>
      </trkpt>
      <trkpt lat="47.36461" lon="-0.29497">
        <ele>56.37</ele>
        <time>2012-03-18T08:36:25Z</time>
      </trkpt>
      <trkpt lat="47.36457" lon="-0.2953">
        <ele>54.93</ele>
        <time>2012-03-18T08:36:30Z</time>
      </trkpt>
      <trkpt lat="47.3646" lon="-0.29547">
        <ele>55.41</ele>
        <time>2012-03-18T08:36:33Z</time>
      </trkpt>
      <trkpt lat="47.36465" lon="-0.2956">
        <ele>53.97</ele>
        <time>2012-03-18T08:36:35Z</time>
      </trkpt>
      <trkpt lat="47.36472" lon="-0.2961">
        <ele>52.53</ele>
        <time>2012-03-18T08:36:41Z</time>
      </trkpt>
      <trkpt lat="47.36487" lon="-0.29679">
        <ele>51.57</ele>
        <time>2012-03-18T08:36:49Z</time>
      </trkpt>
      <trkpt lat="47.36491" lon="-0.29693">
        <ele>50.61</ele>
        <time>2012-03-18T08:36:51Z</time>
      </trkpt>
      <trkpt lat="47.36506" lon="-0.29695">
        <ele>50.13</ele>
        <time>2012-03-18T08:36:55Z</time>
      </trkpt>
      <trkpt lat="47.36524" lon="-0.2967">
        <ele>50.13</ele>
        <time>2012-03-18T08:37:00Z</time>
      </trkpt>
      <trkpt lat="47.36543" lon="-0.29657">
        <ele>50.61</ele>
        <time>2012-03-18T08:37:04Z</time>
      </trkpt>
      <trkpt lat="47.36558" lon="-0.29651">
        <ele>51.09</ele>
        <time>2012-03-18T08:37:07Z</time>
      </trkpt>
      <trkpt lat="47.36586" lon="-0.29644">
        <ele>52.05</ele>
        <time>2012-03-18T08:37:13Z</time>
      </trkpt>
      <trkpt lat="47.36599" lon="-0.29636">
        <ele>53.01</ele>
        <time>2012-03-18T08:37:16Z</time>
      </trkpt>
      <trkpt lat="47.36606" lon="-0.29628">
        <ele>53.01</ele>
        <time>2012-03-18T08:37:18Z</time>
      </trkpt>
      <trkpt lat="47.36617" lon="-0.29615">
        <ele>53.97</ele>
        <time>2012-03-18T08:37:21Z</time>
      </trkpt>
      <trkpt lat="47.36634" lon="-0.29603">
        <ele>53.49</ele>
        <time>2012-03-18T08:37:26Z</time>
      </trkpt>
      <trkpt lat="47.36655" lon="-0.29616">
        <ele>52.05</ele>
        <time>2012-03-18T08:37:31Z</time>
      </trkpt>
      <trkpt lat="47.36677" lon="-0.29636">
        <ele>51.57</ele>
        <time>2012-03-18T08:37:35Z</time>
      </trkpt>
      <trkpt lat="47.36702" lon="-0.29662">
        <ele>51.57</ele>
        <time>2012-03-18T08:37:40Z</time>
      </trkpt>
      <trkpt lat="47.36735" lon="-0.29696">
        <ele>53.01</ele>
        <time>2012-03-18T08:37:48Z</time>
      </trkpt>
      <trkpt lat="47.36744" lon="-0.29704">
        <ele>52.53</ele>
        <time>2012-03-18T08:37:50Z</time>
      </trkpt>
      <trkpt lat="47.3675" lon="-0.29711">
        <ele>53.49</ele>
        <time>2012-03-18T08:37:52Z</time>
      </trkpt>
      <trkpt lat="47.3676" lon="-0.29731">
        <ele>54.45</ele>
        <time>2012-03-18T08:37:56Z</time>
      </trkpt>
      <trkpt lat="47.36763" lon="-0.29742">
        <ele>54.93</ele>
        <time>2012-03-18T08:37:58Z</time>
      </trkpt>
      <trkpt lat="47.36767" lon="-0.29754">
        <ele>55.41</ele>
        <time>2012-03-18T08:38:00Z</time>
      </trkpt>
      <trkpt lat="47.36779" lon="-0.29813">
        <ele>56.37</ele>
        <time>2012-03-18T08:38:10Z</time>
      </trkpt>
      <trkpt lat="47.36786" lon="-0.29838">
        <ele>56.86</ele>
        <time>2012-03-18T08:38:15Z</time>
      </trkpt>
      <trkpt lat="47.36797" lon="-0.29849">
        <ele>57.34</ele>
        <time>2012-03-18T08:38:19Z</time>
      </trkpt>
      <trkpt lat="47.36807" lon="-0.29857">
        <ele>57.82</ele>
        <time>2012-03-18T08:38:22Z</time>
      </trkpt>
      <trkpt lat="47.36829" lon="-0.29892">
        <ele>56.37</ele>
        <time>2012-03-18T08:38:28Z</time>
      </trkpt>
      <trkpt lat="47.36833" lon="-0.299">
        <ele>55.41</ele>
        <time>2012-03-18T08:38:29Z</time>
      </trkpt>
      <trkpt lat="47.3685" lon="-0.29952">
        <ele>53.97</ele>
        <time>2012-03-18T08:38:35Z</time>
      </trkpt>
      <trkpt lat="47.36856" lon="-0.2998">
        <ele>53.97</ele>
        <time>2012-03-18T08:38:38Z</time>
      </trkpt>
      <trkpt lat="47.3685" lon="-0.30016">
        <ele>53.01</ele>
        <time>2012-03-18T08:38:42Z</time>
      </trkpt>
      <trkpt lat="47.36845" lon="-0.30022">
        <ele>52.05</ele>
        <time>2012-03-18T08:38:43Z</time>
      </trkpt>
      <trkpt lat="47.3682" lon="-0.30044">
        <ele>49.16</ele>
        <time>2012-03-18T08:38:48Z</time>
      </trkpt>
      <trkpt lat="47.3682" lon="-0.30055">
        <ele>47.72</ele>
        <time>2012-03-18T08:38:52Z</time>
      </trkpt>
      <trkpt lat="47.36827" lon="-0.30056">
        <ele>48.68</ele>
        <time>2012-03-18T08:38:55Z</time>
      </trkpt>
      <trkpt lat="47.36851" lon="-0.30068">
        <ele>49.65</ele>
        <time>2012-03-18T08:39:02Z</time>
      </trkpt>
      <trkpt lat="47.36862" lon="-0.30078">
        <ele>49.16</ele>
        <time>2012-03-18T08:39:05Z</time>
      </trkpt>
      <trkpt lat="47.36873" lon="-0.30092">
        <ele>48.68</ele>
        <time>2012-03-18T08:39:08Z</time>
      </trkpt>
      <trkpt lat="47.36892" lon="-0.30112">
        <ele>47.24</ele>
        <time>2012-03-18T08:39:13Z</time>
      </trkpt>
      <trkpt lat="47.36904" lon="-0.30118">
        <ele>46.28</ele>
        <time>2012-03-18T08:39:16Z</time>
      </trkpt>
      <trkpt lat="47.3692" lon="-0.30127">
        <ele>44.36</ele>
        <time>2012-03-18T08:39:19Z</time>
      </trkpt>
      <trkpt lat="47.36941" lon="-0.30133">
        <ele>43.4</ele>
        <time>2012-03-18T08:39:21Z</time>
      </trkpt>
      <trkpt lat="47.36964" lon="-0.30132">
        <ele>41.47</ele>
        <time>2012-03-18T08:39:23Z</time>
      </trkpt>
      <trkpt lat="47.36988" lon="-0.30127">
        <ele>41.47</ele>
        <time>2012-03-18T08:39:26Z</time>
      </trkpt>
      <trkpt lat="47.37042" lon="-0.30133">
        <ele>40.99</ele>
        <time>2012-03-18T08:39:35Z</time>
      </trkpt>
      <trkpt lat="47.37079" lon="-0.30135">
        <ele>40.99</ele>
        <time>2012-03-18T08:39:42Z</time>
      </trkpt>
      <trkpt lat="47.37112" lon="-0.30137">
        <ele>40.51</ele>
        <time>2012-03-18T08:39:48Z</time>
      </trkpt>
      <trkpt lat="47.37123" lon="-0.30139">
        <ele>41.47</ele>
        <time>2012-03-18T08:39:50Z</time>
      </trkpt>
      <trkpt lat="47.37164" lon="-0.30145">
        <ele>41.95</ele>
        <time>2012-03-18T08:39:59Z</time>
      </trkpt>
      <trkpt lat="47.37175" lon="-0.30148">
        <ele>41.95</ele>
        <time>2012-03-18T08:40:02Z</time>
      </trkpt>
      <trkpt lat="47.37208" lon="-0.30162">
        <ele>42.92</ele>
        <time>2012-03-18T08:40:11Z</time>
      </trkpt>
      <trkpt lat="47.37226" lon="-0.30173">
        <ele>45.32</ele>
        <time>2012-03-18T08:40:17Z</time>
      </trkpt>
      <trkpt lat="47.37246" lon="-0.30177">
        <ele>46.76</ele>
        <time>2012-03-18T08:40:23Z</time>
      </trkpt>
      <trkpt lat="47.37264" lon="-0.3017">
        <ele>48.68</ele>
        <time>2012-03-18T08:40:30Z</time>
      </trkpt>
      <trkpt lat="47.37279" lon="-0.30161">
        <ele>50.13</ele>
        <time>2012-03-18T08:40:37Z</time>
      </trkpt>
      <trkpt lat="47.37292" lon="-0.30143">
        <ele>51.57</ele>
        <time>2012-03-18T08:40:45Z</time>
      </trkpt>
      <trkpt lat="47.37308" lon="-0.30121">
        <ele>51.57</ele>
        <time>2012-03-18T08:40:53Z</time>
      </trkpt>
      <trkpt lat="47.37327" lon="-0.30104">
        <ele>52.05</ele>
        <time>2012-03-18T08:41:01Z</time>
      </trkpt>
      <trkpt lat="47.37344" lon="-0.30093">
        <ele>53.01</ele>
        <time>2012-03-18T08:41:09Z</time>
      </trkpt>
      <trkpt lat="47.37351" lon="-0.30089">
        <ele>53.49</ele>
        <time>2012-03-18T08:41:13Z</time>
      </trkpt>
      <trkpt lat="47.37364" lon="-0.3008">
        <ele>53.97</ele>
        <time>2012-03-18T08:41:19Z</time>
      </trkpt>
      <trkpt lat="47.37381" lon="-0.30072">
        <ele>54.45</ele>
        <time>2012-03-18T08:41:25Z</time>
      </trkpt>
      <trkpt lat="47.37396" lon="-0.30069">
        <ele>55.41</ele>
        <time>2012-03-18T08:41:30Z</time>
      </trkpt>
      <trkpt lat="47.37414" lon="-0.30074">
        <ele>55.89</ele>
        <time>2012-03-18T08:41:37Z</time>
      </trkpt>
      <trkpt lat="47.37437" lon="-0.30078">
        <ele>56.86</ele>
        <time>2012-03-18T08:41:45Z</time>
      </trkpt>
      <trkpt lat="47.37457" lon="-0.30082">
        <ele>57.34</ele>
        <time>2012-03-18T08:41:53Z</time>
      </trkpt>
      <trkpt lat="47.37479" lon="-0.3009">
        <ele>58.3</ele>
        <time>2012-03-18T08:42:02Z</time>
      </trkpt>
      <trkpt lat="47.375" lon="-0.30099">
        <ele>59.26</ele>
        <time>2012-03-18T08:42:11Z</time>
      </trkpt>
      <trkpt lat="47.37519" lon="-0.30102">
        <ele>60.22</ele>
        <time>2012-03-18T08:42:19Z</time>
      </trkpt>
      <trkpt lat="47.37543" lon="-0.30098">
        <ele>60.7</ele>
        <time>2012-03-18T08:42:28Z</time>
      </trkpt>
      <trkpt lat="47.37574" lon="-0.30094">
        <ele>62.14</ele>
        <time>2012-03-18T08:42:41Z</time>
      </trkpt>
      <trkpt lat="47.37597" lon="-0.3009">
        <ele>63.58</ele>
        <time>2012-03-18T08:42:51Z</time>
      </trkpt>
      <trkpt lat="47.37616" lon="-0.30086">
        <ele>65.99</ele>
        <time>2012-03-18T08:42:59Z</time>
      </trkpt>
      <trkpt lat="47.37637" lon="-0.30085">
        <ele>66.47</ele>
        <time>2012-03-18T08:43:08Z</time>
      </trkpt>
      <trkpt lat="47.37657" lon="-0.30084">
        <ele>67.91</ele>
        <time>2012-03-18T08:43:17Z</time>
      </trkpt>
      <trkpt lat="47.3767" lon="-0.30082">
        <ele>69.35</ele>
        <time>2012-03-18T08:43:23Z</time>
      </trkpt>
      <trkpt lat="47.37686" lon="-0.3008">
        <ele>70.31</ele>
        <time>2012-03-18T08:43:31Z</time>
      </trkpt>
      <trkpt lat="47.37705" lon="-0.3008">
        <ele>70.79</ele>
        <time>2012-03-18T08:43:39Z</time>
      </trkpt>
      <trkpt lat="47.37726" lon="-0.3008">
        <ele>71.76</ele>
        <time>2012-03-18T08:43:46Z</time>
      </trkpt>
      <trkpt lat="47.37739" lon="-0.30093">
        <ele>71.76</ele>
        <time>2012-03-18T08:43:51Z</time>
      </trkpt>
      <trkpt lat="47.37765" lon="-0.30108">
        <ele>72.24</ele>
        <time>2012-03-18T08:43:59Z</time>
      </trkpt>
      <trkpt lat="47.37793" lon="-0.30106">
        <ele>71.76</ele>
        <time>2012-03-18T08:44:06Z</time>
      </trkpt>
      <trkpt lat="47.37797" lon="-0.30107">
        <ele>72.24</ele>
        <time>2012-03-18T08:44:07Z</time>
      </trkpt>
      <trkpt lat="47.37827" lon="-0.30099">
        <ele>71.76</ele>
        <time>2012-03-18T08:44:14Z</time>
      </trkpt>
      <trkpt lat="47.37867" lon="-0.3007">
        <ele>72.24</ele>
        <time>2012-03-18T08:44:22Z</time>
      </trkpt>
      <trkpt lat="47.37916" lon="-0.3003">
        <ele>70.31</ele>
        <time>2012-03-18T08:44:30Z</time>
      </trkpt>
      <trkpt lat="47.3796" lon="-0.29996">
        <ele>69.83</ele>
        <time>2012-03-18T08:44:37Z</time>
      </trkpt>
      <trkpt lat="47.38008" lon="-0.29947">
        <ele>69.83</ele>
        <time>2012-03-18T08:44:45Z</time>
      </trkpt>
      <trkpt lat="47.38051" lon="-0.29904">
        <ele>69.83</ele>
        <time>2012-03-18T08:44:53Z</time>
      </trkpt>
      <trkpt lat="47.38066" lon="-0.2989">
        <ele>70.31</ele>
        <time>2012-03-18T08:44:56Z</time>
      </trkpt>
      <trkpt lat="47.38092" lon="-0.29876">
        <ele>72.24</ele>
        <time>2012-03-18T08:45:02Z</time>
      </trkpt>
      <trkpt lat="47.38116" lon="-0.29869">
        <ele>72.72</ele>
        <time>2012-03-18T08:45:09Z</time>
      </trkpt>
      <trkpt lat="47.38142" lon="-0.29866">
        <ele>72.72</ele>
        <time>2012-03-18T08:45:16Z</time>
      </trkpt>
      <trkpt lat="47.38146" lon="-0.29865">
        <ele>72.24</ele>
        <time>2012-03-18T08:45:17Z</time>
      </trkpt>
      <trkpt lat="47.38171" lon="-0.29865">
        <ele>71.27</ele>
        <time>2012-03-18T08:45:23Z</time>
      </trkpt>
      <trkpt lat="47.3818" lon="-0.29863">
        <ele>70.79</ele>
        <time>2012-03-18T08:45:25Z</time>
      </trkpt>
      <trkpt lat="47.38216" lon="-0.2985">
        <ele>68.87</ele>
        <time>2012-03-18T08:45:33Z</time>
      </trkpt>
      <trkpt lat="47.38239" lon="-0.29841">
        <ele>67.43</ele>
        <time>2012-03-18T08:45:37Z</time>
      </trkpt>
      <trkpt lat="47.3825" lon="-0.29834">
        <ele>66.47</ele>
        <time>2012-03-18T08:45:39Z</time>
      </trkpt>
      <trkpt lat="47.38281" lon="-0.2981">
        <ele>64.07</ele>
        <time>2012-03-18T08:45:45Z</time>
      </trkpt>
      <trkpt lat="47.38306" lon="-0.2981">
        <ele>63.58</ele>
        <time>2012-03-18T08:45:50Z</time>
      </trkpt>
      <trkpt lat="47.38332" lon="-0.29828">
        <ele>62.14</ele>
        <time>2012-03-18T08:45:55Z</time>
      </trkpt>
      <trkpt lat="47.38378" lon="-0.2986">
        <ele>61.18</ele>
        <time>2012-03-18T08:46:05Z</time>
      </trkpt>
      <trkpt lat="47.38398" lon="-0.29873">
        <ele>61.66</ele>
        <time>2012-03-18T08:46:09Z</time>
      </trkpt>
      <trkpt lat="47.38422" lon="-0.29889">
        <ele>61.18</ele>
        <time>2012-03-18T08:46:14Z</time>
      </trkpt>
      <trkpt lat="47.38435" lon="-0.29901">
        <ele>61.18</ele>
        <time>2012-03-18T08:46:17Z</time>
      </trkpt>
      <trkpt lat="47.3846" lon="-0.2993">
        <ele>61.18</ele>
        <time>2012-03-18T08:46:23Z</time>
      </trkpt>
      <trkpt lat="47.3849" lon="-0.29967">
        <ele>61.18</ele>
        <time>2012-03-18T08:46:31Z</time>
      </trkpt>
      <trkpt lat="47.38509" lon="-0.2999">
        <ele>61.66</ele>
        <time>2012-03-18T08:46:36Z</time>
      </trkpt>
      <trkpt lat="47.38535" lon="-0.30019">
        <ele>62.14</ele>
        <time>2012-03-18T08:46:43Z</time>
      </trkpt>
      <trkpt lat="47.38542" lon="-0.30029">
        <ele>62.14</ele>
        <time>2012-03-18T08:46:45Z</time>
      </trkpt>
      <trkpt lat="47.38561" lon="-0.30047">
        <ele>62.14</ele>
        <time>2012-03-18T08:46:51Z</time>
      </trkpt>
      <trkpt lat="47.38575" lon="-0.30041">
        <ele>63.1</ele>
        <time>2012-03-18T08:46:56Z</time>
      </trkpt>
      <trkpt lat="47.38587" lon="-0.30019">
        <ele>64.07</ele>
        <time>2012-03-18T08:47:02Z</time>
      </trkpt>
      <trkpt lat="47.38601" lon="-0.29999">
        <ele>65.03</ele>
        <time>2012-03-18T08:47:08Z</time>
      </trkpt>
      <trkpt lat="47.38614" lon="-0.29981">
        <ele>66.47</ele>
        <time>2012-03-18T08:47:14Z</time>
      </trkpt>
      <trkpt lat="47.38629" lon="-0.29961">
        <ele>66.95</ele>
        <time>2012-03-18T08:47:20Z</time>
      </trkpt>
      <trkpt lat="47.38647" lon="-0.29935">
        <ele>67.91</ele>
        <time>2012-03-18T08:47:28Z</time>
      </trkpt>
      <trkpt lat="47.38654" lon="-0.29925">
        <ele>68.39</ele>
        <time>2012-03-18T08:47:31Z</time>
      </trkpt>
      <trkpt lat="47.38661" lon="-0.29917">
        <ele>68.39</ele>
        <time>2012-03-18T08:47:35Z</time>
      </trkpt>
      <trkpt lat="47.38672" lon="-0.29919">
        <ele>68.87</ele>
        <time>2012-03-18T08:47:40Z</time>
      </trkpt>
      <trkpt lat="47.38685" lon="-0.29921">
        <ele>69.35</ele>
        <time>2012-03-18T08:47:47Z</time>
      </trkpt>
      <trkpt lat="47.38693" lon="-0.29928">
        <ele>69.83</ele>
        <time>2012-03-18T08:47:51Z</time>
      </trkpt>
      <trkpt lat="47.38704" lon="-0.29937">
        <ele>69.83</ele>
        <time>2012-03-18T08:47:56Z</time>
      </trkpt>
      <trkpt lat="47.38715" lon="-0.29945">
        <ele>70.79</ele>
        <time>2012-03-18T08:48:00Z</time>
      </trkpt>
      <trkpt lat="47.38721" lon="-0.29958">
        <ele>70.31</ele>
        <time>2012-03-18T08:48:05Z</time>
      </trkpt>
      <trkpt lat="47.38747" lon="-0.29982">
        <ele>69.83</ele>
        <time>2012-03-18T08:48:11Z</time>
      </trkpt>
      <trkpt lat="47.38751" lon="-0.29988">
        <ele>69.35</ele>
        <time>2012-03-18T08:48:12Z</time>
      </trkpt>
      <trkpt lat="47.38765" lon="-0.29999">
        <ele>69.83</ele>
        <time>2012-03-18T08:48:16Z</time>
      </trkpt>
      <trkpt lat="47.38792" lon="-0.3002">
        <ele>69.83</ele>
        <time>2012-03-18T08:48:22Z</time>
      </trkpt>
      <trkpt lat="47.388" lon="-0.30028">
        <ele>69.83</ele>
        <time>2012-03-18T08:48:24Z</time>
      </trkpt>
      <trkpt lat="47.38816" lon="-0.30053">
        <ele>68.87</ele>
        <time>2012-03-18T08:48:28Z</time>
      </trkpt>
      <trkpt lat="47.38828" lon="-0.30094">
        <ele>68.39</ele>
        <time>2012-03-18T08:48:35Z</time>
      </trkpt>
      <trkpt lat="47.38828" lon="-0.30099">
        <ele>68.39</ele>
        <time>2012-03-18T08:48:36Z</time>
      </trkpt>
      <trkpt lat="47.38839" lon="-0.30122">
        <ele>67.43</ele>
        <time>2012-03-18T08:48:40Z</time>
      </trkpt>
      <trkpt lat="47.38849" lon="-0.30148">
        <ele>67.43</ele>
        <time>2012-03-18T08:48:44Z</time>
      </trkpt>
      <trkpt lat="47.38853" lon="-0.30164">
        <ele>66.95</ele>
        <time>2012-03-18T08:48:46Z</time>
      </trkpt>
      <trkpt lat="47.38873" lon="-0.30219">
        <ele>67.43</ele>
        <time>2012-03-18T08:48:54Z</time>
      </trkpt>
      <trkpt lat="47.38878" lon="-0.30232">
        <ele>67.43</ele>
        <time>2012-03-18T08:48:56Z</time>
      </trkpt>
      <trkpt lat="47.38893" lon="-0.30278">
        <ele>67.43</ele>
        <time>2012-03-18T08:49:03Z</time>
      </trkpt>
      <trkpt lat="47.38888" lon="-0.30309">
        <ele>68.39</ele>
        <time>2012-03-18T08:49:08Z</time>
      </trkpt>
      <trkpt lat="47.38882" lon="-0.30313">
        <ele>68.87</ele>
        <time>2012-03-18T08:49:10Z</time>
      </trkpt>
      <trkpt lat="47.3886" lon="-0.3033">
        <ele>69.83</ele>
        <time>2012-03-18T08:49:17Z</time>
      </trkpt>
      <trkpt lat="47.38858" lon="-0.3034">
        <ele>69.83</ele>
        <time>2012-03-18T08:49:19Z</time>
      </trkpt>
      <trkpt lat="47.38859" lon="-0.3037">
        <ele>70.31</ele>
        <time>2012-03-18T08:49:24Z</time>
      </trkpt>
      <trkpt lat="47.38861" lon="-0.30396">
        <ele>69.83</ele>
        <time>2012-03-18T08:49:28Z</time>
      </trkpt>
      <trkpt lat="47.38861" lon="-0.30422">
        <ele>69.83</ele>
        <time>2012-03-18T08:49:32Z</time>
      </trkpt>
      <trkpt lat="47.38854" lon="-0.30485">
        <ele>69.35</ele>
        <time>2012-03-18T08:49:41Z</time>
      </trkpt>
      <trkpt lat="47.38848" lon="-0.3055">
        <ele>69.35</ele>
        <time>2012-03-18T08:49:50Z</time>
      </trkpt>
      <trkpt lat="47.38846" lon="-0.30563">
        <ele>69.83</ele>
        <time>2012-03-18T08:49:52Z</time>
      </trkpt>
      <trkpt lat="47.38842" lon="-0.30595">
        <ele>70.31</ele>
        <time>2012-03-18T08:49:57Z</time>
      </trkpt>
      <trkpt lat="47.3883" lon="-0.30659">
        <ele>70.31</ele>
        <time>2012-03-18T08:50:07Z</time>
      </trkpt>
      <trkpt lat="47.38835" lon="-0.30685">
        <ele>69.35</ele>
        <time>2012-03-18T08:50:11Z</time>
      </trkpt>
      <trkpt lat="47.38839" lon="-0.30688">
        <ele>69.83</ele>
        <time>2012-03-18T08:50:12Z</time>
      </trkpt>
      <trkpt lat="47.38852" lon="-0.30698">
        <ele>69.83</ele>
        <time>2012-03-18T08:50:15Z</time>
      </trkpt>
      <trkpt lat="47.38894" lon="-0.30732">
        <ele>69.83</ele>
        <time>2012-03-18T08:50:24Z</time>
      </trkpt>
      <trkpt lat="47.38934" lon="-0.30778">
        <ele>68.87</ele>
        <time>2012-03-18T08:50:33Z</time>
      </trkpt>
      <trkpt lat="47.38962" lon="-0.30835">
        <ele>67.91</ele>
        <time>2012-03-18T08:50:41Z</time>
      </trkpt>
      <trkpt lat="47.3899" lon="-0.30891">
        <ele>67.43</ele>
        <time>2012-03-18T08:50:49Z</time>
      </trkpt>
      <trkpt lat="47.39026" lon="-0.30947">
        <ele>66.95</ele>
        <time>2012-03-18T08:50:58Z</time>
      </trkpt>
      <trkpt lat="47.39061" lon="-0.31003">
        <ele>67.43</ele>
        <time>2012-03-18T08:51:08Z</time>
      </trkpt>
      <trkpt lat="47.39082" lon="-0.31031">
        <ele>66.47</ele>
        <time>2012-03-18T08:51:15Z</time>
      </trkpt>
      <trkpt lat="47.39085" lon="-0.31034">
        <ele>66.47</ele>
        <time>2012-03-18T08:51:16Z</time>
      </trkpt>
      <trkpt lat="47.39107" lon="-0.31058">
        <ele>63.1</ele>
        <time>2012-03-18T08:51:21Z</time>
      </trkpt>
      <trkpt lat="47.39123" lon="-0.31077">
        <ele>60.22</ele>
        <time>2012-03-18T08:51:24Z</time>
      </trkpt>
      <trkpt lat="47.39149" lon="-0.31108">
        <ele>56.37</ele>
        <time>2012-03-18T08:51:28Z</time>
      </trkpt>
      <trkpt lat="47.39161" lon="-0.31122">
        <ele>54.93</ele>
        <time>2012-03-18T08:51:30Z</time>
      </trkpt>
      <trkpt lat="47.39189" lon="-0.31154">
        <ele>51.57</ele>
        <time>2012-03-18T08:51:36Z</time>
      </trkpt>
      <trkpt lat="47.39203" lon="-0.31157">
        <ele>50.61</ele>
        <time>2012-03-18T08:51:38Z</time>
      </trkpt>
      <trkpt lat="47.39236" lon="-0.31155">
        <ele>48.2</ele>
        <time>2012-03-18T08:51:42Z</time>
      </trkpt>
      <trkpt lat="47.39268" lon="-0.31136">
        <ele>44.84</ele>
        <time>2012-03-18T08:51:46Z</time>
      </trkpt>
      <trkpt lat="47.39295" lon="-0.3112">
        <ele>42.92</ele>
        <time>2012-03-18T08:51:49Z</time>
      </trkpt>
      <trkpt lat="47.39305" lon="-0.31118">
        <ele>42.92</ele>
        <time>2012-03-18T08:51:50Z</time>
      </trkpt>
      <trkpt lat="47.39333" lon="-0.31116">
        <ele>40.03</ele>
        <time>2012-03-18T08:51:53Z</time>
      </trkpt>
      <trkpt lat="47.3935" lon="-0.31113">
        <ele>39.07</ele>
        <time>2012-03-18T08:51:55Z</time>
      </trkpt>
      <trkpt lat="47.39358" lon="-0.31111">
        <ele>39.07</ele>
        <time>2012-03-18T08:51:56Z</time>
      </trkpt>
      <trkpt lat="47.39381" lon="-0.31094">
        <ele>37.15</ele>
        <time>2012-03-18T08:52:00Z</time>
      </trkpt>
      <trkpt lat="47.39384" lon="-0.31069">
        <ele>37.63</ele>
        <time>2012-03-18T08:52:03Z</time>
      </trkpt>
      <trkpt lat="47.39386" lon="-0.31004">
        <ele>39.07</ele>
        <time>2012-03-18T08:52:12Z</time>
      </trkpt>
      <trkpt lat="47.39386" lon="-0.30941">
        <ele>39.55</ele>
        <time>2012-03-18T08:52:21Z</time>
      </trkpt>
      <trkpt lat="47.39387" lon="-0.30905">
        <ele>40.51</ele>
        <time>2012-03-18T08:52:26Z</time>
      </trkpt>
      <trkpt lat="47.39387" lon="-0.30825">
        <ele>41.47</ele>
        <time>2012-03-18T08:52:37Z</time>
      </trkpt>
      <trkpt lat="47.3938" lon="-0.30763">
        <ele>42.44</ele>
        <time>2012-03-18T08:52:46Z</time>
      </trkpt>
      <trkpt lat="47.39369" lon="-0.30714">
        <ele>44.36</ele>
        <time>2012-03-18T08:52:54Z</time>
      </trkpt>
      <trkpt lat="47.39365" lon="-0.30702">
        <ele>44.84</ele>
        <time>2012-03-18T08:52:56Z</time>
      </trkpt>
      <trkpt lat="47.39356" lon="-0.30653">
        <ele>47.24</ele>
        <time>2012-03-18T08:53:04Z</time>
      </trkpt>
      <trkpt lat="47.39349" lon="-0.3062">
        <ele>47.24</ele>
        <time>2012-03-18T08:53:11Z</time>
      </trkpt>
      <trkpt lat="47.39359" lon="-0.3061">
        <ele>45.8</ele>
        <time>2012-03-18T08:53:14Z</time>
      </trkpt>
      <trkpt lat="47.39377" lon="-0.30614">
        <ele>44.84</ele>
        <time>2012-03-18T08:53:17Z</time>
      </trkpt>
      <trkpt lat="47.39399" lon="-0.30617">
        <ele>42.92</ele>
        <time>2012-03-18T08:53:20Z</time>
      </trkpt>
      <trkpt lat="47.39435" lon="-0.30617">
        <ele>40.99</ele>
        <time>2012-03-18T08:53:24Z</time>
      </trkpt>
      <trkpt lat="47.39464" lon="-0.3062">
        <ele>38.59</ele>
        <time>2012-03-18T08:53:27Z</time>
      </trkpt>
      <trkpt lat="47.39493" lon="-0.30621">
        <ele>36.67</ele>
        <time>2012-03-18T08:53:30Z</time>
      </trkpt>
      <trkpt lat="47.39556" lon="-0.30605">
        <ele>32.82</ele>
        <time>2012-03-18T08:53:37Z</time>
      </trkpt>
      <trkpt lat="47.39594" lon="-0.30598">
        <ele>30.42</ele>
        <time>2012-03-18T08:53:41Z</time>
      </trkpt>
      <trkpt lat="47.39641" lon="-0.30587">
        <ele>28.02</ele>
        <time>2012-03-18T08:53:46Z</time>
      </trkpt>
      <trkpt lat="47.39694" lon="-0.30573">
        <ele>24.65</ele>
        <time>2012-03-18T08:53:53Z</time>
      </trkpt>
      <trkpt lat="47.39716" lon="-0.30571">
        <ele>22.73</ele>
        <time>2012-03-18T08:53:57Z</time>
      </trkpt>
      <trkpt lat="47.39719" lon="-0.30571">
        <ele>23.21</ele>
        <time>2012-03-18T08:53:58Z</time>
      </trkpt>
      <trkpt lat="47.39724" lon="-0.30557">
        <ele>22.73</ele>
        <time>2012-03-18T08:54:02Z</time>
      </trkpt>
      <trkpt lat="47.39721" lon="-0.30544">
        <ele>22.73</ele>
        <time>2012-03-18T08:54:04Z</time>
      </trkpt>
      <trkpt lat="47.39713" lon="-0.305">
        <ele>23.21</ele>
        <time>2012-03-18T08:54:10Z</time>
      </trkpt>
      <trkpt lat="47.39713" lon="-0.30481">
        <ele>23.69</ele>
        <time>2012-03-18T08:54:13Z</time>
      </trkpt>
      <trkpt lat="47.39717" lon="-0.30457">
        <ele>24.17</ele>
        <time>2012-03-18T08:54:17Z</time>
      </trkpt>
      <trkpt lat="47.3973" lon="-0.30441">
        <ele>22.25</ele>
        <time>2012-03-18T08:54:21Z</time>
      </trkpt>
      <trkpt lat="47.39742" lon="-0.30441">
        <ele>21.29</ele>
        <time>2012-03-18T08:54:23Z</time>
      </trkpt>
      <trkpt lat="47.39746" lon="-0.3044">
        <ele>20.32</ele>
        <time>2012-03-18T08:54:24Z</time>
      </trkpt>
      <trkpt lat="47.39755" lon="-0.30418">
        <ele>18.4</ele>
        <time>2012-03-18T08:54:29Z</time>
      </trkpt>
      <trkpt lat="47.39747" lon="-0.3036">
        <ele>18.4</ele>
        <time>2012-03-18T08:54:37Z</time>
      </trkpt>
      <trkpt lat="47.39742" lon="-0.30328">
        <ele>17.92</ele>
        <time>2012-03-18T08:54:41Z</time>
      </trkpt>
      <trkpt lat="47.39738" lon="-0.30299">
        <ele>18.88</ele>
        <time>2012-03-18T08:54:45Z</time>
      </trkpt>
      <trkpt lat="47.39734" lon="-0.30269">
        <ele>18.88</ele>
        <time>2012-03-18T08:54:49Z</time>
      </trkpt>
      <trkpt lat="47.39729" lon="-0.30232">
        <ele>18.88</ele>
        <time>2012-03-18T08:54:55Z</time>
      </trkpt>
      <trkpt lat="47.39722" lon="-0.30193">
        <ele>18.88</ele>
        <time>2012-03-18T08:55:00Z</time>
      </trkpt>
      <trkpt lat="47.39718" lon="-0.30167">
        <ele>19.36</ele>
        <time>2012-03-18T08:55:04Z</time>
      </trkpt>
      <trkpt lat="47.39716" lon="-0.30153">
        <ele>18.88</ele>
        <time>2012-03-18T08:55:06Z</time>
      </trkpt>
      <trkpt lat="47.39715" lon="-0.30123">
        <ele>18.88</ele>
        <time>2012-03-18T08:55:10Z</time>
      </trkpt>
      <trkpt lat="47.39709" lon="-0.30054">
        <ele>18.88</ele>
        <time>2012-03-18T08:55:19Z</time>
      </trkpt>
      <trkpt lat="47.39709" lon="-0.30046">
        <ele>18.88</ele>
        <time>2012-03-18T08:55:20Z</time>
      </trkpt>
      <trkpt lat="47.39703" lon="-0.3">
        <ele>18.88</ele>
        <time>2012-03-18T08:55:26Z</time>
      </trkpt>
      <trkpt lat="47.39691" lon="-0.29953">
        <ele>19.84</ele>
        <time>2012-03-18T08:55:33Z</time>
      </trkpt>
      <trkpt lat="47.39686" lon="-0.29933">
        <ele>19.84</ele>
        <time>2012-03-18T08:55:36Z</time>
      </trkpt>
      <trkpt lat="47.39675" lon="-0.29895">
        <ele>19.84</ele>
        <time>2012-03-18T08:55:43Z</time>
      </trkpt>
      <trkpt lat="47.3967" lon="-0.29888">
        <ele>19.84</ele>
        <time>2012-03-18T08:55:45Z</time>
      </trkpt>
      <trkpt lat="47.39659" lon="-0.29891">
        <ele>20.81</ele>
        <time>2012-03-18T08:55:50Z</time>
      </trkpt>
      <trkpt lat="47.39651" lon="-0.29901">
        <ele>23.21</ele>
        <time>2012-03-18T08:55:55Z</time>
      </trkpt>
      <trkpt lat="47.39648" lon="-0.29911">
        <ele>24.65</ele>
        <time>2012-03-18T08:55:59Z</time>
      </trkpt>
      <trkpt lat="47.39635" lon="-0.29909">
        <ele>25.61</ele>
        <time>2012-03-18T08:56:05Z</time>
      </trkpt>
      <trkpt lat="47.39633" lon="-0.2991">
        <ele>26.09</ele>
        <time>2012-03-18T08:56:06Z</time>
      </trkpt>
      <trkpt lat="47.39611" lon="-0.29914">
        <ele>28.02</ele>
        <time>2012-03-18T08:56:16Z</time>
      </trkpt>
      <trkpt lat="47.39592" lon="-0.29916">
        <ele>29.94</ele>
        <time>2012-03-18T08:56:25Z</time>
      </trkpt>
      <trkpt lat="47.39575" lon="-0.29917">
        <ele>30.42</ele>
        <time>2012-03-18T08:56:33Z</time>
      </trkpt>
      <trkpt lat="47.39555" lon="-0.29919">
        <ele>30.9</ele>
        <time>2012-03-18T08:56:42Z</time>
      </trkpt>
      <trkpt lat="47.39534" lon="-0.29921">
        <ele>31.86</ele>
        <time>2012-03-18T08:56:51Z</time>
      </trkpt>
      <trkpt lat="47.39518" lon="-0.2993">
        <ele>33.78</ele>
        <time>2012-03-18T08:56:59Z</time>
      </trkpt>
      <trkpt lat="47.39512" lon="-0.29951">
        <ele>34.74</ele>
        <time>2012-03-18T08:57:06Z</time>
      </trkpt>
      <trkpt lat="47.39506" lon="-0.29969">
        <ele>35.23</ele>
        <time>2012-03-18T08:57:13Z</time>
      </trkpt>
      <trkpt lat="47.39495" lon="-0.29974">
        <ele>37.15</ele>
        <time>2012-03-18T08:57:19Z</time>
      </trkpt>
      <trkpt lat="47.39488" lon="-0.29975">
        <ele>37.15</ele>
        <time>2012-03-18T08:57:23Z</time>
      </trkpt>
      <trkpt lat="47.39468" lon="-0.29979">
        <ele>39.07</ele>
        <time>2012-03-18T08:57:34Z</time>
      </trkpt>
      <trkpt lat="47.39457" lon="-0.29981">
        <ele>39.07</ele>
        <time>2012-03-18T08:57:40Z</time>
      </trkpt>
      <trkpt lat="47.39439" lon="-0.29985">
        <ele>40.51</ele>
        <time>2012-03-18T08:57:49Z</time>
      </trkpt>
      <trkpt lat="47.39421" lon="-0.29989">
        <ele>42.92</ele>
        <time>2012-03-18T08:57:59Z</time>
      </trkpt>
      <trkpt lat="47.39407" lon="-0.29993">
        <ele>45.32</ele>
        <time>2012-03-18T08:58:08Z</time>
      </trkpt>
      <trkpt lat="47.39394" lon="-0.29997">
        <ele>46.28</ele>
        <time>2012-03-18T08:58:16Z</time>
      </trkpt>
      <trkpt lat="47.39381" lon="-0.3">
        <ele>47.72</ele>
        <time>2012-03-18T08:58:24Z</time>
      </trkpt>
      <trkpt lat="47.39364" lon="-0.29996">
        <ele>50.13</ele>
        <time>2012-03-18T08:58:34Z</time>
      </trkpt>
      <trkpt lat="47.39349" lon="-0.29996">
        <ele>51.57</ele>
        <time>2012-03-18T08:58:43Z</time>
      </trkpt>
      <trkpt lat="47.39336" lon="-0.30001">
        <ele>52.53</ele>
        <time>2012-03-18T08:58:51Z</time>
      </trkpt>
      <trkpt lat="47.39317" lon="-0.30008">
        <ele>54.93</ele>
        <time>2012-03-18T08:59:03Z</time>
      </trkpt>
      <trkpt lat="47.393" lon="-0.30012">
        <ele>55.89</ele>
        <time>2012-03-18T08:59:13Z</time>
      </trkpt>
      <trkpt lat="47.39283" lon="-0.30015">
        <ele>57.34</ele>
        <time>2012-03-18T08:59:22Z</time>
      </trkpt>
      <trkpt lat="47.39267" lon="-0.30017">
        <ele>58.3</ele>
        <time>2012-03-18T08:59:31Z</time>
      </trkpt>
      <trkpt lat="47.39251" lon="-0.30015">
        <ele>58.78</ele>
        <time>2012-03-18T08:59:40Z</time>
      </trkpt>
      <trkpt lat="47.39236" lon="-0.30013">
        <ele>59.74</ele>
        <time>2012-03-18T08:59:48Z</time>
      </trkpt>
      <trkpt lat="47.39218" lon="-0.30011">
        <ele>61.66</ele>
        <time>2012-03-18T08:59:58Z</time>
      </trkpt>
      <trkpt lat="47.39201" lon="-0.30014">
        <ele>63.58</ele>
        <time>2012-03-18T09:00:07Z</time>
      </trkpt>
      <trkpt lat="47.39185" lon="-0.30022">
        <ele>64.07</ele>
        <time>2012-03-18T09:00:16Z</time>
      </trkpt>
      <trkpt lat="47.39174" lon="-0.30027">
        <ele>64.55</ele>
        <time>2012-03-18T09:00:22Z</time>
      </trkpt>
      <trkpt lat="47.39159" lon="-0.30039">
        <ele>66.95</ele>
        <time>2012-03-18T09:00:32Z</time>
      </trkpt>
      <trkpt lat="47.39149" lon="-0.30048">
        <ele>67.43</ele>
        <time>2012-03-18T09:00:38Z</time>
      </trkpt>
      <trkpt lat="47.39141" lon="-0.30054">
        <ele>67.91</ele>
        <time>2012-03-18T09:00:43Z</time>
      </trkpt>
      <trkpt lat="47.39132" lon="-0.30059">
        <ele>68.39</ele>
        <time>2012-03-18T09:00:48Z</time>
      </trkpt>
      <trkpt lat="47.39111" lon="-0.30069">
        <ele>68.39</ele>
        <time>2012-03-18T09:00:55Z</time>
      </trkpt>
      <trkpt lat="47.39081" lon="-0.30075">
        <ele>66.47</ele>
        <time>2012-03-18T09:01:03Z</time>
      </trkpt>
      <trkpt lat="47.39073" lon="-0.30057">
        <ele>66.47</ele>
        <time>2012-03-18T09:01:08Z</time>
      </trkpt>
      <trkpt lat="47.39063" lon="-0.30004">
        <ele>66.47</ele>
        <time>2012-03-18T09:01:18Z</time>
      </trkpt>
      <trkpt lat="47.39052" lon="-0.29957">
        <ele>66.95</ele>
        <time>2012-03-18T09:01:26Z</time>
      </trkpt>
      <trkpt lat="47.39051" lon="-0.2995">
        <ele>66.95</ele>
        <time>2012-03-18T09:01:27Z</time>
      </trkpt>
      <trkpt lat="47.39041" lon="-0.29895">
        <ele>68.39</ele>
        <time>2012-03-18T09:01:34Z</time>
      </trkpt>
      <trkpt lat="47.39034" lon="-0.29856">
        <ele>69.83</ele>
        <time>2012-03-18T09:01:41Z</time>
      </trkpt>
      <trkpt lat="47.39029" lon="-0.29831">
        <ele>70.79</ele>
        <time>2012-03-18T09:01:47Z</time>
      </trkpt>
      <trkpt lat="47.39029" lon="-0.29826">
        <ele>71.27</ele>
        <time>2012-03-18T09:01:48Z</time>
      </trkpt>
      <trkpt lat="47.39023" lon="-0.29789">
        <ele>72.24</ele>
        <time>2012-03-18T09:01:56Z</time>
      </trkpt>
      <trkpt lat="47.39012" lon="-0.29763">
        <ele>72.72</ele>
        <time>2012-03-18T09:02:03Z</time>
      </trkpt>
      <trkpt lat="47.38997" lon="-0.29745">
        <ele>73.2</ele>
        <time>2012-03-18T09:02:09Z</time>
      </trkpt>
      <trkpt lat="47.38989" lon="-0.29722">
        <ele>72.72</ele>
        <time>2012-03-18T09:02:14Z</time>
      </trkpt>
      <trkpt lat="47.38983" lon="-0.29696">
        <ele>72.72</ele>
        <time>2012-03-18T09:02:19Z</time>
      </trkpt>
      <trkpt lat="47.38977" lon="-0.29654">
        <ele>71.76</ele>
        <time>2012-03-18T09:02:25Z</time>
      </trkpt>
      <trkpt lat="47.38971" lon="-0.2961">
        <ele>71.76</ele>
        <time>2012-03-18T09:02:31Z</time>
      </trkpt>
      <trkpt lat="47.38967" lon="-0.29568">
        <ele>71.27</ele>
        <time>2012-03-18T09:02:38Z</time>
      </trkpt>
      <trkpt lat="47.38966" lon="-0.29554">
        <ele>71.27</ele>
        <time>2012-03-18T09:02:40Z</time>
      </trkpt>
      <trkpt lat="47.38963" lon="-0.295">
        <ele>72.24</ele>
        <time>2012-03-18T09:02:48Z</time>
      </trkpt>
      <trkpt lat="47.38956" lon="-0.29461">
        <ele>72.24</ele>
        <time>2012-03-18T09:02:55Z</time>
      </trkpt>
      <trkpt lat="47.38945" lon="-0.29437">
        <ele>72.72</ele>
        <time>2012-03-18T09:03:00Z</time>
      </trkpt>
      <trkpt lat="47.38945" lon="-0.29405">
        <ele>72.72</ele>
        <time>2012-03-18T09:03:05Z</time>
      </trkpt>
      <trkpt lat="47.38938" lon="-0.29378">
        <ele>72.24</ele>
        <time>2012-03-18T09:03:09Z</time>
      </trkpt>
      <trkpt lat="47.3892" lon="-0.2935">
        <ele>71.76</ele>
        <time>2012-03-18T09:03:14Z</time>
      </trkpt>
      <trkpt lat="47.38911" lon="-0.29318">
        <ele>70.31</ele>
        <time>2012-03-18T09:03:18Z</time>
      </trkpt>
      <trkpt lat="47.38903" lon="-0.29304">
        <ele>69.35</ele>
        <time>2012-03-18T09:03:20Z</time>
      </trkpt>
      <trkpt lat="47.3888" lon="-0.29275">
        <ele>67.91</ele>
        <time>2012-03-18T09:03:25Z</time>
      </trkpt>
      <trkpt lat="47.38853" lon="-0.2924">
        <ele>66.95</ele>
        <time>2012-03-18T09:03:31Z</time>
      </trkpt>
      <trkpt lat="47.3885" lon="-0.29219">
        <ele>66.47</ele>
        <time>2012-03-18T09:03:34Z</time>
      </trkpt>
      <trkpt lat="47.3886" lon="-0.29204">
        <ele>66.95</ele>
        <time>2012-03-18T09:03:37Z</time>
      </trkpt>
      <trkpt lat="47.38892" lon="-0.2915">
        <ele>67.43</ele>
        <time>2012-03-18T09:03:47Z</time>
      </trkpt>
      <trkpt lat="47.38923" lon="-0.29097">
        <ele>66.47</ele>
        <time>2012-03-18T09:03:57Z</time>
      </trkpt>
      <trkpt lat="47.38929" lon="-0.29086">
        <ele>66.95</ele>
        <time>2012-03-18T09:03:59Z</time>
      </trkpt>
      <trkpt lat="47.38961" lon="-0.29046">
        <ele>67.91</ele>
        <time>2012-03-18T09:04:08Z</time>
      </trkpt>
      <trkpt lat="47.38985" lon="-0.29016">
        <ele>68.39</ele>
        <time>2012-03-18T09:04:15Z</time>
      </trkpt>
      <trkpt lat="47.39006" lon="-0.28992">
        <ele>68.87</ele>
        <time>2012-03-18T09:04:22Z</time>
      </trkpt>
      <trkpt lat="47.39022" lon="-0.28997">
        <ele>68.87</ele>
        <time>2012-03-18T09:04:27Z</time>
      </trkpt>
      <trkpt lat="47.39038" lon="-0.29024">
        <ele>69.35</ele>
        <time>2012-03-18T09:04:34Z</time>
      </trkpt>
      <trkpt lat="47.39048" lon="-0.29062">
        <ele>68.87</ele>
        <time>2012-03-18T09:04:41Z</time>
      </trkpt>
      <trkpt lat="47.39061" lon="-0.29101">
        <ele>68.39</ele>
        <time>2012-03-18T09:04:48Z</time>
      </trkpt>
      <trkpt lat="47.39076" lon="-0.29102">
        <ele>66.95</ele>
        <time>2012-03-18T09:04:53Z</time>
      </trkpt>
      <trkpt lat="47.39091" lon="-0.29094">
        <ele>67.43</ele>
        <time>2012-03-18T09:04:57Z</time>
      </trkpt>
      <trkpt lat="47.39113" lon="-0.2908">
        <ele>67.43</ele>
        <time>2012-03-18T09:05:03Z</time>
      </trkpt>
      <trkpt lat="47.39128" lon="-0.29101">
        <ele>66.95</ele>
        <time>2012-03-18T09:05:09Z</time>
      </trkpt>
      <trkpt lat="47.3913" lon="-0.29119">
        <ele>66.47</ele>
        <time>2012-03-18T09:05:12Z</time>
      </trkpt>
      <trkpt lat="47.3914" lon="-0.29171">
        <ele>64.55</ele>
        <time>2012-03-18T09:05:20Z</time>
      </trkpt>
      <trkpt lat="47.39142" lon="-0.29184">
        <ele>64.07</ele>
        <time>2012-03-18T09:05:22Z</time>
      </trkpt>
      <trkpt lat="47.39155" lon="-0.29214">
        <ele>63.1</ele>
        <time>2012-03-18T09:05:28Z</time>
      </trkpt>
      <trkpt lat="47.39168" lon="-0.29212">
        <ele>62.62</ele>
        <time>2012-03-18T09:05:33Z</time>
      </trkpt>
      <trkpt lat="47.39185" lon="-0.29203">
        <ele>62.14</ele>
        <time>2012-03-18T09:05:38Z</time>
      </trkpt>
      <trkpt lat="47.39204" lon="-0.29194">
        <ele>62.14</ele>
        <time>2012-03-18T09:05:43Z</time>
      </trkpt>
      <trkpt lat="47.3922" lon="-0.29212">
        <ele>60.7</ele>
        <time>2012-03-18T09:05:48Z</time>
      </trkpt>
      <trkpt lat="47.39229" lon="-0.2924">
        <ele>58.78</ele>
        <time>2012-03-18T09:05:54Z</time>
      </trkpt>
      <trkpt lat="47.3923" lon="-0.29245">
        <ele>57.82</ele>
        <time>2012-03-18T09:05:55Z</time>
      </trkpt>
      <trkpt lat="47.39239" lon="-0.29281">
        <ele>54.93</ele>
        <time>2012-03-18T09:06:04Z</time>
      </trkpt>
      <trkpt lat="47.39242" lon="-0.2929">
        <ele>54.45</ele>
        <time>2012-03-18T09:06:08Z</time>
      </trkpt>
      <trkpt lat="47.39251" lon="-0.29289">
        <ele>53.49</ele>
        <time>2012-03-18T09:06:12Z</time>
      </trkpt>
      <trkpt lat="47.39262" lon="-0.29273">
        <ele>53.01</ele>
        <time>2012-03-18T09:06:18Z</time>
      </trkpt>
      <trkpt lat="47.39277" lon="-0.2926">
        <ele>52.05</ele>
        <time>2012-03-18T09:06:22Z</time>
      </trkpt>
      <trkpt lat="47.39302" lon="-0.29237">
        <ele>49.65</ele>
        <time>2012-03-18T09:06:28Z</time>
      </trkpt>
      <trkpt lat="47.39322" lon="-0.29219">
        <ele>46.76</ele>
        <time>2012-03-18T09:06:32Z</time>
      </trkpt>
      <trkpt lat="47.39326" lon="-0.29215">
        <ele>46.28</ele>
        <time>2012-03-18T09:06:33Z</time>
      </trkpt>
      <trkpt lat="47.39334" lon="-0.29209">
        <ele>44.84</ele>
        <time>2012-03-18T09:06:35Z</time>
      </trkpt>
      <trkpt lat="47.3935" lon="-0.29193">
        <ele>42.92</ele>
        <time>2012-03-18T09:06:41Z</time>
      </trkpt>
      <trkpt lat="47.39362" lon="-0.2918">
        <ele>41.47</ele>
        <time>2012-03-18T09:06:48Z</time>
      </trkpt>
      <trkpt lat="47.39364" lon="-0.29172">
        <ele>40.51</ele>
        <time>2012-03-18T09:06:53Z</time>
      </trkpt>
      <trkpt lat="47.39365" lon="-0.29172">
        <ele>41.47</ele>
        <time>2012-03-18T09:06:54Z</time>
      </trkpt>
      <trkpt lat="47.39363" lon="-0.29167">
        <ele>42.44</ele>
        <time>2012-03-18T09:06:59Z</time>
      </trkpt>
      <trkpt lat="47.39358" lon="-0.29164">
        <ele>43.4</ele>
        <time>2012-03-18T09:07:06Z</time>
      </trkpt>
      <trkpt lat="47.39358" lon="-0.29164">
        <ele>43.4</ele>
        <time>2012-03-18T09:07:18Z</time>
      </trkpt>
      <trkpt lat="47.39358" lon="-0.29164">
        <ele>43.4</ele>
        <time>2012-03-18T09:07:20Z</time>
      </trkpt>
      <trkpt lat="47.39353" lon="-0.29152">
        <ele>45.32</ele>
        <time>2012-03-18T09:07:29Z</time>
      </trkpt>
      <trkpt lat="47.39352" lon="-0.29148">
        <ele>44.36</ele>
        <time>2012-03-18T09:07:32Z</time>
      </trkpt>
      <trkpt lat="47.3935" lon="-0.2914">
        <ele>46.28</ele>
        <time>2012-03-18T09:07:37Z</time>
      </trkpt>
      <trkpt lat="47.39348" lon="-0.29126">
        <ele>47.24</ele>
        <time>2012-03-18T09:07:45Z</time>
      </trkpt>
      <trkpt lat="47.39343" lon="-0.29108">
        <ele>48.68</ele>
        <time>2012-03-18T09:07:57Z</time>
      </trkpt>
      <trkpt lat="47.39343" lon="-0.29108">
        <ele>48.68</ele>
        <time>2012-03-18T09:08:07Z</time>
      </trkpt>
      <trkpt lat="47.3934" lon="-0.29102">
        <ele>48.68</ele>
        <time>2012-03-18T09:08:14Z</time>
      </trkpt>
      <trkpt lat="47.39334" lon="-0.29079">
        <ele>49.16</ele>
        <time>2012-03-18T09:08:20Z</time>
      </trkpt>
      <trkpt lat="47.39322" lon="-0.29045">
        <ele>49.16</ele>
        <time>2012-03-18T09:08:28Z</time>
      </trkpt>
      <trkpt lat="47.39308" lon="-0.29015">
        <ele>50.13</ele>
        <time>2012-03-18T09:08:36Z</time>
      </trkpt>
      <trkpt lat="47.39291" lon="-0.29004">
        <ele>52.53</ele>
        <time>2012-03-18T09:08:43Z</time>
      </trkpt>
      <trkpt lat="47.3928" lon="-0.28996">
        <ele>54.45</ele>
        <time>2012-03-18T09:08:50Z</time>
      </trkpt>
      <trkpt lat="47.39279" lon="-0.28995">
        <ele>54.45</ele>
        <time>2012-03-18T09:08:51Z</time>
      </trkpt>
      <trkpt lat="47.39276" lon="-0.28993">
        <ele>54.45</ele>
        <time>2012-03-18T09:08:54Z</time>
      </trkpt>
      <trkpt lat="47.39268" lon="-0.28982">
        <ele>55.41</ele>
        <time>2012-03-18T09:09:01Z</time>
      </trkpt>
      <trkpt lat="47.39264" lon="-0.28979">
        <ele>55.89</ele>
        <time>2012-03-18T09:09:04Z</time>
      </trkpt>
      <trkpt lat="47.39257" lon="-0.28971">
        <ele>55.89</ele>
        <time>2012-03-18T09:09:09Z</time>
      </trkpt>
      <trkpt lat="47.39247" lon="-0.28954">
        <ele>56.37</ele>
        <time>2012-03-18T09:09:17Z</time>
      </trkpt>
      <trkpt lat="47.39238" lon="-0.28922">
        <ele>54.93</ele>
        <time>2012-03-18T09:09:25Z</time>
      </trkpt>
      <trkpt lat="47.39232" lon="-0.28901">
        <ele>53.49</ele>
        <time>2012-03-18T09:09:29Z</time>
      </trkpt>
      <trkpt lat="47.39221" lon="-0.28858">
        <ele>52.53</ele>
        <time>2012-03-18T09:09:37Z</time>
      </trkpt>
      <trkpt lat="47.39211" lon="-0.2882">
        <ele>52.05</ele>
        <time>2012-03-18T09:09:45Z</time>
      </trkpt>
      <trkpt lat="47.39203" lon="-0.28787">
        <ele>52.05</ele>
        <time>2012-03-18T09:09:53Z</time>
      </trkpt>
      <trkpt lat="47.39194" lon="-0.28757">
        <ele>52.05</ele>
        <time>2012-03-18T09:10:01Z</time>
      </trkpt>
      <trkpt lat="47.39186" lon="-0.28732">
        <ele>51.57</ele>
        <time>2012-03-18T09:10:09Z</time>
      </trkpt>
      <trkpt lat="47.39181" lon="-0.28726">
        <ele>52.53</ele>
        <time>2012-03-18T09:10:14Z</time>
      </trkpt>
      <trkpt lat="47.39178" lon="-0.28723">
        <ele>53.01</ele>
        <time>2012-03-18T09:10:19Z</time>
      </trkpt>
      <trkpt lat="47.39177" lon="-0.28722">
        <ele>53.01</ele>
        <time>2012-03-18T09:10:26Z</time>
      </trkpt>
      <trkpt lat="47.39173" lon="-0.28706">
        <ele>52.05</ele>
        <time>2012-03-18T09:10:32Z</time>
      </trkpt>
      <trkpt lat="47.39172" lon="-0.287">
        <ele>52.05</ele>
        <time>2012-03-18T09:10:34Z</time>
      </trkpt>
      <trkpt lat="47.39167" lon="-0.28682">
        <ele>51.57</ele>
        <time>2012-03-18T09:10:40Z</time>
      </trkpt>
      <trkpt lat="47.39154" lon="-0.28636">
        <ele>49.16</ele>
        <time>2012-03-18T09:10:50Z</time>
      </trkpt>
      <trkpt lat="47.39151" lon="-0.28625">
        <ele>49.16</ele>
        <time>2012-03-18T09:10:52Z</time>
      </trkpt>
      <trkpt lat="47.39137" lon="-0.2857">
        <ele>45.32</ele>
        <time>2012-03-18T09:11:01Z</time>
      </trkpt>
      <trkpt lat="47.39134" lon="-0.28541">
        <ele>42.92</ele>
        <time>2012-03-18T09:11:05Z</time>
      </trkpt>
      <trkpt lat="47.39131" lon="-0.28526">
        <ele>42.44</ele>
        <time>2012-03-18T09:11:07Z</time>
      </trkpt>
      <trkpt lat="47.39126" lon="-0.28502">
        <ele>40.03</ele>
        <time>2012-03-18T09:11:10Z</time>
      </trkpt>
      <trkpt lat="47.39123" lon="-0.28488">
        <ele>39.55</ele>
        <time>2012-03-18T09:11:12Z</time>
      </trkpt>
      <trkpt lat="47.39119" lon="-0.28465">
        <ele>37.63</ele>
        <time>2012-03-18T09:11:16Z</time>
      </trkpt>
      <trkpt lat="47.39118" lon="-0.28461">
        <ele>37.15</ele>
        <time>2012-03-18T09:11:17Z</time>
      </trkpt>
      <trkpt lat="47.39107" lon="-0.28454">
        <ele>36.67</ele>
        <time>2012-03-18T09:11:23Z</time>
      </trkpt>
      <trkpt lat="47.39081" lon="-0.28472">
        <ele>36.67</ele>
        <time>2012-03-18T09:11:31Z</time>
      </trkpt>
      <trkpt lat="47.39056" lon="-0.2849">
        <ele>38.59</ele>
        <time>2012-03-18T09:11:38Z</time>
      </trkpt>
      <trkpt lat="47.39035" lon="-0.28504">
        <ele>40.51</ele>
        <time>2012-03-18T09:11:47Z</time>
      </trkpt>
      <trkpt lat="47.39025" lon="-0.2851">
        <ele>40.51</ele>
        <time>2012-03-18T09:11:53Z</time>
      </trkpt>
      <trkpt lat="47.39025" lon="-0.2851">
        <ele>40.03</ele>
        <time>2012-03-18T09:12:00Z</time>
      </trkpt>
      <trkpt lat="47.39025" lon="-0.2851">
        <ele>40.51</ele>
        <time>2012-03-18T09:12:10Z</time>
      </trkpt>
      <trkpt lat="47.39014" lon="-0.28516">
        <ele>41.47</ele>
        <time>2012-03-18T09:12:16Z</time>
      </trkpt>
      <trkpt lat="47.39006" lon="-0.28522">
        <ele>41.95</ele>
        <time>2012-03-18T09:12:20Z</time>
      </trkpt>
      <trkpt lat="47.38995" lon="-0.2851">
        <ele>40.99</ele>
        <time>2012-03-18T09:12:26Z</time>
      </trkpt>
      <trkpt lat="47.3898" lon="-0.28469">
        <ele>39.07</ele>
        <time>2012-03-18T09:12:32Z</time>
      </trkpt>
      <trkpt lat="47.38972" lon="-0.28448">
        <ele>38.11</ele>
        <time>2012-03-18T09:12:35Z</time>
      </trkpt>
      <trkpt lat="47.38959" lon="-0.28408">
        <ele>37.15</ele>
        <time>2012-03-18T09:12:42Z</time>
      </trkpt>
      <trkpt lat="47.38948" lon="-0.28378">
        <ele>37.63</ele>
        <time>2012-03-18T09:12:49Z</time>
      </trkpt>
      <trkpt lat="47.38938" lon="-0.28349">
        <ele>38.59</ele>
        <time>2012-03-18T09:12:57Z</time>
      </trkpt>
      <trkpt lat="47.38928" lon="-0.28322">
        <ele>40.03</ele>
        <time>2012-03-18T09:13:05Z</time>
      </trkpt>
      <trkpt lat="47.38923" lon="-0.28312">
        <ele>41.47</ele>
        <time>2012-03-18T09:13:09Z</time>
      </trkpt>
      <trkpt lat="47.38908" lon="-0.28298">
        <ele>43.4</ele>
        <time>2012-03-18T09:13:17Z</time>
      </trkpt>
      <trkpt lat="47.38898" lon="-0.28288">
        <ele>44.36</ele>
        <time>2012-03-18T09:13:24Z</time>
      </trkpt>
      <trkpt lat="47.38888" lon="-0.28279">
        <ele>45.8</ele>
        <time>2012-03-18T09:13:32Z</time>
      </trkpt>
      <trkpt lat="47.38877" lon="-0.28267">
        <ele>48.2</ele>
        <time>2012-03-18T09:13:42Z</time>
      </trkpt>
      <trkpt lat="47.38868" lon="-0.28259">
        <ele>50.61</ele>
        <time>2012-03-18T09:13:50Z</time>
      </trkpt>
      <trkpt lat="47.38861" lon="-0.28252">
        <ele>51.09</ele>
        <time>2012-03-18T09:13:56Z</time>
      </trkpt>
      <trkpt lat="47.38851" lon="-0.28243">
        <ele>53.49</ele>
        <time>2012-03-18T09:14:05Z</time>
      </trkpt>
      <trkpt lat="47.38844" lon="-0.28235">
        <ele>54.45</ele>
        <time>2012-03-18T09:14:12Z</time>
      </trkpt>
      <trkpt lat="47.38835" lon="-0.28227">
        <ele>56.86</ele>
        <time>2012-03-18T09:14:20Z</time>
      </trkpt>
      <trkpt lat="47.38834" lon="-0.28226">
        <ele>56.86</ele>
        <time>2012-03-18T09:14:21Z</time>
      </trkpt>
      <trkpt lat="47.38827" lon="-0.28219">
        <ele>58.78</ele>
        <time>2012-03-18T09:14:28Z</time>
      </trkpt>
      <trkpt lat="47.38823" lon="-0.28215">
        <ele>59.26</ele>
        <time>2012-03-18T09:14:32Z</time>
      </trkpt>
      <trkpt lat="47.38813" lon="-0.28204">
        <ele>60.7</ele>
        <time>2012-03-18T09:14:42Z</time>
      </trkpt>
      <trkpt lat="47.38812" lon="-0.28202">
        <ele>60.7</ele>
        <time>2012-03-18T09:14:43Z</time>
      </trkpt>
      <trkpt lat="47.3881" lon="-0.28191">
        <ele>61.66</ele>
        <time>2012-03-18T09:14:49Z</time>
      </trkpt>
      <trkpt lat="47.38806" lon="-0.28179">
        <ele>62.62</ele>
        <time>2012-03-18T09:14:55Z</time>
      </trkpt>
      <trkpt lat="47.38804" lon="-0.28172">
        <ele>62.62</ele>
        <time>2012-03-18T09:14:59Z</time>
      </trkpt>
      <trkpt lat="47.38798" lon="-0.28165">
        <ele>64.07</ele>
        <time>2012-03-18T09:15:05Z</time>
      </trkpt>
      <trkpt lat="47.3879" lon="-0.28168">
        <ele>64.55</ele>
        <time>2012-03-18T09:15:11Z</time>
      </trkpt>
      <trkpt lat="47.38779" lon="-0.28177">
        <ele>65.51</ele>
        <time>2012-03-18T09:15:20Z</time>
      </trkpt>
      <trkpt lat="47.38771" lon="-0.28183">
        <ele>65.03</ele>
        <time>2012-03-18T09:15:26Z</time>
      </trkpt>
      <trkpt lat="47.38761" lon="-0.28192">
        <ele>66.47</ele>
        <time>2012-03-18T09:15:35Z</time>
      </trkpt>
      <trkpt lat="47.3875" lon="-0.282">
        <ele>66.95</ele>
        <time>2012-03-18T09:15:43Z</time>
      </trkpt>
      <trkpt lat="47.38739" lon="-0.28208">
        <ele>67.91</ele>
        <time>2012-03-18T09:15:52Z</time>
      </trkpt>
      <trkpt lat="47.3873" lon="-0.28214">
        <ele>68.39</ele>
        <time>2012-03-18T09:15:59Z</time>
      </trkpt>
      <trkpt lat="47.38722" lon="-0.28215">
        <ele>69.35</ele>
        <time>2012-03-18T09:16:05Z</time>
      </trkpt>
      <trkpt lat="47.38715" lon="-0.28216">
        <ele>70.31</ele>
        <time>2012-03-18T09:16:12Z</time>
      </trkpt>
      <trkpt lat="47.38705" lon="-0.28214">
        <ele>71.76</ele>
        <time>2012-03-18T09:16:19Z</time>
      </trkpt>
      <trkpt lat="47.38704" lon="-0.28215">
        <ele>70.79</ele>
        <time>2012-03-18T09:16:20Z</time>
      </trkpt>
      <trkpt lat="47.387" lon="-0.28214">
        <ele>71.27</ele>
        <time>2012-03-18T09:16:23Z</time>
      </trkpt>
      <trkpt lat="47.38694" lon="-0.28213">
        <ele>71.76</ele>
        <time>2012-03-18T09:16:27Z</time>
      </trkpt>
      <trkpt lat="47.38689" lon="-0.28211">
        <ele>72.72</ele>
        <time>2012-03-18T09:16:30Z</time>
      </trkpt>
      <trkpt lat="47.3868" lon="-0.28213">
        <ele>72.72</ele>
        <time>2012-03-18T09:16:37Z</time>
      </trkpt>
      <trkpt lat="47.38669" lon="-0.28214">
        <ele>73.2</ele>
        <time>2012-03-18T09:16:45Z</time>
      </trkpt>
      <trkpt lat="47.38656" lon="-0.28218">
        <ele>73.68</ele>
        <time>2012-03-18T09:16:53Z</time>
      </trkpt>
      <trkpt lat="47.38641" lon="-0.28227">
        <ele>74.16</ele>
        <time>2012-03-18T09:17:01Z</time>
      </trkpt>
      <trkpt lat="47.38621" lon="-0.28237">
        <ele>74.16</ele>
        <time>2012-03-18T09:17:09Z</time>
      </trkpt>
      <trkpt lat="47.38599" lon="-0.28242">
        <ele>75.6</ele>
        <time>2012-03-18T09:17:15Z</time>
      </trkpt>
      <trkpt lat="47.38596" lon="-0.28243">
        <ele>75.6</ele>
        <time>2012-03-18T09:17:16Z</time>
      </trkpt>
      <trkpt lat="47.3858" lon="-0.28245">
        <ele>75.12</ele>
        <time>2012-03-18T09:17:20Z</time>
      </trkpt>
      <trkpt lat="47.38562" lon="-0.28246">
        <ele>75.12</ele>
        <time>2012-03-18T09:17:24Z</time>
      </trkpt>
      <trkpt lat="47.38527" lon="-0.28253">
        <ele>75.12</ele>
        <time>2012-03-18T09:17:33Z</time>
      </trkpt>
      <trkpt lat="47.38517" lon="-0.28263">
        <ele>75.6</ele>
        <time>2012-03-18T09:17:36Z</time>
      </trkpt>
      <trkpt lat="47.38498" lon="-0.28279">
        <ele>75.12</ele>
        <time>2012-03-18T09:17:41Z</time>
      </trkpt>
      <trkpt lat="47.38459" lon="-0.28299">
        <ele>76.08</ele>
        <time>2012-03-18T09:17:50Z</time>
      </trkpt>
      <trkpt lat="47.38426" lon="-0.28314">
        <ele>74.64</ele>
        <time>2012-03-18T09:17:58Z</time>
      </trkpt>
      <trkpt lat="47.38404" lon="-0.28324">
        <ele>74.16</ele>
        <time>2012-03-18T09:18:05Z</time>
      </trkpt>
      <trkpt lat="47.38402" lon="-0.28328">
        <ele>74.64</ele>
        <time>2012-03-18T09:18:10Z</time>
      </trkpt>
      <trkpt lat="47.38402" lon="-0.28329">
        <ele>73.68</ele>
        <time>2012-03-18T09:18:15Z</time>
      </trkpt>
      <trkpt lat="47.38398" lon="-0.2833">
        <ele>74.16</ele>
        <time>2012-03-18T09:18:21Z</time>
      </trkpt>
      <trkpt lat="47.38397" lon="-0.28331">
        <ele>74.16</ele>
        <time>2012-03-18T09:18:22Z</time>
      </trkpt>
      <trkpt lat="47.38395" lon="-0.28334">
        <ele>74.16</ele>
        <time>2012-03-18T09:18:29Z</time>
      </trkpt>
      <trkpt lat="47.38395" lon="-0.28334">
        <ele>74.64</ele>
        <time>2012-03-18T09:18:46Z</time>
      </trkpt>
      <trkpt lat="47.38395" lon="-0.28334">
        <ele>73.68</ele>
        <time>2012-03-18T09:18:58Z</time>
      </trkpt>
      <trkpt lat="47.38395" lon="-0.28334">
        <ele>74.16</ele>
        <time>2012-03-18T09:19:10Z</time>
      </trkpt>
      <trkpt lat="47.38395" lon="-0.28334">
        <ele>74.16</ele>
        <time>2012-03-18T09:19:21Z</time>
      </trkpt>
      <trkpt lat="47.38394" lon="-0.28333">
        <ele>74.64</ele>
        <time>2012-03-18T09:19:22Z</time>
      </trkpt>
      <trkpt lat="47.38386" lon="-0.28333">
        <ele>74.64</ele>
        <time>2012-03-18T09:19:28Z</time>
      </trkpt>
      <trkpt lat="47.38384" lon="-0.28335">
        <ele>74.16</ele>
        <time>2012-03-18T09:19:29Z</time>
      </trkpt>
      <trkpt lat="47.38364" lon="-0.28346">
        <ele>74.16</ele>
        <time>2012-03-18T09:19:36Z</time>
      </trkpt>
      <trkpt lat="47.38347" lon="-0.28354">
        <ele>74.64</ele>
        <time>2012-03-18T09:19:40Z</time>
      </trkpt>
      <trkpt lat="47.38317" lon="-0.28367">
        <ele>75.6</ele>
        <time>2012-03-18T09:19:47Z</time>
      </trkpt>
      <trkpt lat="47.38292" lon="-0.28375">
        <ele>75.6</ele>
        <time>2012-03-18T09:19:55Z</time>
      </trkpt>
      <trkpt lat="47.38274" lon="-0.28385">
        <ele>75.6</ele>
        <time>2012-03-18T09:20:01Z</time>
      </trkpt>
      <trkpt lat="47.38247" lon="-0.284">
        <ele>75.6</ele>
        <time>2012-03-18T09:20:09Z</time>
      </trkpt>
      <trkpt lat="47.38235" lon="-0.28406">
        <ele>75.12</ele>
        <time>2012-03-18T09:20:12Z</time>
      </trkpt>
      <trkpt lat="47.38192" lon="-0.28428">
        <ele>74.64</ele>
        <time>2012-03-18T09:20:23Z</time>
      </trkpt>
      <trkpt lat="47.38169" lon="-0.28436">
        <ele>74.64</ele>
        <time>2012-03-18T09:20:29Z</time>
      </trkpt>
      <trkpt lat="47.38139" lon="-0.28444">
        <ele>74.64</ele>
        <time>2012-03-18T09:20:37Z</time>
      </trkpt>
      <trkpt lat="47.38112" lon="-0.28449">
        <ele>75.6</ele>
        <time>2012-03-18T09:20:44Z</time>
      </trkpt>
      <trkpt lat="47.38078" lon="-0.28458">
        <ele>75.12</ele>
        <time>2012-03-18T09:20:53Z</time>
      </trkpt>
      <trkpt lat="47.38047" lon="-0.28468">
        <ele>76.08</ele>
        <time>2012-03-18T09:21:01Z</time>
      </trkpt>
      <trkpt lat="47.38036" lon="-0.28471">
        <ele>75.6</ele>
        <time>2012-03-18T09:21:04Z</time>
      </trkpt>
      <trkpt lat="47.38028" lon="-0.28472">
        <ele>76.08</ele>
        <time>2012-03-18T09:21:06Z</time>
      </trkpt>
      <trkpt lat="47.37992" lon="-0.28482">
        <ele>76.56</ele>
        <time>2012-03-18T09:21:15Z</time>
      </trkpt>
      <trkpt lat="47.3797" lon="-0.28491">
        <ele>77.04</ele>
        <time>2012-03-18T09:21:22Z</time>
      </trkpt>
      <trkpt lat="47.37956" lon="-0.28488">
        <ele>78</ele>
        <time>2012-03-18T09:21:28Z</time>
      </trkpt>
      <trkpt lat="47.37938" lon="-0.28487">
        <ele>77.52</ele>
        <time>2012-03-18T09:21:35Z</time>
      </trkpt>
      <trkpt lat="47.37926" lon="-0.28491">
        <ele>77.04</ele>
        <time>2012-03-18T09:21:39Z</time>
      </trkpt>
      <trkpt lat="47.37909" lon="-0.28503">
        <ele>78</ele>
        <time>2012-03-18T09:21:45Z</time>
      </trkpt>
      <trkpt lat="47.37891" lon="-0.28518">
        <ele>78.48</ele>
        <time>2012-03-18T09:21:51Z</time>
      </trkpt>
      <trkpt lat="47.37881" lon="-0.28537">
        <ele>78.97</ele>
        <time>2012-03-18T09:21:56Z</time>
      </trkpt>
      <trkpt lat="47.37873" lon="-0.2857">
        <ele>78.97</ele>
        <time>2012-03-18T09:22:02Z</time>
      </trkpt>
      <trkpt lat="47.37858" lon="-0.28596">
        <ele>77.52</ele>
        <time>2012-03-18T09:22:08Z</time>
      </trkpt>
      <trkpt lat="47.37835" lon="-0.28625">
        <ele>78</ele>
        <time>2012-03-18T09:22:16Z</time>
      </trkpt>
      <trkpt lat="47.37819" lon="-0.28651">
        <ele>77.52</ele>
        <time>2012-03-18T09:22:22Z</time>
      </trkpt>
      <trkpt lat="47.37797" lon="-0.28675">
        <ele>77.52</ele>
        <time>2012-03-18T09:22:29Z</time>
      </trkpt>
      <trkpt lat="47.37791" lon="-0.28683">
        <ele>77.04</ele>
        <time>2012-03-18T09:22:31Z</time>
      </trkpt>
      <trkpt lat="47.37765" lon="-0.28692">
        <ele>74.16</ele>
        <time>2012-03-18T09:22:36Z</time>
      </trkpt>
      <trkpt lat="47.37747" lon="-0.287">
        <ele>73.2</ele>
        <time>2012-03-18T09:22:39Z</time>
      </trkpt>
      <trkpt lat="47.37725" lon="-0.28707">
        <ele>71.27</ele>
        <time>2012-03-18T09:22:43Z</time>
      </trkpt>
      <trkpt lat="47.37677" lon="-0.28728">
        <ele>70.79</ele>
        <time>2012-03-18T09:22:53Z</time>
      </trkpt>
      <trkpt lat="47.37664" lon="-0.28733">
        <ele>71.27</ele>
        <time>2012-03-18T09:22:56Z</time>
      </trkpt>
      <trkpt lat="47.37656" lon="-0.28737">
        <ele>71.27</ele>
        <time>2012-03-18T09:22:58Z</time>
      </trkpt>
      <trkpt lat="47.37623" lon="-0.28755">
        <ele>70.79</ele>
        <time>2012-03-18T09:23:07Z</time>
      </trkpt>
      <trkpt lat="47.37602" lon="-0.28764">
        <ele>70.31</ele>
        <time>2012-03-18T09:23:13Z</time>
      </trkpt>
      <trkpt lat="47.3758" lon="-0.28769">
        <ele>70.79</ele>
        <time>2012-03-18T09:23:19Z</time>
      </trkpt>
      <trkpt lat="47.37559" lon="-0.28764">
        <ele>71.27</ele>
        <time>2012-03-18T09:23:25Z</time>
      </trkpt>
      <trkpt lat="47.37533" lon="-0.2875">
        <ele>71.27</ele>
        <time>2012-03-18T09:23:32Z</time>
      </trkpt>
      <trkpt lat="47.37508" lon="-0.28742">
        <ele>72.24</ele>
        <time>2012-03-18T09:23:39Z</time>
      </trkpt>
      <trkpt lat="47.37483" lon="-0.28742">
        <ele>72.72</ele>
        <time>2012-03-18T09:23:46Z</time>
      </trkpt>
      <trkpt lat="47.37463" lon="-0.28749">
        <ele>72.72</ele>
        <time>2012-03-18T09:23:53Z</time>
      </trkpt>
      <trkpt lat="47.37445" lon="-0.28758">
        <ele>72.72</ele>
        <time>2012-03-18T09:23:59Z</time>
      </trkpt>
      <trkpt lat="47.37429" lon="-0.28763">
        <ele>72.72</ele>
        <time>2012-03-18T09:24:03Z</time>
      </trkpt>
      <trkpt lat="47.37407" lon="-0.28774">
        <ele>73.2</ele>
        <time>2012-03-18T09:24:09Z</time>
      </trkpt>
      <trkpt lat="47.37381" lon="-0.28794">
        <ele>74.16</ele>
        <time>2012-03-18T09:24:17Z</time>
      </trkpt>
      <trkpt lat="47.37373" lon="-0.2882">
        <ele>73.68</ele>
        <time>2012-03-18T09:24:22Z</time>
      </trkpt>
      <trkpt lat="47.37364" lon="-0.28817">
        <ele>73.2</ele>
        <time>2012-03-18T09:24:26Z</time>
      </trkpt>
      <trkpt lat="47.37344" lon="-0.28798">
        <ele>74.16</ele>
        <time>2012-03-18T09:24:33Z</time>
      </trkpt>
      <trkpt lat="47.37332" lon="-0.28788">
        <ele>73.68</ele>
        <time>2012-03-18T09:24:36Z</time>
      </trkpt>
      <trkpt lat="47.37318" lon="-0.28774">
        <ele>73.2</ele>
        <time>2012-03-18T09:24:40Z</time>
      </trkpt>
      <trkpt lat="47.37289" lon="-0.28755">
        <ele>73.2</ele>
        <time>2012-03-18T09:24:49Z</time>
      </trkpt>
      <trkpt lat="47.37262" lon="-0.28737">
        <ele>73.68</ele>
        <time>2012-03-18T09:24:56Z</time>
      </trkpt>
      <trkpt lat="47.37237" lon="-0.2872">
        <ele>73.2</ele>
        <time>2012-03-18T09:25:03Z</time>
      </trkpt>
      <trkpt lat="47.37215" lon="-0.28708">
        <ele>73.2</ele>
        <time>2012-03-18T09:25:09Z</time>
      </trkpt>
      <trkpt lat="47.3719" lon="-0.28703">
        <ele>73.2</ele>
        <time>2012-03-18T09:25:16Z</time>
      </trkpt>
      <trkpt lat="47.37167" lon="-0.28706">
        <ele>73.2</ele>
        <time>2012-03-18T09:25:22Z</time>
      </trkpt>
      <trkpt lat="47.37146" lon="-0.28708">
        <ele>73.68</ele>
        <time>2012-03-18T09:25:27Z</time>
      </trkpt>
      <trkpt lat="47.3712" lon="-0.28711">
        <ele>73.68</ele>
        <time>2012-03-18T09:25:33Z</time>
      </trkpt>
      <trkpt lat="47.37116" lon="-0.28711">
        <ele>73.68</ele>
        <time>2012-03-18T09:25:34Z</time>
      </trkpt>
      <trkpt lat="47.37083" lon="-0.28717">
        <ele>73.68</ele>
        <time>2012-03-18T09:25:42Z</time>
      </trkpt>
      <trkpt lat="47.3706" lon="-0.28724">
        <ele>73.68</ele>
        <time>2012-03-18T09:25:48Z</time>
      </trkpt>
      <trkpt lat="47.37052" lon="-0.28724">
        <ele>73.68</ele>
        <time>2012-03-18T09:25:50Z</time>
      </trkpt>
      <trkpt lat="47.37014" lon="-0.28728">
        <ele>73.68</ele>
        <time>2012-03-18T09:25:58Z</time>
      </trkpt>
      <trkpt lat="47.37005" lon="-0.28729">
        <ele>73.2</ele>
        <time>2012-03-18T09:26:00Z</time>
      </trkpt>
      <trkpt lat="47.36995" lon="-0.28729">
        <ele>73.2</ele>
        <time>2012-03-18T09:26:02Z</time>
      </trkpt>
      <trkpt lat="47.36982" lon="-0.28728">
        <ele>73.2</ele>
        <time>2012-03-18T09:26:05Z</time>
      </trkpt>
      <trkpt lat="47.36972" lon="-0.28728">
        <ele>73.2</ele>
        <time>2012-03-18T09:26:07Z</time>
      </trkpt>
      <trkpt lat="47.36954" lon="-0.28733">
        <ele>73.2</ele>
        <time>2012-03-18T09:26:11Z</time>
      </trkpt>
      <trkpt lat="47.36916" lon="-0.28737">
        <ele>71.76</ele>
        <time>2012-03-18T09:26:19Z</time>
      </trkpt>
      <trkpt lat="47.36897" lon="-0.28739">
        <ele>71.27</ele>
        <time>2012-03-18T09:26:24Z</time>
      </trkpt>
      <trkpt lat="47.36867" lon="-0.2874">
        <ele>71.27</ele>
        <time>2012-03-18T09:26:31Z</time>
      </trkpt>
      <trkpt lat="47.36859" lon="-0.28741">
        <ele>71.76</ele>
        <time>2012-03-18T09:26:33Z</time>
      </trkpt>
      <trkpt lat="47.36829" lon="-0.28745">
        <ele>71.76</ele>
        <time>2012-03-18T09:26:41Z</time>
      </trkpt>
      <trkpt lat="47.36812" lon="-0.28748">
        <ele>71.27</ele>
        <time>2012-03-18T09:26:47Z</time>
      </trkpt>
      <trkpt lat="47.36795" lon="-0.28753">
        <ele>71.76</ele>
        <time>2012-03-18T09:26:54Z</time>
      </trkpt>
      <trkpt lat="47.3678" lon="-0.28755">
        <ele>72.24</ele>
        <time>2012-03-18T09:27:00Z</time>
      </trkpt>
      <trkpt lat="47.36768" lon="-0.28754">
        <ele>71.76</ele>
        <time>2012-03-18T09:27:06Z</time>
      </trkpt>
      <trkpt lat="47.36765" lon="-0.28751">
        <ele>71.76</ele>
        <time>2012-03-18T09:27:12Z</time>
      </trkpt>
      <trkpt lat="47.36765" lon="-0.28751">
        <ele>71.76</ele>
        <time>2012-03-18T09:27:19Z</time>
      </trkpt>
      <trkpt lat="47.36765" lon="-0.28751">
        <ele>72.24</ele>
        <time>2012-03-18T09:27:34Z</time>
      </trkpt>
      <trkpt lat="47.36765" lon="-0.28751">
        <ele>71.27</ele>
        <time>2012-03-18T09:27:44Z</time>
      </trkpt>
      <trkpt lat="47.36764" lon="-0.28752">
        <ele>71.27</ele>
        <time>2012-03-18T09:27:54Z</time>
      </trkpt>
      <trkpt lat="47.36762" lon="-0.28751">
        <ele>71.76</ele>
        <time>2012-03-18T09:28:00Z</time>
      </trkpt>
      <trkpt lat="47.3676" lon="-0.28751">
        <ele>71.27</ele>
        <time>2012-03-18T09:28:08Z</time>
      </trkpt>
      <trkpt lat="47.3676" lon="-0.28751">
        <ele>71.27</ele>
        <time>2012-03-18T09:28:26Z</time>
      </trkpt>
      <trkpt lat="47.3676" lon="-0.28751">
        <ele>71.27</ele>
        <time>2012-03-18T09:28:44Z</time>
      </trkpt>
      <trkpt lat="47.3676" lon="-0.28751">
        <ele>71.76</ele>
        <time>2012-03-18T09:29:01Z</time>
      </trkpt>
      <trkpt lat="47.3676" lon="-0.28751">
        <ele>71.27</ele>
        <time>2012-03-18T09:29:18Z</time>
      </trkpt>
      <trkpt lat="47.36759" lon="-0.28751">
        <ele>71.27</ele>
        <time>2012-03-18T09:29:40Z</time>
      </trkpt>
      <trkpt lat="47.36759" lon="-0.28751">
        <ele>71.27</ele>
        <time>2012-03-18T09:29:58Z</time>
      </trkpt>
      <trkpt lat="47.36759" lon="-0.28751">
        <ele>71.76</ele>
        <time>2012-03-18T09:30:17Z</time>
      </trkpt>
      <trkpt lat="47.36759" lon="-0.28751">
        <ele>72.24</ele>
        <time>2012-03-18T09:30:34Z</time>
      </trkpt>
      <trkpt lat="47.36759" lon="-0.28751">
        <ele>71.27</ele>
        <time>2012-03-18T09:30:54Z</time>
      </trkpt>
      <trkpt lat="47.36759" lon="-0.28751">
        <ele>71.27</ele>
        <time>2012-03-18T09:31:15Z</time>
      </trkpt>
      <trkpt lat="47.36759" lon="-0.28751">
        <ele>71.76</ele>
        <time>2012-03-18T09:31:34Z</time>
      </trkpt>
      <trkpt lat="47.36759" lon="-0.28751">
        <ele>71.76</ele>
        <time>2012-03-18T09:31:57Z</time>
      </trkpt>
      <trkpt lat="47.36759" lon="-0.28751">
        <ele>71.76</ele>
        <time>2012-03-18T09:32:19Z</time>
      </trkpt>
      <trkpt lat="47.36759" lon="-0.28751">
        <ele>71.76</ele>
        <time>2012-03-18T09:32:40Z</time>
      </trkpt>
      <trkpt lat="47.36759" lon="-0.2875">
        <ele>71.76</ele>
        <time>2012-03-18T09:32:57Z</time>
      </trkpt>
      <trkpt lat="47.36759" lon="-0.2875">
        <ele>71.27</ele>
        <time>2012-03-18T09:33:16Z</time>
      </trkpt>
      <trkpt lat="47.36759" lon="-0.28751">
        <ele>71.76</ele>
        <time>2012-03-18T09:33:35Z</time>
      </trkpt>
      <trkpt lat="47.36759" lon="-0.28751">
        <ele>72.24</ele>
        <time>2012-03-18T09:33:53Z</time>
      </trkpt>
      <trkpt lat="47.36759" lon="-0.2875">
        <ele>71.27</ele>
        <time>2012-03-18T09:34:10Z</time>
      </trkpt>
      <trkpt lat="47.36759" lon="-0.2875">
        <ele>71.76</ele>
        <time>2012-03-18T09:34:31Z</time>
      </trkpt>
      <trkpt lat="47.36759" lon="-0.28751">
        <ele>71.27</ele>
        <time>2012-03-18T09:34:51Z</time>
      </trkpt>
      <trkpt lat="47.36759" lon="-0.28751">
        <ele>71.27</ele>
        <time>2012-03-18T09:35:11Z</time>
      </trkpt>
      <trkpt lat="47.36758" lon="-0.28751">
        <ele>72.24</ele>
        <time>2012-03-18T09:35:27Z</time>
      </trkpt>
      <trkpt lat="47.36758" lon="-0.28751">
        <ele>72.24</ele>
        <time>2012-03-18T09:35:42Z</time>
      </trkpt>
      <trkpt lat="47.36758" lon="-0.2875">
        <ele>72.72</ele>
        <time>2012-03-18T09:35:54Z</time>
      </trkpt>
      <trkpt lat="47.36759" lon="-0.2875">
        <ele>72.24</ele>
        <time>2012-03-18T09:36:07Z</time>
      </trkpt>
      <trkpt lat="47.36763" lon="-0.28746">
        <ele>71.76</ele>
        <time>2012-03-18T09:36:13Z</time>
      </trkpt>
      <trkpt lat="47.36767" lon="-0.28737">
        <ele>72.72</ele>
        <time>2012-03-18T09:36:21Z</time>
      </trkpt>
      <trkpt lat="47.36767" lon="-0.28737">
        <ele>73.2</ele>
        <time>2012-03-18T09:36:31Z</time>
      </trkpt>
      <trkpt lat="47.36767" lon="-0.28737">
        <ele>72.72</ele>
        <time>2012-03-18T09:36:47Z</time>
      </trkpt>
      <trkpt lat="47.36767" lon="-0.28737">
        <ele>72.72</ele>
        <time>2012-03-18T09:37:00Z</time>
      </trkpt>
      <trkpt lat="47.36767" lon="-0.28737">
        <ele>72.72</ele>
        <time>2012-03-18T09:37:15Z</time>
      </trkpt>
      <trkpt lat="47.36767" lon="-0.28737">
        <ele>73.2</ele>
        <time>2012-03-18T09:37:25Z</time>
      </trkpt>
      <trkpt lat="47.36767" lon="-0.28737">
        <ele>73.2</ele>
        <time>2012-03-18T09:37:34Z</time>
      </trkpt>
      <trkpt lat="47.36767" lon="-0.28737">
        <ele>73.68</ele>
        <time>2012-03-18T09:37:46Z</time>
      </trkpt>
      <trkpt lat="47.36767" lon="-0.28737">
        <ele>73.2</ele>
        <time>2012-03-18T09:38:04Z</time>
      </trkpt>
      <trkpt lat="47.36767" lon="-0.28737">
        <ele>73.2</ele>
        <time>2012-03-18T09:38:06Z</time>
      </trkpt>
      <trkpt lat="47.3677" lon="-0.28732">
        <ele>73.68</ele>
        <time>2012-03-18T09:38:12Z</time>
      </trkpt>
      <trkpt lat="47.3677" lon="-0.28731">
        <ele>73.2</ele>
        <time>2012-03-18T09:38:19Z</time>
      </trkpt>
      <trkpt lat="47.3677" lon="-0.28731">
        <ele>73.2</ele>
        <time>2012-03-18T09:38:24Z</time>
      </trkpt>
      <trkpt lat="47.36773" lon="-0.28716">
        <ele>69.83</ele>
        <time>2012-03-18T09:38:30Z</time>
      </trkpt>
      <trkpt lat="47.36774" lon="-0.28713">
        <ele>81.37</ele>
        <time>2012-03-18T09:38:31Z</time>
      </trkpt>
      <trkpt lat="47.36776" lon="-0.28709">
        <ele>74.64</ele>
        <time>2012-03-18T09:38:32Z</time>
      </trkpt>
      <trkpt lat="47.36785" lon="-0.28677">
        <ele>74.16</ele>
        <time>2012-03-18T09:38:38Z</time>
      </trkpt>
      <trkpt lat="47.36805" lon="-0.28622">
        <ele>74.16</ele>
        <time>2012-03-18T09:38:48Z</time>
      </trkpt>
      <trkpt lat="47.36813" lon="-0.28588">
        <ele>73.2</ele>
        <time>2012-03-18T09:38:54Z</time>
      </trkpt>
      <trkpt lat="47.36825" lon="-0.28546">
        <ele>72.24</ele>
        <time>2012-03-18T09:39:01Z</time>
      </trkpt>
      <trkpt lat="47.36833" lon="-0.28523">
        <ele>71.76</ele>
        <time>2012-03-18T09:39:05Z</time>
      </trkpt>
      <trkpt lat="47.36843" lon="-0.28498">
        <ele>70.79</ele>
        <time>2012-03-18T09:39:09Z</time>
      </trkpt>
      <trkpt lat="47.36861" lon="-0.28439">
        <ele>69.83</ele>
        <time>2012-03-18T09:39:18Z</time>
      </trkpt>
      <trkpt lat="47.36863" lon="-0.28433">
        <ele>69.83</ele>
        <time>2012-03-18T09:39:19Z</time>
      </trkpt>
      <trkpt lat="47.3687" lon="-0.2839">
        <ele>68.87</ele>
        <time>2012-03-18T09:39:26Z</time>
      </trkpt>
      <trkpt lat="47.3688" lon="-0.28361">
        <ele>69.35</ele>
        <time>2012-03-18T09:39:31Z</time>
      </trkpt>
      <trkpt lat="47.36885" lon="-0.28331">
        <ele>69.83</ele>
        <time>2012-03-18T09:39:37Z</time>
      </trkpt>
      <trkpt lat="47.36888" lon="-0.28309">
        <ele>69.83</ele>
        <time>2012-03-18T09:39:43Z</time>
      </trkpt>
      <trkpt lat="47.36893" lon="-0.28282">
        <ele>70.31</ele>
        <time>2012-03-18T09:39:49Z</time>
      </trkpt>
      <trkpt lat="47.36896" lon="-0.28255">
        <ele>70.79</ele>
        <time>2012-03-18T09:39:54Z</time>
      </trkpt>
      <trkpt lat="47.369" lon="-0.28221">
        <ele>71.76</ele>
        <time>2012-03-18T09:40:01Z</time>
      </trkpt>
      <trkpt lat="47.36902" lon="-0.28195">
        <ele>72.72</ele>
        <time>2012-03-18T09:40:07Z</time>
      </trkpt>
      <trkpt lat="47.36907" lon="-0.28158">
        <ele>72.72</ele>
        <time>2012-03-18T09:40:15Z</time>
      </trkpt>
      <trkpt lat="47.36912" lon="-0.28125">
        <ele>73.68</ele>
        <time>2012-03-18T09:40:22Z</time>
      </trkpt>
      <trkpt lat="47.3692" lon="-0.28094">
        <ele>73.68</ele>
        <time>2012-03-18T09:40:29Z</time>
      </trkpt>
      <trkpt lat="47.3693" lon="-0.2807">
        <ele>73.68</ele>
        <time>2012-03-18T09:40:35Z</time>
      </trkpt>
      <trkpt lat="47.36946" lon="-0.28032">
        <ele>74.16</ele>
        <time>2012-03-18T09:40:44Z</time>
      </trkpt>
      <trkpt lat="47.36957" lon="-0.28009">
        <ele>74.16</ele>
        <time>2012-03-18T09:40:50Z</time>
      </trkpt>
      <trkpt lat="47.36965" lon="-0.2798">
        <ele>73.68</ele>
        <time>2012-03-18T09:40:57Z</time>
      </trkpt>
      <trkpt lat="47.36971" lon="-0.27952">
        <ele>74.16</ele>
        <time>2012-03-18T09:41:03Z</time>
      </trkpt>
      <trkpt lat="47.36974" lon="-0.27927">
        <ele>75.12</ele>
        <time>2012-03-18T09:41:08Z</time>
      </trkpt>
      <trkpt lat="47.36975" lon="-0.27921">
        <ele>75.12</ele>
        <time>2012-03-18T09:41:09Z</time>
      </trkpt>
      <trkpt lat="47.36982" lon="-0.27865">
        <ele>75.6</ele>
        <time>2012-03-18T09:41:19Z</time>
      </trkpt>
      <trkpt lat="47.36981" lon="-0.27833">
        <ele>76.08</ele>
        <time>2012-03-18T09:41:25Z</time>
      </trkpt>
      <trkpt lat="47.36973" lon="-0.27799">
        <ele>76.08</ele>
        <time>2012-03-18T09:41:32Z</time>
      </trkpt>
      <trkpt lat="47.36966" lon="-0.27778">
        <ele>75.6</ele>
        <time>2012-03-18T09:41:36Z</time>
      </trkpt>
      <trkpt lat="47.36959" lon="-0.27758">
        <ele>74.16</ele>
        <time>2012-03-18T09:41:40Z</time>
      </trkpt>
      <trkpt lat="47.36949" lon="-0.27731">
        <ele>71.76</ele>
        <time>2012-03-18T09:41:44Z</time>
      </trkpt>
      <trkpt lat="47.36936" lon="-0.27691">
        <ele>68.39</ele>
        <time>2012-03-18T09:41:49Z</time>
      </trkpt>
      <trkpt lat="47.36934" lon="-0.27679">
        <ele>66.95</ele>
        <time>2012-03-18T09:41:51Z</time>
      </trkpt>
      <trkpt lat="47.3694" lon="-0.27661">
        <ele>65.03</ele>
        <time>2012-03-18T09:41:56Z</time>
      </trkpt>
      <trkpt lat="47.36933" lon="-0.2765">
        <ele>64.07</ele>
        <time>2012-03-18T09:41:58Z</time>
      </trkpt>
      <trkpt lat="47.36908" lon="-0.27616">
        <ele>61.66</ele>
        <time>2012-03-18T09:42:03Z</time>
      </trkpt>
      <trkpt lat="47.36902" lon="-0.27607">
        <ele>60.7</ele>
        <time>2012-03-18T09:42:04Z</time>
      </trkpt>
      <trkpt lat="47.36889" lon="-0.27559">
        <ele>58.78</ele>
        <time>2012-03-18T09:42:08Z</time>
      </trkpt>
      <trkpt lat="47.36888" lon="-0.27502">
        <ele>56.37</ele>
        <time>2012-03-18T09:42:12Z</time>
      </trkpt>
      <trkpt lat="47.36893" lon="-0.27432">
        <ele>53.97</ele>
        <time>2012-03-18T09:42:17Z</time>
      </trkpt>
      <trkpt lat="47.36894" lon="-0.27394">
        <ele>52.53</ele>
        <time>2012-03-18T09:42:20Z</time>
      </trkpt>
      <trkpt lat="47.36893" lon="-0.27368">
        <ele>51.09</ele>
        <time>2012-03-18T09:42:22Z</time>
      </trkpt>
      <trkpt lat="47.36883" lon="-0.27289">
        <ele>49.16</ele>
        <time>2012-03-18T09:42:28Z</time>
      </trkpt>
      <trkpt lat="47.36863" lon="-0.27186">
        <ele>46.76</ele>
        <time>2012-03-18T09:42:36Z</time>
      </trkpt>
      <trkpt lat="47.36855" lon="-0.27151">
        <ele>45.32</ele>
        <time>2012-03-18T09:42:39Z</time>
      </trkpt>
      <trkpt lat="47.36844" lon="-0.27106">
        <ele>45.32</ele>
        <time>2012-03-18T09:42:44Z</time>
      </trkpt>
      <trkpt lat="47.36843" lon="-0.27099">
        <ele>44.84</ele>
        <time>2012-03-18T09:42:45Z</time>
      </trkpt>
      <trkpt lat="47.36848" lon="-0.27079">
        <ele>45.32</ele>
        <time>2012-03-18T09:42:49Z</time>
      </trkpt>
      <trkpt lat="47.36875" lon="-0.27036">
        <ele>45.32</ele>
        <time>2012-03-18T09:42:57Z</time>
      </trkpt>
      <trkpt lat="47.36896" lon="-0.27007">
        <ele>46.76</ele>
        <time>2012-03-18T09:43:04Z</time>
      </trkpt>
      <trkpt lat="47.36924" lon="-0.26975">
        <ele>45.32</ele>
        <time>2012-03-18T09:43:11Z</time>
      </trkpt>
      <trkpt lat="47.36957" lon="-0.26926">
        <ele>41.95</ele>
        <time>2012-03-18T09:43:18Z</time>
      </trkpt>
      <trkpt lat="47.36985" lon="-0.26861">
        <ele>39.55</ele>
        <time>2012-03-18T09:43:24Z</time>
      </trkpt>
      <trkpt lat="47.37014" lon="-0.26804">
        <ele>35.71</ele>
        <time>2012-03-18T09:43:29Z</time>
      </trkpt>
      <trkpt lat="47.37022" lon="-0.26793">
        <ele>35.71</ele>
        <time>2012-03-18T09:43:30Z</time>
      </trkpt>
      <trkpt lat="47.37052" lon="-0.26749">
        <ele>32.82</ele>
        <time>2012-03-18T09:43:34Z</time>
      </trkpt>
      <trkpt lat="47.37075" lon="-0.26721">
        <ele>31.38</ele>
        <time>2012-03-18T09:43:37Z</time>
      </trkpt>
      <trkpt lat="47.37085" lon="-0.26707">
        <ele>30.42</ele>
        <time>2012-03-18T09:43:39Z</time>
      </trkpt>
      <trkpt lat="47.37089" lon="-0.26687">
        <ele>28.5</ele>
        <time>2012-03-18T09:43:42Z</time>
      </trkpt>
      <trkpt lat="47.37086" lon="-0.26682">
        <ele>28.5</ele>
        <time>2012-03-18T09:43:43Z</time>
      </trkpt>
      <trkpt lat="47.37067" lon="-0.26655">
        <ele>28.5</ele>
        <time>2012-03-18T09:43:48Z</time>
      </trkpt>
      <trkpt lat="47.37049" lon="-0.26615">
        <ele>29.94</ele>
        <time>2012-03-18T09:43:56Z</time>
      </trkpt>
      <trkpt lat="47.37045" lon="-0.26607">
        <ele>30.42</ele>
        <time>2012-03-18T09:43:59Z</time>
      </trkpt>
      <trkpt lat="47.37042" lon="-0.26599">
        <ele>31.38</ele>
        <time>2012-03-18T09:44:03Z</time>
      </trkpt>
      <trkpt lat="47.37038" lon="-0.2659">
        <ele>32.34</ele>
        <time>2012-03-18T09:44:08Z</time>
      </trkpt>
      <trkpt lat="47.37032" lon="-0.26579">
        <ele>33.3</ele>
        <time>2012-03-18T09:44:14Z</time>
      </trkpt>
      <trkpt lat="47.37021" lon="-0.2656">
        <ele>34.74</ele>
        <time>2012-03-18T09:44:21Z</time>
      </trkpt>
      <trkpt lat="47.37004" lon="-0.26534">
        <ele>35.23</ele>
        <time>2012-03-18T09:44:28Z</time>
      </trkpt>
      <trkpt lat="47.36988" lon="-0.26511">
        <ele>35.23</ele>
        <time>2012-03-18T09:44:34Z</time>
      </trkpt>
      <trkpt lat="47.36982" lon="-0.26502">
        <ele>35.23</ele>
        <time>2012-03-18T09:44:36Z</time>
      </trkpt>
      <trkpt lat="47.36972" lon="-0.26489">
        <ele>35.23</ele>
        <time>2012-03-18T09:44:39Z</time>
      </trkpt>
      <trkpt lat="47.36954" lon="-0.2647">
        <ele>34.74</ele>
        <time>2012-03-18T09:44:44Z</time>
      </trkpt>
      <trkpt lat="47.36934" lon="-0.26451">
        <ele>34.74</ele>
        <time>2012-03-18T09:44:50Z</time>
      </trkpt>
      <trkpt lat="47.36908" lon="-0.26434">
        <ele>34.74</ele>
        <time>2012-03-18T09:44:57Z</time>
      </trkpt>
      <trkpt lat="47.36886" lon="-0.26421">
        <ele>32.82</ele>
        <time>2012-03-18T09:45:03Z</time>
      </trkpt>
      <trkpt lat="47.36872" lon="-0.26413">
        <ele>29.94</ele>
        <time>2012-03-18T09:45:09Z</time>
      </trkpt>
      <trkpt lat="47.36871" lon="-0.26412">
        <ele>29.46</ele>
        <time>2012-03-18T09:45:10Z</time>
      </trkpt>
      <trkpt lat="47.36862" lon="-0.2642">
        <ele>29.94</ele>
        <time>2012-03-18T09:45:16Z</time>
      </trkpt>
      <trkpt lat="47.36853" lon="-0.26441">
        <ele>31.86</ele>
        <time>2012-03-18T09:45:23Z</time>
      </trkpt>
      <trkpt lat="47.36838" lon="-0.26474">
        <ele>34.26</ele>
        <time>2012-03-18T09:45:31Z</time>
      </trkpt>
      <trkpt lat="47.3683" lon="-0.26494">
        <ele>36.19</ele>
        <time>2012-03-18T09:45:37Z</time>
      </trkpt>
      <trkpt lat="47.36828" lon="-0.265">
        <ele>37.63</ele>
        <time>2012-03-18T09:45:39Z</time>
      </trkpt>
      <trkpt lat="47.36824" lon="-0.2651">
        <ele>39.07</ele>
        <time>2012-03-18T09:45:43Z</time>
      </trkpt>
      <trkpt lat="47.36815" lon="-0.26529">
        <ele>40.51</ele>
        <time>2012-03-18T09:45:50Z</time>
      </trkpt>
      <trkpt lat="47.36809" lon="-0.2654">
        <ele>41.95</ele>
        <time>2012-03-18T09:45:56Z</time>
      </trkpt>
      <trkpt lat="47.36809" lon="-0.2654">
        <ele>41.95</ele>
        <time>2012-03-18T09:46:04Z</time>
      </trkpt>
      <trkpt lat="47.36809" lon="-0.26541">
        <ele>41.95</ele>
        <time>2012-03-18T09:46:16Z</time>
      </trkpt>
      <trkpt lat="47.36809" lon="-0.26541">
        <ele>41.95</ele>
        <time>2012-03-18T09:46:24Z</time>
      </trkpt>
      <trkpt lat="47.36806" lon="-0.26544">
        <ele>42.44</ele>
        <time>2012-03-18T09:46:30Z</time>
      </trkpt>
      <trkpt lat="47.36797" lon="-0.26563">
        <ele>44.36</ele>
        <time>2012-03-18T09:46:38Z</time>
      </trkpt>
      <trkpt lat="47.36795" lon="-0.26565">
        <ele>44.36</ele>
        <time>2012-03-18T09:46:39Z</time>
      </trkpt>
      <trkpt lat="47.36781" lon="-0.26583">
        <ele>46.28</ele>
        <time>2012-03-18T09:46:48Z</time>
      </trkpt>
      <trkpt lat="47.36767" lon="-0.26595">
        <ele>48.2</ele>
        <time>2012-03-18T09:46:56Z</time>
      </trkpt>
      <trkpt lat="47.36757" lon="-0.26601">
        <ele>49.65</ele>
        <time>2012-03-18T09:47:02Z</time>
      </trkpt>
      <trkpt lat="47.36747" lon="-0.26607">
        <ele>51.09</ele>
        <time>2012-03-18T09:47:08Z</time>
      </trkpt>
      <trkpt lat="47.36734" lon="-0.26614">
        <ele>52.53</ele>
        <time>2012-03-18T09:47:16Z</time>
      </trkpt>
      <trkpt lat="47.36719" lon="-0.26623">
        <ele>53.97</ele>
        <time>2012-03-18T09:47:25Z</time>
      </trkpt>
      <trkpt lat="47.36703" lon="-0.26631">
        <ele>53.97</ele>
        <time>2012-03-18T09:47:33Z</time>
      </trkpt>
      <trkpt lat="47.36688" lon="-0.26639">
        <ele>54.45</ele>
        <time>2012-03-18T09:47:41Z</time>
      </trkpt>
      <trkpt lat="47.36675" lon="-0.2665">
        <ele>56.37</ele>
        <time>2012-03-18T09:47:49Z</time>
      </trkpt>
      <trkpt lat="47.36658" lon="-0.26665">
        <ele>57.34</ele>
        <time>2012-03-18T09:47:58Z</time>
      </trkpt>
      <trkpt lat="47.36638" lon="-0.26691">
        <ele>58.3</ele>
        <time>2012-03-18T09:48:08Z</time>
      </trkpt>
      <trkpt lat="47.36629" lon="-0.26709">
        <ele>59.74</ele>
        <time>2012-03-18T09:48:14Z</time>
      </trkpt>
      <trkpt lat="47.36618" lon="-0.26735">
        <ele>61.18</ele>
        <time>2012-03-18T09:48:22Z</time>
      </trkpt>
      <trkpt lat="47.36612" lon="-0.2675">
        <ele>62.14</ele>
        <time>2012-03-18T09:48:28Z</time>
      </trkpt>
      <trkpt lat="47.36605" lon="-0.26775">
        <ele>62.14</ele>
        <time>2012-03-18T09:48:33Z</time>
      </trkpt>
      <trkpt lat="47.36593" lon="-0.26797">
        <ele>61.66</ele>
        <time>2012-03-18T09:48:37Z</time>
      </trkpt>
      <trkpt lat="47.36569" lon="-0.26839">
        <ele>58.3</ele>
        <time>2012-03-18T09:48:43Z</time>
      </trkpt>
      <trkpt lat="47.36556" lon="-0.26865">
        <ele>55.41</ele>
        <time>2012-03-18T09:48:46Z</time>
      </trkpt>
      <trkpt lat="47.36532" lon="-0.26901">
        <ele>51.09</ele>
        <time>2012-03-18T09:48:50Z</time>
      </trkpt>
      <trkpt lat="47.36504" lon="-0.26935">
        <ele>47.24</ele>
        <time>2012-03-18T09:48:54Z</time>
      </trkpt>
      <trkpt lat="47.3648" lon="-0.26962">
        <ele>43.88</ele>
        <time>2012-03-18T09:48:57Z</time>
      </trkpt>
      <trkpt lat="47.36463" lon="-0.26983">
        <ele>40.99</ele>
        <time>2012-03-18T09:48:59Z</time>
      </trkpt>
      <trkpt lat="47.36428" lon="-0.27025">
        <ele>36.67</ele>
        <time>2012-03-18T09:49:03Z</time>
      </trkpt>
      <trkpt lat="47.3639" lon="-0.2707">
        <ele>36.67</ele>
        <time>2012-03-18T09:49:08Z</time>
      </trkpt>
      <trkpt lat="47.36342" lon="-0.27127">
        <ele>35.23</ele>
        <time>2012-03-18T09:49:16Z</time>
      </trkpt>
      <trkpt lat="47.36297" lon="-0.27181">
        <ele>32.82</ele>
        <time>2012-03-18T09:49:24Z</time>
      </trkpt>
      <trkpt lat="47.36252" lon="-0.27228">
        <ele>31.86</ele>
        <time>2012-03-18T09:49:32Z</time>
      </trkpt>
      <trkpt lat="47.36228" lon="-0.27238">
        <ele>31.38</ele>
        <time>2012-03-18T09:49:36Z</time>
      </trkpt>
      <trkpt lat="47.36198" lon="-0.27244">
        <ele>30.9</ele>
        <time>2012-03-18T09:49:41Z</time>
      </trkpt>
      <trkpt lat="47.36178" lon="-0.27263">
        <ele>31.38</ele>
        <time>2012-03-18T09:49:46Z</time>
      </trkpt>
      <trkpt lat="47.36177" lon="-0.27276">
        <ele>31.86</ele>
        <time>2012-03-18T09:49:48Z</time>
      </trkpt>
      <trkpt lat="47.36181" lon="-0.27312">
        <ele>34.74</ele>
        <time>2012-03-18T09:49:55Z</time>
      </trkpt>
      <trkpt lat="47.36184" lon="-0.2734">
        <ele>36.19</ele>
        <time>2012-03-18T09:50:01Z</time>
      </trkpt>
      <trkpt lat="47.36185" lon="-0.27349">
        <ele>36.67</ele>
        <time>2012-03-18T09:50:03Z</time>
      </trkpt>
      <trkpt lat="47.36179" lon="-0.27365">
        <ele>39.07</ele>
        <time>2012-03-18T09:50:08Z</time>
      </trkpt>
      <trkpt lat="47.36176" lon="-0.27366">
        <ele>39.55</ele>
        <time>2012-03-18T09:50:09Z</time>
      </trkpt>
      <trkpt lat="47.3615" lon="-0.27363">
        <ele>40.03</ele>
        <time>2012-03-18T09:50:17Z</time>
      </trkpt>
      <trkpt lat="47.36132" lon="-0.27363">
        <ele>40.99</ele>
        <time>2012-03-18T09:50:24Z</time>
      </trkpt>
      <trkpt lat="47.36127" lon="-0.27361">
        <ele>41.95</ele>
        <time>2012-03-18T09:50:30Z</time>
      </trkpt>
      <trkpt lat="47.36127" lon="-0.27361">
        <ele>40.99</ele>
        <time>2012-03-18T09:50:40Z</time>
      </trkpt>
      <trkpt lat="47.36123" lon="-0.27361">
        <ele>41.47</ele>
        <time>2012-03-18T09:50:46Z</time>
      </trkpt>
      <trkpt lat="47.36111" lon="-0.27358">
        <ele>41.47</ele>
        <time>2012-03-18T09:50:51Z</time>
      </trkpt>
      <trkpt lat="47.36095" lon="-0.27357">
        <ele>41.47</ele>
        <time>2012-03-18T09:50:57Z</time>
      </trkpt>
      <trkpt lat="47.36094" lon="-0.27357">
        <ele>40.51</ele>
        <time>2012-03-18T09:51:01Z</time>
      </trkpt>
      <trkpt lat="47.36094" lon="-0.27357">
        <ele>40.51</ele>
        <time>2012-03-18T09:51:10Z</time>
      </trkpt>
      <trkpt lat="47.36078" lon="-0.2736">
        <ele>40.99</ele>
        <time>2012-03-18T09:51:16Z</time>
      </trkpt>
      <trkpt lat="47.3606" lon="-0.27363">
        <ele>40.03</ele>
        <time>2012-03-18T09:51:20Z</time>
      </trkpt>
      <trkpt lat="47.36026" lon="-0.27377">
        <ele>36.67</ele>
        <time>2012-03-18T09:51:26Z</time>
      </trkpt>
      <trkpt lat="47.35998" lon="-0.27373">
        <ele>35.23</ele>
        <time>2012-03-18T09:51:30Z</time>
      </trkpt>
      <trkpt lat="47.35968" lon="-0.27378">
        <ele>35.71</ele>
        <time>2012-03-18T09:51:35Z</time>
      </trkpt>
      <trkpt lat="47.35944" lon="-0.27375">
        <ele>35.71</ele>
        <time>2012-03-18T09:51:40Z</time>
      </trkpt>
      <trkpt lat="47.35937" lon="-0.27348">
        <ele>36.19</ele>
        <time>2012-03-18T09:51:44Z</time>
      </trkpt>
      <trkpt lat="47.35937" lon="-0.2732">
        <ele>36.67</ele>
        <time>2012-03-18T09:51:48Z</time>
      </trkpt>
      <trkpt lat="47.35941" lon="-0.273">
        <ele>37.15</ele>
        <time>2012-03-18T09:51:51Z</time>
      </trkpt>
      <trkpt lat="47.35951" lon="-0.27245">
        <ele>36.19</ele>
        <time>2012-03-18T09:51:58Z</time>
      </trkpt>
      <trkpt lat="47.35956" lon="-0.27206">
        <ele>34.74</ele>
        <time>2012-03-18T09:52:02Z</time>
      </trkpt>
      <trkpt lat="47.35954" lon="-0.27165">
        <ele>34.26</ele>
        <time>2012-03-18T09:52:06Z</time>
      </trkpt>
      <trkpt lat="47.35955" lon="-0.27078">
        <ele>33.3</ele>
        <time>2012-03-18T09:52:14Z</time>
      </trkpt>
      <trkpt lat="47.3596" lon="-0.2703">
        <ele>34.26</ele>
        <time>2012-03-18T09:52:19Z</time>
      </trkpt>
      <trkpt lat="47.35981" lon="-0.26967">
        <ele>35.23</ele>
        <time>2012-03-18T09:52:27Z</time>
      </trkpt>
      <trkpt lat="47.36005" lon="-0.26892">
        <ele>35.23</ele>
        <time>2012-03-18T09:52:37Z</time>
      </trkpt>
      <trkpt lat="47.36008" lon="-0.26884">
        <ele>34.74</ele>
        <time>2012-03-18T09:52:38Z</time>
      </trkpt>
      <trkpt lat="47.36045" lon="-0.26817">
        <ele>33.3</ele>
        <time>2012-03-18T09:52:47Z</time>
      </trkpt>
      <trkpt lat="47.36079" lon="-0.26767">
        <ele>32.34</ele>
        <time>2012-03-18T09:52:55Z</time>
      </trkpt>
      <trkpt lat="47.36113" lon="-0.26709">
        <ele>31.38</ele>
        <time>2012-03-18T09:53:04Z</time>
      </trkpt>
      <trkpt lat="47.3612" lon="-0.26697">
        <ele>30.42</ele>
        <time>2012-03-18T09:53:06Z</time>
      </trkpt>
      <trkpt lat="47.3612" lon="-0.26668">
        <ele>30.42</ele>
        <time>2012-03-18T09:53:10Z</time>
      </trkpt>
      <trkpt lat="47.36114" lon="-0.26658">
        <ele>31.86</ele>
        <time>2012-03-18T09:53:12Z</time>
      </trkpt>
      <trkpt lat="47.36107" lon="-0.26651">
        <ele>32.82</ele>
        <time>2012-03-18T09:53:14Z</time>
      </trkpt>
      <trkpt lat="47.36085" lon="-0.26623">
        <ele>34.26</ele>
        <time>2012-03-18T09:53:20Z</time>
      </trkpt>
      <trkpt lat="47.36078" lon="-0.26614">
        <ele>34.74</ele>
        <time>2012-03-18T09:53:22Z</time>
      </trkpt>
      <trkpt lat="47.36071" lon="-0.26606">
        <ele>34.74</ele>
        <time>2012-03-18T09:53:24Z</time>
      </trkpt>
      <trkpt lat="47.3604" lon="-0.26563">
        <ele>36.19</ele>
        <time>2012-03-18T09:53:34Z</time>
      </trkpt>
      <trkpt lat="47.36022" lon="-0.26529">
        <ele>37.63</ele>
        <time>2012-03-18T09:53:42Z</time>
      </trkpt>
      <trkpt lat="47.3601" lon="-0.26504">
        <ele>39.07</ele>
        <time>2012-03-18T09:53:48Z</time>
      </trkpt>
      <trkpt lat="47.3599" lon="-0.26464">
        <ele>40.99</ele>
        <time>2012-03-18T09:53:58Z</time>
      </trkpt>
      <trkpt lat="47.35971" lon="-0.26428">
        <ele>41.95</ele>
        <time>2012-03-18T09:54:07Z</time>
      </trkpt>
      <trkpt lat="47.35955" lon="-0.26397">
        <ele>42.92</ele>
        <time>2012-03-18T09:54:15Z</time>
      </trkpt>
      <trkpt lat="47.35936" lon="-0.26363">
        <ele>42.92</ele>
        <time>2012-03-18T09:54:23Z</time>
      </trkpt>
      <trkpt lat="47.35909" lon="-0.26324">
        <ele>42.92</ele>
        <time>2012-03-18T09:54:32Z</time>
      </trkpt>
      <trkpt lat="47.3588" lon="-0.26282">
        <ele>43.4</ele>
        <time>2012-03-18T09:54:41Z</time>
      </trkpt>
      <trkpt lat="47.35874" lon="-0.26273">
        <ele>42.92</ele>
        <time>2012-03-18T09:54:43Z</time>
      </trkpt>
      <trkpt lat="47.35861" lon="-0.26254">
        <ele>43.4</ele>
        <time>2012-03-18T09:54:47Z</time>
      </trkpt>
      <trkpt lat="47.35851" lon="-0.26241">
        <ele>43.4</ele>
        <time>2012-03-18T09:54:50Z</time>
      </trkpt>
      <trkpt lat="47.35832" lon="-0.26223">
        <ele>43.88</ele>
        <time>2012-03-18T09:54:55Z</time>
      </trkpt>
      <trkpt lat="47.35796" lon="-0.26196">
        <ele>43.88</ele>
        <time>2012-03-18T09:55:05Z</time>
      </trkpt>
      <trkpt lat="47.35789" lon="-0.2618">
        <ele>41.95</ele>
        <time>2012-03-18T09:55:08Z</time>
      </trkpt>
      <trkpt lat="47.35795" lon="-0.26167">
        <ele>40.99</ele>
        <time>2012-03-18T09:55:10Z</time>
      </trkpt>
      <trkpt lat="47.35826" lon="-0.26116">
        <ele>36.67</ele>
        <time>2012-03-18T09:55:16Z</time>
      </trkpt>
      <trkpt lat="47.35832" lon="-0.26064">
        <ele>34.26</ele>
        <time>2012-03-18T09:55:20Z</time>
      </trkpt>
      <trkpt lat="47.35823" lon="-0.26027">
        <ele>31.86</ele>
        <time>2012-03-18T09:55:23Z</time>
      </trkpt>
      <trkpt lat="47.35808" lon="-0.25999">
        <ele>31.38</ele>
        <time>2012-03-18T09:55:26Z</time>
      </trkpt>
      <trkpt lat="47.3579" lon="-0.25965">
        <ele>28.5</ele>
        <time>2012-03-18T09:55:30Z</time>
      </trkpt>
      <trkpt lat="47.35788" lon="-0.25925">
        <ele>27.05</ele>
        <time>2012-03-18T09:55:35Z</time>
      </trkpt>
      <trkpt lat="47.35795" lon="-0.25912">
        <ele>26.57</ele>
        <time>2012-03-18T09:55:37Z</time>
      </trkpt>
      <trkpt lat="47.35823" lon="-0.25861">
        <ele>24.17</ele>
        <time>2012-03-18T09:55:44Z</time>
      </trkpt>
      <trkpt lat="47.35827" lon="-0.25855">
        <ele>23.21</ele>
        <time>2012-03-18T09:55:45Z</time>
      </trkpt>
      <trkpt lat="47.35838" lon="-0.2583">
        <ele>20.81</ele>
        <time>2012-03-18T09:55:49Z</time>
      </trkpt>
      <trkpt lat="47.35843" lon="-0.25823">
        <ele>20.32</ele>
        <time>2012-03-18T09:55:51Z</time>
      </trkpt>
      <trkpt lat="47.35839" lon="-0.25807">
        <ele>20.81</ele>
        <time>2012-03-18T09:55:55Z</time>
      </trkpt>
      <trkpt lat="47.35813" lon="-0.25759">
        <ele>20.32</ele>
        <time>2012-03-18T09:56:03Z</time>
      </trkpt>
      <trkpt lat="47.358" lon="-0.25731">
        <ele>20.32</ele>
        <time>2012-03-18T09:56:07Z</time>
      </trkpt>
      <trkpt lat="47.35784" lon="-0.25695">
        <ele>19.84</ele>
        <time>2012-03-18T09:56:13Z</time>
      </trkpt>
      <trkpt lat="47.35795" lon="-0.25671">
        <ele>19.36</ele>
        <time>2012-03-18T09:56:18Z</time>
      </trkpt>
      <trkpt lat="47.35812" lon="-0.25654">
        <ele>19.36</ele>
        <time>2012-03-18T09:56:23Z</time>
      </trkpt>
      <trkpt lat="47.35834" lon="-0.25652">
        <ele>19.84</ele>
        <time>2012-03-18T09:56:28Z</time>
      </trkpt>
      <trkpt lat="47.35856" lon="-0.25666">
        <ele>19.36</ele>
        <time>2012-03-18T09:56:33Z</time>
      </trkpt>
      <trkpt lat="47.35877" lon="-0.25662">
        <ele>19.36</ele>
        <time>2012-03-18T09:56:38Z</time>
      </trkpt>
      <trkpt lat="47.35879" lon="-0.25658">
        <ele>18.88</ele>
        <time>2012-03-18T09:56:39Z</time>
      </trkpt>
      <trkpt lat="47.35897" lon="-0.25628">
        <ele>18.88</ele>
        <time>2012-03-18T09:56:45Z</time>
      </trkpt>
      <trkpt lat="47.359" lon="-0.25622">
        <ele>18.88</ele>
        <time>2012-03-18T09:56:46Z</time>
      </trkpt>
      <trkpt lat="47.35926" lon="-0.25585">
        <ele>18.88</ele>
        <time>2012-03-18T09:56:54Z</time>
      </trkpt>
      <trkpt lat="47.3593" lon="-0.2558">
        <ele>18.88</ele>
        <time>2012-03-18T09:56:55Z</time>
      </trkpt>
      <trkpt lat="47.35948" lon="-0.25555">
        <ele>19.36</ele>
        <time>2012-03-18T09:57:01Z</time>
      </trkpt>
      <trkpt lat="47.35953" lon="-0.25545">
        <ele>19.84</ele>
        <time>2012-03-18T09:57:03Z</time>
      </trkpt>
      <trkpt lat="47.3595" lon="-0.2553">
        <ele>20.32</ele>
        <time>2012-03-18T09:57:07Z</time>
      </trkpt>
      <trkpt lat="47.35935" lon="-0.25519">
        <ele>20.32</ele>
        <time>2012-03-18T09:57:13Z</time>
      </trkpt>
      <trkpt lat="47.35931" lon="-0.25517">
        <ele>20.32</ele>
        <time>2012-03-18T09:57:14Z</time>
      </trkpt>
      <trkpt lat="47.35925" lon="-0.25499">
        <ele>19.84</ele>
        <time>2012-03-18T09:57:18Z</time>
      </trkpt>
      <trkpt lat="47.35918" lon="-0.25473">
        <ele>20.32</ele>
        <time>2012-03-18T09:57:23Z</time>
      </trkpt>
      <trkpt lat="47.35908" lon="-0.25457">
        <ele>20.81</ele>
        <time>2012-03-18T09:57:27Z</time>
      </trkpt>
      <trkpt lat="47.35893" lon="-0.25443">
        <ele>20.81</ele>
        <time>2012-03-18T09:57:32Z</time>
      </trkpt>
      <trkpt lat="47.35885" lon="-0.25433">
        <ele>19.84</ele>
        <time>2012-03-18T09:57:34Z</time>
      </trkpt>
      <trkpt lat="47.35869" lon="-0.25413">
        <ele>20.32</ele>
        <time>2012-03-18T09:57:38Z</time>
      </trkpt>
      <trkpt lat="47.35852" lon="-0.25394">
        <ele>20.32</ele>
        <time>2012-03-18T09:57:42Z</time>
      </trkpt>
      <trkpt lat="47.35831" lon="-0.25366">
        <ele>20.32</ele>
        <time>2012-03-18T09:57:48Z</time>
      </trkpt>
      <trkpt lat="47.3582" lon="-0.25352">
        <ele>20.32</ele>
        <time>2012-03-18T09:57:51Z</time>
      </trkpt>
      <trkpt lat="47.35788" lon="-0.25308">
        <ele>20.32</ele>
        <time>2012-03-18T09:58:00Z</time>
      </trkpt>
      <trkpt lat="47.35785" lon="-0.25302">
        <ele>19.84</ele>
        <time>2012-03-18T09:58:01Z</time>
      </trkpt>
      <trkpt lat="47.35759" lon="-0.25264">
        <ele>20.81</ele>
        <time>2012-03-18T09:58:08Z</time>
      </trkpt>
      <trkpt lat="47.35746" lon="-0.2525">
        <ele>20.81</ele>
        <time>2012-03-18T09:58:11Z</time>
      </trkpt>
      <trkpt lat="47.35734" lon="-0.25237">
        <ele>19.36</ele>
        <time>2012-03-18T09:58:14Z</time>
      </trkpt>
      <trkpt lat="47.35714" lon="-0.2522">
        <ele>19.84</ele>
        <time>2012-03-18T09:58:20Z</time>
      </trkpt>
      <trkpt lat="47.35698" lon="-0.25232">
        <ele>19.84</ele>
        <time>2012-03-18T09:58:25Z</time>
      </trkpt>
      <trkpt lat="47.35685" lon="-0.2524">
        <ele>19.84</ele>
        <time>2012-03-18T09:58:28Z</time>
      </trkpt>
      <trkpt lat="47.35678" lon="-0.25246">
        <ele>19.84</ele>
        <time>2012-03-18T09:58:30Z</time>
      </trkpt>
      <trkpt lat="47.35648" lon="-0.25265">
        <ele>19.36</ele>
        <time>2012-03-18T09:58:37Z</time>
      </trkpt>
      <trkpt lat="47.35631" lon="-0.25276">
        <ele>19.36</ele>
        <time>2012-03-18T09:58:42Z</time>
      </trkpt>
      <trkpt lat="47.35611" lon="-0.25302">
        <ele>19.84</ele>
        <time>2012-03-18T09:58:50Z</time>
      </trkpt>
      <trkpt lat="47.35593" lon="-0.2532">
        <ele>21.29</ele>
        <time>2012-03-18T09:58:57Z</time>
      </trkpt>
      <trkpt lat="47.35579" lon="-0.25333">
        <ele>23.21</ele>
        <time>2012-03-18T09:59:03Z</time>
      </trkpt>
      <trkpt lat="47.35563" lon="-0.25347">
        <ele>24.17</ele>
        <time>2012-03-18T09:59:11Z</time>
      </trkpt>
      <trkpt lat="47.35551" lon="-0.25359">
        <ele>26.09</ele>
        <time>2012-03-18T09:59:18Z</time>
      </trkpt>
      <trkpt lat="47.35538" lon="-0.25374">
        <ele>28.5</ele>
        <time>2012-03-18T09:59:26Z</time>
      </trkpt>
      <trkpt lat="47.35523" lon="-0.25388">
        <ele>30.9</ele>
        <time>2012-03-18T09:59:35Z</time>
      </trkpt>
      <trkpt lat="47.35513" lon="-0.25384">
        <ele>33.3</ele>
        <time>2012-03-18T09:59:41Z</time>
      </trkpt>
      <trkpt lat="47.35507" lon="-0.25371">
        <ele>33.78</ele>
        <time>2012-03-18T09:59:48Z</time>
      </trkpt>
      <trkpt lat="47.35505" lon="-0.25367">
        <ele>33.78</ele>
        <time>2012-03-18T09:59:50Z</time>
      </trkpt>
      <trkpt lat="47.35498" lon="-0.2537">
        <ele>34.74</ele>
        <time>2012-03-18T09:59:55Z</time>
      </trkpt>
      <trkpt lat="47.35499" lon="-0.25371">
        <ele>34.26</ele>
        <time>2012-03-18T09:59:56Z</time>
      </trkpt>
      <trkpt lat="47.35508" lon="-0.25392">
        <ele>36.19</ele>
        <time>2012-03-18T10:00:05Z</time>
      </trkpt>
      <trkpt lat="47.35509" lon="-0.25395">
        <ele>36.19</ele>
        <time>2012-03-18T10:00:06Z</time>
      </trkpt>
      <trkpt lat="47.35503" lon="-0.25408">
        <ele>36.67</ele>
        <time>2012-03-18T10:00:12Z</time>
      </trkpt>
      <trkpt lat="47.35487" lon="-0.25419">
        <ele>38.59</ele>
        <time>2012-03-18T10:00:21Z</time>
      </trkpt>
      <trkpt lat="47.35472" lon="-0.25432">
        <ele>40.03</ele>
        <time>2012-03-18T10:00:30Z</time>
      </trkpt>
      <trkpt lat="47.3546" lon="-0.25447">
        <ele>40.99</ele>
        <time>2012-03-18T10:00:38Z</time>
      </trkpt>
      <trkpt lat="47.35454" lon="-0.25454">
        <ele>42.92</ele>
        <time>2012-03-18T10:00:42Z</time>
      </trkpt>
      <trkpt lat="47.35441" lon="-0.25469">
        <ele>44.36</ele>
        <time>2012-03-18T10:00:51Z</time>
      </trkpt>
      <trkpt lat="47.35428" lon="-0.2548">
        <ele>45.32</ele>
        <time>2012-03-18T10:00:59Z</time>
      </trkpt>
      <trkpt lat="47.35415" lon="-0.25496">
        <ele>47.72</ele>
        <time>2012-03-18T10:01:08Z</time>
      </trkpt>
      <trkpt lat="47.35404" lon="-0.25512">
        <ele>49.16</ele>
        <time>2012-03-18T10:01:17Z</time>
      </trkpt>
      <trkpt lat="47.35392" lon="-0.25525">
        <ele>51.57</ele>
        <time>2012-03-18T10:01:25Z</time>
      </trkpt>
      <trkpt lat="47.35381" lon="-0.25537">
        <ele>51.57</ele>
        <time>2012-03-18T10:01:33Z</time>
      </trkpt>
      <trkpt lat="47.35368" lon="-0.25547">
        <ele>51.57</ele>
        <time>2012-03-18T10:01:39Z</time>
      </trkpt>
      <trkpt lat="47.35345" lon="-0.25555">
        <ele>52.53</ele>
        <time>2012-03-18T10:01:48Z</time>
      </trkpt>
      <trkpt lat="47.35323" lon="-0.25567">
        <ele>53.01</ele>
        <time>2012-03-18T10:01:57Z</time>
      </trkpt>
      <trkpt lat="47.35305" lon="-0.25578">
        <ele>53.49</ele>
        <time>2012-03-18T10:02:04Z</time>
      </trkpt>
      <trkpt lat="47.35285" lon="-0.25582">
        <ele>54.45</ele>
        <time>2012-03-18T10:02:12Z</time>
      </trkpt>
      <trkpt lat="47.3527" lon="-0.25578">
        <ele>55.41</ele>
        <time>2012-03-18T10:02:17Z</time>
      </trkpt>
      <trkpt lat="47.35254" lon="-0.25573">
        <ele>56.86</ele>
        <time>2012-03-18T10:02:24Z</time>
      </trkpt>
      <trkpt lat="47.35237" lon="-0.2557">
        <ele>59.26</ele>
        <time>2012-03-18T10:02:31Z</time>
      </trkpt>
      <trkpt lat="47.35224" lon="-0.2557">
        <ele>60.22</ele>
        <time>2012-03-18T10:02:36Z</time>
      </trkpt>
      <trkpt lat="47.35208" lon="-0.25572">
        <ele>62.62</ele>
        <time>2012-03-18T10:02:43Z</time>
      </trkpt>
      <trkpt lat="47.35192" lon="-0.25576">
        <ele>63.58</ele>
        <time>2012-03-18T10:02:51Z</time>
      </trkpt>
      <trkpt lat="47.35184" lon="-0.25576">
        <ele>64.07</ele>
        <time>2012-03-18T10:02:55Z</time>
      </trkpt>
      <trkpt lat="47.35166" lon="-0.25569">
        <ele>65.03</ele>
        <time>2012-03-18T10:03:04Z</time>
      </trkpt>
      <trkpt lat="47.35144" lon="-0.25558">
        <ele>65.99</ele>
        <time>2012-03-18T10:03:13Z</time>
      </trkpt>
      <trkpt lat="47.35124" lon="-0.25551">
        <ele>66.95</ele>
        <time>2012-03-18T10:03:20Z</time>
      </trkpt>
      <trkpt lat="47.35093" lon="-0.25543">
        <ele>68.39</ele>
        <time>2012-03-18T10:03:32Z</time>
      </trkpt>
      <trkpt lat="47.35072" lon="-0.25537">
        <ele>68.87</ele>
        <time>2012-03-18T10:03:39Z</time>
      </trkpt>
      <trkpt lat="47.35042" lon="-0.25521">
        <ele>70.31</ele>
        <time>2012-03-18T10:03:49Z</time>
      </trkpt>
      <trkpt lat="47.35016" lon="-0.25507">
        <ele>71.27</ele>
        <time>2012-03-18T10:03:58Z</time>
      </trkpt>
      <trkpt lat="47.34991" lon="-0.25493">
        <ele>72.72</ele>
        <time>2012-03-18T10:04:07Z</time>
      </trkpt>
      <trkpt lat="47.34965" lon="-0.25478">
        <ele>73.2</ele>
        <time>2012-03-18T10:04:16Z</time>
      </trkpt>
      <trkpt lat="47.34945" lon="-0.25466">
        <ele>73.2</ele>
        <time>2012-03-18T10:04:22Z</time>
      </trkpt>
      <trkpt lat="47.34908" lon="-0.25441">
        <ele>72.72</ele>
        <time>2012-03-18T10:04:32Z</time>
      </trkpt>
      <trkpt lat="47.34887" lon="-0.25429">
        <ele>73.2</ele>
        <time>2012-03-18T10:04:38Z</time>
      </trkpt>
      <trkpt lat="47.34883" lon="-0.25428">
        <ele>72.72</ele>
        <time>2012-03-18T10:04:39Z</time>
      </trkpt>
      <trkpt lat="47.34844" lon="-0.25419">
        <ele>72.72</ele>
        <time>2012-03-18T10:04:48Z</time>
      </trkpt>
      <trkpt lat="47.34805" lon="-0.2542">
        <ele>72.72</ele>
        <time>2012-03-18T10:04:57Z</time>
      </trkpt>
      <trkpt lat="47.34776" lon="-0.25422">
        <ele>72.24</ele>
        <time>2012-03-18T10:05:04Z</time>
      </trkpt>
      <trkpt lat="47.34754" lon="-0.25415">
        <ele>71.76</ele>
        <time>2012-03-18T10:05:10Z</time>
      </trkpt>
      <trkpt lat="47.34739" lon="-0.25396">
        <ele>71.76</ele>
        <time>2012-03-18T10:05:15Z</time>
      </trkpt>
      <trkpt lat="47.3473" lon="-0.25398">
        <ele>71.27</ele>
        <time>2012-03-18T10:05:17Z</time>
      </trkpt>
      <trkpt lat="47.34681" lon="-0.25418">
        <ele>70.31</ele>
        <time>2012-03-18T10:05:27Z</time>
      </trkpt>
      <trkpt lat="47.3463" lon="-0.25439">
        <ele>68.39</ele>
        <time>2012-03-18T10:05:37Z</time>
      </trkpt>
      <trkpt lat="47.34578" lon="-0.25461">
        <ele>66.95</ele>
        <time>2012-03-18T10:05:47Z</time>
      </trkpt>
      <trkpt lat="47.34553" lon="-0.25472">
        <ele>65.51</ele>
        <time>2012-03-18T10:05:52Z</time>
      </trkpt>
      <trkpt lat="47.34502" lon="-0.25494">
        <ele>64.55</ele>
        <time>2012-03-18T10:06:02Z</time>
      </trkpt>
      <trkpt lat="47.34457" lon="-0.25513">
        <ele>64.07</ele>
        <time>2012-03-18T10:06:11Z</time>
      </trkpt>
      <trkpt lat="47.34428" lon="-0.25526">
        <ele>64.07</ele>
        <time>2012-03-18T10:06:17Z</time>
      </trkpt>
      <trkpt lat="47.34394" lon="-0.25539">
        <ele>63.1</ele>
        <time>2012-03-18T10:06:24Z</time>
      </trkpt>
      <trkpt lat="47.34379" lon="-0.25528">
        <ele>62.14</ele>
        <time>2012-03-18T10:06:28Z</time>
      </trkpt>
      <trkpt lat="47.34377" lon="-0.25522">
        <ele>62.14</ele>
        <time>2012-03-18T10:06:29Z</time>
      </trkpt>
      <trkpt lat="47.34363" lon="-0.25479">
        <ele>62.62</ele>
        <time>2012-03-18T10:06:36Z</time>
      </trkpt>
      <trkpt lat="47.34341" lon="-0.25409">
        <ele>61.18</ele>
        <time>2012-03-18T10:06:46Z</time>
      </trkpt>
      <trkpt lat="47.34336" lon="-0.25393">
        <ele>60.7</ele>
        <time>2012-03-18T10:06:48Z</time>
      </trkpt>
      <trkpt lat="47.34312" lon="-0.25365">
        <ele>60.22</ele>
        <time>2012-03-18T10:06:53Z</time>
      </trkpt>
      <trkpt lat="47.34306" lon="-0.25365">
        <ele>60.22</ele>
        <time>2012-03-18T10:06:54Z</time>
      </trkpt>
      <trkpt lat="47.34282" lon="-0.25363">
        <ele>59.26</ele>
        <time>2012-03-18T10:06:58Z</time>
      </trkpt>
      <trkpt lat="47.34263" lon="-0.25344">
        <ele>59.26</ele>
        <time>2012-03-18T10:07:03Z</time>
      </trkpt>
      <trkpt lat="47.34258" lon="-0.25334">
        <ele>59.26</ele>
        <time>2012-03-18T10:07:05Z</time>
      </trkpt>
      <trkpt lat="47.3424" lon="-0.25302">
        <ele>58.78</ele>
        <time>2012-03-18T10:07:11Z</time>
      </trkpt>
      <trkpt lat="47.34228" lon="-0.2529">
        <ele>58.3</ele>
        <time>2012-03-18T10:07:14Z</time>
      </trkpt>
      <trkpt lat="47.3422" lon="-0.25285">
        <ele>58.78</ele>
        <time>2012-03-18T10:07:16Z</time>
      </trkpt>
      <trkpt lat="47.34207" lon="-0.2528">
        <ele>58.78</ele>
        <time>2012-03-18T10:07:19Z</time>
      </trkpt>
      <trkpt lat="47.34187" lon="-0.25269">
        <ele>59.26</ele>
        <time>2012-03-18T10:07:24Z</time>
      </trkpt>
      <trkpt lat="47.34167" lon="-0.25271">
        <ele>59.26</ele>
        <time>2012-03-18T10:07:29Z</time>
      </trkpt>
      <trkpt lat="47.34153" lon="-0.25278">
        <ele>58.78</ele>
        <time>2012-03-18T10:07:33Z</time>
      </trkpt>
      <trkpt lat="47.34125" lon="-0.25292">
        <ele>58.78</ele>
        <time>2012-03-18T10:07:40Z</time>
      </trkpt>
      <trkpt lat="47.34117" lon="-0.25294">
        <ele>58.3</ele>
        <time>2012-03-18T10:07:42Z</time>
      </trkpt>
      <trkpt lat="47.341" lon="-0.25298">
        <ele>56.86</ele>
        <time>2012-03-18T10:07:46Z</time>
      </trkpt>
      <trkpt lat="47.34082" lon="-0.25295">
        <ele>55.41</ele>
        <time>2012-03-18T10:07:49Z</time>
      </trkpt>
      <trkpt lat="47.3407" lon="-0.25288">
        <ele>54.45</ele>
        <time>2012-03-18T10:07:51Z</time>
      </trkpt>
      <trkpt lat="47.3405" lon="-0.25273">
        <ele>53.97</ele>
        <time>2012-03-18T10:07:55Z</time>
      </trkpt>
      <trkpt lat="47.34026" lon="-0.25272">
        <ele>53.01</ele>
        <time>2012-03-18T10:08:00Z</time>
      </trkpt>
      <trkpt lat="47.34017" lon="-0.25282">
        <ele>51.57</ele>
        <time>2012-03-18T10:08:02Z</time>
      </trkpt>
      <trkpt lat="47.34001" lon="-0.25304">
        <ele>49.65</ele>
        <time>2012-03-18T10:08:06Z</time>
      </trkpt>
      <trkpt lat="47.33975" lon="-0.25344">
        <ele>47.24</ele>
        <time>2012-03-18T10:08:12Z</time>
      </trkpt>
      <trkpt lat="47.33928" lon="-0.25412">
        <ele>43.4</ele>
        <time>2012-03-18T10:08:23Z</time>
      </trkpt>
      <trkpt lat="47.33902" lon="-0.25449">
        <ele>42.44</ele>
        <time>2012-03-18T10:08:30Z</time>
      </trkpt>
      <trkpt lat="47.33871" lon="-0.25495">
        <ele>41.47</ele>
        <time>2012-03-18T10:08:39Z</time>
      </trkpt>
      <trkpt lat="47.33868" lon="-0.255">
        <ele>41.47</ele>
        <time>2012-03-18T10:08:40Z</time>
      </trkpt>
      <trkpt lat="47.33856" lon="-0.25519">
        <ele>40.99</ele>
        <time>2012-03-18T10:08:44Z</time>
      </trkpt>
      <trkpt lat="47.33842" lon="-0.25522">
        <ele>40.03</ele>
        <time>2012-03-18T10:08:49Z</time>
      </trkpt>
      <trkpt lat="47.33839" lon="-0.2552">
        <ele>39.55</ele>
        <time>2012-03-18T10:08:50Z</time>
      </trkpt>
      <trkpt lat="47.33814" lon="-0.25501">
        <ele>40.03</ele>
        <time>2012-03-18T10:08:57Z</time>
      </trkpt>
      <trkpt lat="47.33798" lon="-0.25489">
        <ele>39.07</ele>
        <time>2012-03-18T10:09:01Z</time>
      </trkpt>
      <trkpt lat="47.33771" lon="-0.25464">
        <ele>39.07</ele>
        <time>2012-03-18T10:09:08Z</time>
      </trkpt>
      <trkpt lat="47.33753" lon="-0.25442">
        <ele>38.59</ele>
        <time>2012-03-18T10:09:14Z</time>
      </trkpt>
      <trkpt lat="47.33748" lon="-0.2542">
        <ele>39.07</ele>
        <time>2012-03-18T10:09:18Z</time>
      </trkpt>
      <trkpt lat="47.33745" lon="-0.25366">
        <ele>39.07</ele>
        <time>2012-03-18T10:09:27Z</time>
      </trkpt>
      <trkpt lat="47.33744" lon="-0.25324">
        <ele>39.07</ele>
        <time>2012-03-18T10:09:34Z</time>
      </trkpt>
      <trkpt lat="47.3375" lon="-0.25268">
        <ele>39.07</ele>
        <time>2012-03-18T10:09:44Z</time>
      </trkpt>
      <trkpt lat="47.33752" lon="-0.25263">
        <ele>39.07</ele>
        <time>2012-03-18T10:09:45Z</time>
      </trkpt>
      <trkpt lat="47.33768" lon="-0.2524">
        <ele>41.47</ele>
        <time>2012-03-18T10:09:52Z</time>
      </trkpt>
      <trkpt lat="47.33777" lon="-0.25217">
        <ele>41.95</ele>
        <time>2012-03-18T10:09:58Z</time>
      </trkpt>
      <trkpt lat="47.3379" lon="-0.252">
        <ele>42.92</ele>
        <time>2012-03-18T10:10:04Z</time>
      </trkpt>
      <trkpt lat="47.33803" lon="-0.25191">
        <ele>43.88</ele>
        <time>2012-03-18T10:10:11Z</time>
      </trkpt>
      <trkpt lat="47.33813" lon="-0.25188">
        <ele>44.84</ele>
        <time>2012-03-18T10:10:16Z</time>
      </trkpt>
      <trkpt lat="47.33826" lon="-0.25189">
        <ele>46.76</ele>
        <time>2012-03-18T10:10:23Z</time>
      </trkpt>
      <trkpt lat="47.33829" lon="-0.2519">
        <ele>47.24</ele>
        <time>2012-03-18T10:10:25Z</time>
      </trkpt>
      <trkpt lat="47.33838" lon="-0.25181">
        <ele>48.68</ele>
        <time>2012-03-18T10:10:32Z</time>
      </trkpt>
      <trkpt lat="47.33847" lon="-0.25169">
        <ele>49.65</ele>
        <time>2012-03-18T10:10:39Z</time>
      </trkpt>
      <trkpt lat="47.33848" lon="-0.25156">
        <ele>51.09</ele>
        <time>2012-03-18T10:10:45Z</time>
      </trkpt>
      <trkpt lat="47.33847" lon="-0.25151">
        <ele>51.57</ele>
        <time>2012-03-18T10:10:48Z</time>
      </trkpt>
      <trkpt lat="47.33852" lon="-0.25135">
        <ele>53.49</ele>
        <time>2012-03-18T10:10:57Z</time>
      </trkpt>
      <trkpt lat="47.33853" lon="-0.25132">
        <ele>53.49</ele>
        <time>2012-03-18T10:10:59Z</time>
      </trkpt>
      <trkpt lat="47.33855" lon="-0.25124">
        <ele>54.45</ele>
        <time>2012-03-18T10:11:03Z</time>
      </trkpt>
      <trkpt lat="47.33857" lon="-0.25115">
        <ele>55.41</ele>
        <time>2012-03-18T10:11:08Z</time>
      </trkpt>
      <trkpt lat="47.33865" lon="-0.25094">
        <ele>56.86</ele>
        <time>2012-03-18T10:11:17Z</time>
      </trkpt>
      <trkpt lat="47.3387" lon="-0.25084">
        <ele>57.34</ele>
        <time>2012-03-18T10:11:22Z</time>
      </trkpt>
      <trkpt lat="47.33872" lon="-0.2507">
        <ele>58.3</ele>
        <time>2012-03-18T10:11:28Z</time>
      </trkpt>
      <trkpt lat="47.33873" lon="-0.25064">
        <ele>58.3</ele>
        <time>2012-03-18T10:11:31Z</time>
      </trkpt>
      <trkpt lat="47.33876" lon="-0.25054">
        <ele>58.78</ele>
        <time>2012-03-18T10:11:35Z</time>
      </trkpt>
      <trkpt lat="47.33883" lon="-0.25036">
        <ele>60.22</ele>
        <time>2012-03-18T10:11:43Z</time>
      </trkpt>
      <trkpt lat="47.33885" lon="-0.25023">
        <ele>61.18</ele>
        <time>2012-03-18T10:11:49Z</time>
      </trkpt>
      <trkpt lat="47.33893" lon="-0.25002">
        <ele>62.14</ele>
        <time>2012-03-18T10:11:58Z</time>
      </trkpt>
      <trkpt lat="47.33898" lon="-0.24988">
        <ele>63.58</ele>
        <time>2012-03-18T10:12:03Z</time>
      </trkpt>
      <trkpt lat="47.33902" lon="-0.24979">
        <ele>64.07</ele>
        <time>2012-03-18T10:12:07Z</time>
      </trkpt>
      <trkpt lat="47.33904" lon="-0.24967">
        <ele>65.51</ele>
        <time>2012-03-18T10:12:13Z</time>
      </trkpt>
      <trkpt lat="47.33905" lon="-0.24953">
        <ele>65.99</ele>
        <time>2012-03-18T10:12:20Z</time>
      </trkpt>
      <trkpt lat="47.33907" lon="-0.24943">
        <ele>66.47</ele>
        <time>2012-03-18T10:12:24Z</time>
      </trkpt>
      <trkpt lat="47.33907" lon="-0.24935">
        <ele>66.95</ele>
        <time>2012-03-18T10:12:27Z</time>
      </trkpt>
      <trkpt lat="47.33908" lon="-0.24918">
        <ele>67.91</ele>
        <time>2012-03-18T10:12:33Z</time>
      </trkpt>
      <trkpt lat="47.33908" lon="-0.24915">
        <ele>68.39</ele>
        <time>2012-03-18T10:12:34Z</time>
      </trkpt>
      <trkpt lat="47.33909" lon="-0.24908">
        <ele>68.87</ele>
        <time>2012-03-18T10:12:37Z</time>
      </trkpt>
      <trkpt lat="47.33901" lon="-0.24892">
        <ele>69.83</ele>
        <time>2012-03-18T10:12:46Z</time>
      </trkpt>
      <trkpt lat="47.33892" lon="-0.24878">
        <ele>69.83</ele>
        <time>2012-03-18T10:12:53Z</time>
      </trkpt>
      <trkpt lat="47.3388" lon="-0.2486">
        <ele>70.31</ele>
        <time>2012-03-18T10:13:01Z</time>
      </trkpt>
      <trkpt lat="47.33867" lon="-0.24838">
        <ele>69.83</ele>
        <time>2012-03-18T10:13:08Z</time>
      </trkpt>
      <trkpt lat="47.33864" lon="-0.24831">
        <ele>69.83</ele>
        <time>2012-03-18T10:13:10Z</time>
      </trkpt>
      <trkpt lat="47.33862" lon="-0.24817">
        <ele>70.79</ele>
        <time>2012-03-18T10:13:14Z</time>
      </trkpt>
      <trkpt lat="47.33862" lon="-0.24798">
        <ele>71.76</ele>
        <time>2012-03-18T10:13:20Z</time>
      </trkpt>
      <trkpt lat="47.33862" lon="-0.2478">
        <ele>72.72</ele>
        <time>2012-03-18T10:13:26Z</time>
      </trkpt>
      <trkpt lat="47.33858" lon="-0.24764">
        <ele>73.68</ele>
        <time>2012-03-18T10:13:32Z</time>
      </trkpt>
      <trkpt lat="47.33853" lon="-0.24756">
        <ele>73.68</ele>
        <time>2012-03-18T10:13:35Z</time>
      </trkpt>
      <trkpt lat="47.33851" lon="-0.24739">
        <ele>74.16</ele>
        <time>2012-03-18T10:13:41Z</time>
      </trkpt>
      <trkpt lat="47.33853" lon="-0.24718">
        <ele>74.64</ele>
        <time>2012-03-18T10:13:47Z</time>
      </trkpt>
      <trkpt lat="47.33855" lon="-0.24706">
        <ele>74.64</ele>
        <time>2012-03-18T10:13:51Z</time>
      </trkpt>
      <trkpt lat="47.33854" lon="-0.24676">
        <ele>74.64</ele>
        <time>2012-03-18T10:13:58Z</time>
      </trkpt>
      <trkpt lat="47.3385" lon="-0.24651">
        <ele>74.16</ele>
        <time>2012-03-18T10:14:04Z</time>
      </trkpt>
      <trkpt lat="47.33843" lon="-0.24615">
        <ele>74.64</ele>
        <time>2012-03-18T10:14:11Z</time>
      </trkpt>
      <trkpt lat="47.33837" lon="-0.24565">
        <ele>74.64</ele>
        <time>2012-03-18T10:14:20Z</time>
      </trkpt>
      <trkpt lat="47.33832" lon="-0.24497">
        <ele>73.68</ele>
        <time>2012-03-18T10:14:29Z</time>
      </trkpt>
      <trkpt lat="47.33831" lon="-0.2449">
        <ele>73.68</ele>
        <time>2012-03-18T10:14:30Z</time>
      </trkpt>
      <trkpt lat="47.33828" lon="-0.24452">
        <ele>74.16</ele>
        <time>2012-03-18T10:14:36Z</time>
      </trkpt>
      <trkpt lat="47.33833" lon="-0.24398">
        <ele>75.12</ele>
        <time>2012-03-18T10:14:46Z</time>
      </trkpt>
      <trkpt lat="47.33844" lon="-0.24355">
        <ele>75.12</ele>
        <time>2012-03-18T10:14:55Z</time>
      </trkpt>
      <trkpt lat="47.33849" lon="-0.24339">
        <ele>75.6</ele>
        <time>2012-03-18T10:14:58Z</time>
      </trkpt>
      <trkpt lat="47.33852" lon="-0.24328">
        <ele>75.6</ele>
        <time>2012-03-18T10:15:00Z</time>
      </trkpt>
      <trkpt lat="47.33854" lon="-0.24317">
        <ele>75.6</ele>
        <time>2012-03-18T10:15:02Z</time>
      </trkpt>
      <trkpt lat="47.33865" lon="-0.24258">
        <ele>75.12</ele>
        <time>2012-03-18T10:15:11Z</time>
      </trkpt>
      <trkpt lat="47.33868" lon="-0.24228">
        <ele>75.6</ele>
        <time>2012-03-18T10:15:16Z</time>
      </trkpt>
      <trkpt lat="47.33876" lon="-0.2419">
        <ele>76.08</ele>
        <time>2012-03-18T10:15:23Z</time>
      </trkpt>
      <trkpt lat="47.33883" lon="-0.24164">
        <ele>76.08</ele>
        <time>2012-03-18T10:15:28Z</time>
      </trkpt>
      <trkpt lat="47.33886" lon="-0.24127">
        <ele>76.08</ele>
        <time>2012-03-18T10:15:34Z</time>
      </trkpt>
      <trkpt lat="47.33881" lon="-0.24095">
        <ele>75.6</ele>
        <time>2012-03-18T10:15:39Z</time>
      </trkpt>
      <trkpt lat="47.33877" lon="-0.24072">
        <ele>74.16</ele>
        <time>2012-03-18T10:15:43Z</time>
      </trkpt>
      <trkpt lat="47.33864" lon="-0.24073">
        <ele>72.72</ele>
        <time>2012-03-18T10:15:48Z</time>
      </trkpt>
      <trkpt lat="47.33856" lon="-0.24079">
        <ele>72.24</ele>
        <time>2012-03-18T10:15:50Z</time>
      </trkpt>
      <trkpt lat="47.33844" lon="-0.24097">
        <ele>69.83</ele>
        <time>2012-03-18T10:15:53Z</time>
      </trkpt>
      <trkpt lat="47.33823" lon="-0.2414">
        <ele>66.95</ele>
        <time>2012-03-18T10:16:00Z</time>
      </trkpt>
      <trkpt lat="47.33812" lon="-0.24167">
        <ele>65.99</ele>
        <time>2012-03-18T10:16:05Z</time>
      </trkpt>
      <trkpt lat="47.33801" lon="-0.24193">
        <ele>65.51</ele>
        <time>2012-03-18T10:16:11Z</time>
      </trkpt>
      <trkpt lat="47.33796" lon="-0.24202">
        <ele>64.55</ele>
        <time>2012-03-18T10:16:13Z</time>
      </trkpt>
      <trkpt lat="47.3378" lon="-0.24246">
        <ele>61.66</ele>
        <time>2012-03-18T10:16:21Z</time>
      </trkpt>
      <trkpt lat="47.33776" lon="-0.24262">
        <ele>59.26</ele>
        <time>2012-03-18T10:16:24Z</time>
      </trkpt>
      <trkpt lat="47.33772" lon="-0.24272">
        <ele>58.3</ele>
        <time>2012-03-18T10:16:26Z</time>
      </trkpt>
      <trkpt lat="47.33766" lon="-0.24289">
        <ele>56.86</ele>
        <time>2012-03-18T10:16:29Z</time>
      </trkpt>
      <trkpt lat="47.33761" lon="-0.24302">
        <ele>56.37</ele>
        <time>2012-03-18T10:16:31Z</time>
      </trkpt>
      <trkpt lat="47.3375" lon="-0.24334">
        <ele>53.97</ele>
        <time>2012-03-18T10:16:37Z</time>
      </trkpt>
      <trkpt lat="47.33743" lon="-0.24355">
        <ele>53.49</ele>
        <time>2012-03-18T10:16:41Z</time>
      </trkpt>
      <trkpt lat="47.3373" lon="-0.24394">
        <ele>51.57</ele>
        <time>2012-03-18T10:16:48Z</time>
      </trkpt>
      <trkpt lat="47.3371" lon="-0.24429">
        <ele>49.16</ele>
        <time>2012-03-18T10:16:56Z</time>
      </trkpt>
      <trkpt lat="47.33699" lon="-0.24449">
        <ele>46.76</ele>
        <time>2012-03-18T10:17:00Z</time>
      </trkpt>
      <trkpt lat="47.33697" lon="-0.24453">
        <ele>46.28</ele>
        <time>2012-03-18T10:17:01Z</time>
      </trkpt>
      <trkpt lat="47.33675" lon="-0.24489">
        <ele>42.44</ele>
        <time>2012-03-18T10:17:09Z</time>
      </trkpt>
      <trkpt lat="47.33656" lon="-0.24522">
        <ele>39.55</ele>
        <time>2012-03-18T10:17:17Z</time>
      </trkpt>
      <trkpt lat="47.33644" lon="-0.24538">
        <ele>36.67</ele>
        <time>2012-03-18T10:17:22Z</time>
      </trkpt>
      <trkpt lat="47.33632" lon="-0.24552">
        <ele>33.78</ele>
        <time>2012-03-18T10:17:27Z</time>
      </trkpt>
      <trkpt lat="47.33625" lon="-0.24578">
        <ele>34.26</ele>
        <time>2012-03-18T10:17:33Z</time>
      </trkpt>
      <trkpt lat="47.33621" lon="-0.24596">
        <ele>33.78</ele>
        <time>2012-03-18T10:17:36Z</time>
      </trkpt>
      <trkpt lat="47.33613" lon="-0.24627">
        <ele>33.78</ele>
        <time>2012-03-18T10:17:41Z</time>
      </trkpt>
      <trkpt lat="47.33605" lon="-0.24661">
        <ele>32.82</ele>
        <time>2012-03-18T10:17:46Z</time>
      </trkpt>
      <trkpt lat="47.336" lon="-0.24688">
        <ele>32.34</ele>
        <time>2012-03-18T10:17:50Z</time>
      </trkpt>
      <trkpt lat="47.33588" lon="-0.24745">
        <ele>32.34</ele>
        <time>2012-03-18T10:17:59Z</time>
      </trkpt>
      <trkpt lat="47.33578" lon="-0.24795">
        <ele>32.34</ele>
        <time>2012-03-18T10:18:08Z</time>
      </trkpt>
      <trkpt lat="47.33576" lon="-0.24801">
        <ele>32.82</ele>
        <time>2012-03-18T10:18:09Z</time>
      </trkpt>
      <trkpt lat="47.3357" lon="-0.24816">
        <ele>32.34</ele>
        <time>2012-03-18T10:18:12Z</time>
      </trkpt>
      <trkpt lat="47.33556" lon="-0.24833">
        <ele>32.34</ele>
        <time>2012-03-18T10:18:17Z</time>
      </trkpt>
      <trkpt lat="47.33549" lon="-0.24827">
        <ele>32.82</ele>
        <time>2012-03-18T10:18:19Z</time>
      </trkpt>
      <trkpt lat="47.33525" lon="-0.24798">
        <ele>34.26</ele>
        <time>2012-03-18T10:18:28Z</time>
      </trkpt>
      <trkpt lat="47.33507" lon="-0.24779">
        <ele>36.19</ele>
        <time>2012-03-18T10:18:36Z</time>
      </trkpt>
      <trkpt lat="47.3349" lon="-0.24761">
        <ele>38.11</ele>
        <time>2012-03-18T10:18:44Z</time>
      </trkpt>
      <trkpt lat="47.33472" lon="-0.2474">
        <ele>40.03</ele>
        <time>2012-03-18T10:18:53Z</time>
      </trkpt>
      <trkpt lat="47.33452" lon="-0.24719">
        <ele>41.47</ele>
        <time>2012-03-18T10:19:02Z</time>
      </trkpt>
      <trkpt lat="47.3344" lon="-0.24705">
        <ele>42.92</ele>
        <time>2012-03-18T10:19:08Z</time>
      </trkpt>
      <trkpt lat="47.33424" lon="-0.24687">
        <ele>43.88</ele>
        <time>2012-03-18T10:19:16Z</time>
      </trkpt>
      <trkpt lat="47.33414" lon="-0.24668">
        <ele>45.32</ele>
        <time>2012-03-18T10:19:23Z</time>
      </trkpt>
      <trkpt lat="47.33414" lon="-0.24645">
        <ele>46.76</ele>
        <time>2012-03-18T10:19:30Z</time>
      </trkpt>
      <trkpt lat="47.33417" lon="-0.24622">
        <ele>47.72</ele>
        <time>2012-03-18T10:19:37Z</time>
      </trkpt>
      <trkpt lat="47.33421" lon="-0.2459">
        <ele>49.16</ele>
        <time>2012-03-18T10:19:46Z</time>
      </trkpt>
      <trkpt lat="47.33418" lon="-0.24565">
        <ele>49.65</ele>
        <time>2012-03-18T10:19:53Z</time>
      </trkpt>
      <trkpt lat="47.33403" lon="-0.24547">
        <ele>50.13</ele>
        <time>2012-03-18T10:20:00Z</time>
      </trkpt>
      <trkpt lat="47.33384" lon="-0.24529">
        <ele>51.09</ele>
        <time>2012-03-18T10:20:08Z</time>
      </trkpt>
      <trkpt lat="47.33365" lon="-0.24503">
        <ele>50.61</ele>
        <time>2012-03-18T10:20:15Z</time>
      </trkpt>
      <trkpt lat="47.33328" lon="-0.24434">
        <ele>50.13</ele>
        <time>2012-03-18T10:20:28Z</time>
      </trkpt>
      <trkpt lat="47.33305" lon="-0.24399">
        <ele>51.57</ele>
        <time>2012-03-18T10:20:36Z</time>
      </trkpt>
      <trkpt lat="47.33285" lon="-0.2437">
        <ele>52.53</ele>
        <time>2012-03-18T10:20:44Z</time>
      </trkpt>
      <trkpt lat="47.33279" lon="-0.24361">
        <ele>53.01</ele>
        <time>2012-03-18T10:20:47Z</time>
      </trkpt>
      <trkpt lat="47.33267" lon="-0.24363">
        <ele>53.01</ele>
        <time>2012-03-18T10:20:53Z</time>
      </trkpt>
      <trkpt lat="47.33246" lon="-0.24377">
        <ele>51.57</ele>
        <time>2012-03-18T10:20:58Z</time>
      </trkpt>
      <trkpt lat="47.33226" lon="-0.24378">
        <ele>50.61</ele>
        <time>2012-03-18T10:21:02Z</time>
      </trkpt>
      <trkpt lat="47.33205" lon="-0.24391">
        <ele>48.68</ele>
        <time>2012-03-18T10:21:07Z</time>
      </trkpt>
      <trkpt lat="47.33203" lon="-0.24398">
        <ele>48.2</ele>
        <time>2012-03-18T10:21:08Z</time>
      </trkpt>
      <trkpt lat="47.33178" lon="-0.24439">
        <ele>42.44</ele>
        <time>2012-03-18T10:21:13Z</time>
      </trkpt>
      <trkpt lat="47.33168" lon="-0.24458">
        <ele>41.47</ele>
        <time>2012-03-18T10:21:15Z</time>
      </trkpt>
      <trkpt lat="47.33142" lon="-0.24498">
        <ele>41.47</ele>
        <time>2012-03-18T10:21:21Z</time>
      </trkpt>
      <trkpt lat="47.33127" lon="-0.24522">
        <ele>42.44</ele>
        <time>2012-03-18T10:21:27Z</time>
      </trkpt>
      <trkpt lat="47.33109" lon="-0.24552">
        <ele>43.88</ele>
        <time>2012-03-18T10:21:35Z</time>
      </trkpt>
      <trkpt lat="47.33091" lon="-0.24582">
        <ele>44.36</ele>
        <time>2012-03-18T10:21:43Z</time>
      </trkpt>
      <trkpt lat="47.3307" lon="-0.24615">
        <ele>44.36</ele>
        <time>2012-03-18T10:21:52Z</time>
      </trkpt>
      <trkpt lat="47.3305" lon="-0.24648">
        <ele>43.4</ele>
        <time>2012-03-18T10:22:00Z</time>
      </trkpt>
      <trkpt lat="47.33038" lon="-0.24671">
        <ele>42.92</ele>
        <time>2012-03-18T10:22:05Z</time>
      </trkpt>
      <trkpt lat="47.33044" lon="-0.24697">
        <ele>41.95</ele>
        <time>2012-03-18T10:22:10Z</time>
      </trkpt>
      <trkpt lat="47.33071" lon="-0.24742">
        <ele>40.51</ele>
        <time>2012-03-18T10:22:18Z</time>
      </trkpt>
      <trkpt lat="47.33109" lon="-0.24812">
        <ele>39.07</ele>
        <time>2012-03-18T10:22:27Z</time>
      </trkpt>
      <trkpt lat="47.33147" lon="-0.24878">
        <ele>39.07</ele>
        <time>2012-03-18T10:22:36Z</time>
      </trkpt>
      <trkpt lat="47.33176" lon="-0.2493">
        <ele>40.51</ele>
        <time>2012-03-18T10:22:44Z</time>
      </trkpt>
      <trkpt lat="47.33198" lon="-0.24973">
        <ele>41.47</ele>
        <time>2012-03-18T10:22:52Z</time>
      </trkpt>
      <trkpt lat="47.33201" lon="-0.24979">
        <ele>41.95</ele>
        <time>2012-03-18T10:22:53Z</time>
      </trkpt>
      <trkpt lat="47.33212" lon="-0.25001">
        <ele>41.95</ele>
        <time>2012-03-18T10:22:57Z</time>
      </trkpt>
      <trkpt lat="47.33224" lon="-0.25021">
        <ele>42.44</ele>
        <time>2012-03-18T10:23:01Z</time>
      </trkpt>
      <trkpt lat="47.33238" lon="-0.25045">
        <ele>43.4</ele>
        <time>2012-03-18T10:23:06Z</time>
      </trkpt>
      <trkpt lat="47.33261" lon="-0.25088">
        <ele>44.36</ele>
        <time>2012-03-18T10:23:15Z</time>
      </trkpt>
      <trkpt lat="47.33276" lon="-0.25117">
        <ele>43.4</ele>
        <time>2012-03-18T10:23:22Z</time>
      </trkpt>
      <trkpt lat="47.33269" lon="-0.25134">
        <ele>43.4</ele>
        <time>2012-03-18T10:23:26Z</time>
      </trkpt>
      <trkpt lat="47.33232" lon="-0.25154">
        <ele>44.84</ele>
        <time>2012-03-18T10:23:36Z</time>
      </trkpt>
      <trkpt lat="47.33204" lon="-0.25168">
        <ele>44.36</ele>
        <time>2012-03-18T10:23:44Z</time>
      </trkpt>
      <trkpt lat="47.3317" lon="-0.25185">
        <ele>46.28</ele>
        <time>2012-03-18T10:23:54Z</time>
      </trkpt>
      <trkpt lat="47.33142" lon="-0.25201">
        <ele>46.28</ele>
        <time>2012-03-18T10:24:03Z</time>
      </trkpt>
      <trkpt lat="47.33117" lon="-0.25213">
        <ele>47.24</ele>
        <time>2012-03-18T10:24:10Z</time>
      </trkpt>
      <trkpt lat="47.33086" lon="-0.25229">
        <ele>48.68</ele>
        <time>2012-03-18T10:24:20Z</time>
      </trkpt>
      <trkpt lat="47.33058" lon="-0.25249">
        <ele>49.65</ele>
        <time>2012-03-18T10:24:29Z</time>
      </trkpt>
      <trkpt lat="47.33037" lon="-0.25264">
        <ele>50.61</ele>
        <time>2012-03-18T10:24:36Z</time>
      </trkpt>
      <trkpt lat="47.33005" lon="-0.25283">
        <ele>51.09</ele>
        <time>2012-03-18T10:24:47Z</time>
      </trkpt>
      <trkpt lat="47.32984" lon="-0.25291">
        <ele>52.05</ele>
        <time>2012-03-18T10:24:54Z</time>
      </trkpt>
      <trkpt lat="47.32957" lon="-0.25299">
        <ele>53.49</ele>
        <time>2012-03-18T10:25:03Z</time>
      </trkpt>
      <trkpt lat="47.32927" lon="-0.25302">
        <ele>54.93</ele>
        <time>2012-03-18T10:25:13Z</time>
      </trkpt>
      <trkpt lat="47.32911" lon="-0.25302">
        <ele>55.89</ele>
        <time>2012-03-18T10:25:20Z</time>
      </trkpt>
      <trkpt lat="47.32897" lon="-0.25303">
        <ele>56.37</ele>
        <time>2012-03-18T10:25:26Z</time>
      </trkpt>
      <trkpt lat="47.32881" lon="-0.25304">
        <ele>57.34</ele>
        <time>2012-03-18T10:25:32Z</time>
      </trkpt>
      <trkpt lat="47.32861" lon="-0.25306">
        <ele>58.78</ele>
        <time>2012-03-18T10:25:39Z</time>
      </trkpt>
      <trkpt lat="47.32835" lon="-0.25309">
        <ele>60.7</ele>
        <time>2012-03-18T10:25:48Z</time>
      </trkpt>
      <trkpt lat="47.32813" lon="-0.2531">
        <ele>62.62</ele>
        <time>2012-03-18T10:25:56Z</time>
      </trkpt>
      <trkpt lat="47.32785" lon="-0.25311">
        <ele>63.58</ele>
        <time>2012-03-18T10:26:06Z</time>
      </trkpt>
      <trkpt lat="47.32756" lon="-0.25307">
        <ele>64.55</ele>
        <time>2012-03-18T10:26:16Z</time>
      </trkpt>
      <trkpt lat="47.32727" lon="-0.253">
        <ele>65.51</ele>
        <time>2012-03-18T10:26:26Z</time>
      </trkpt>
      <trkpt lat="47.32691" lon="-0.25302">
        <ele>66.47</ele>
        <time>2012-03-18T10:26:38Z</time>
      </trkpt>
      <trkpt lat="47.32666" lon="-0.25306">
        <ele>67.43</ele>
        <time>2012-03-18T10:26:46Z</time>
      </trkpt>
      <trkpt lat="47.32633" lon="-0.25311">
        <ele>69.83</ele>
        <time>2012-03-18T10:26:57Z</time>
      </trkpt>
      <trkpt lat="47.32605" lon="-0.25314">
        <ele>71.27</ele>
        <time>2012-03-18T10:27:06Z</time>
      </trkpt>
      <trkpt lat="47.32585" lon="-0.25318">
        <ele>73.2</ele>
        <time>2012-03-18T10:27:13Z</time>
      </trkpt>
      <trkpt lat="47.32566" lon="-0.25323">
        <ele>73.2</ele>
        <time>2012-03-18T10:27:21Z</time>
      </trkpt>
      <trkpt lat="47.3255" lon="-0.2533">
        <ele>73.68</ele>
        <time>2012-03-18T10:27:27Z</time>
      </trkpt>
      <trkpt lat="47.32526" lon="-0.2534">
        <ele>74.16</ele>
        <time>2012-03-18T10:27:36Z</time>
      </trkpt>
      <trkpt lat="47.32507" lon="-0.25351">
        <ele>73.68</ele>
        <time>2012-03-18T10:27:43Z</time>
      </trkpt>
      <trkpt lat="47.3249" lon="-0.2536">
        <ele>74.64</ele>
        <time>2012-03-18T10:27:49Z</time>
      </trkpt>
      <trkpt lat="47.32463" lon="-0.25373">
        <ele>74.16</ele>
        <time>2012-03-18T10:27:57Z</time>
      </trkpt>
      <trkpt lat="47.32437" lon="-0.25386">
        <ele>74.64</ele>
        <time>2012-03-18T10:28:04Z</time>
      </trkpt>
      <trkpt lat="47.32405" lon="-0.25402">
        <ele>73.2</ele>
        <time>2012-03-18T10:28:12Z</time>
      </trkpt>
      <trkpt lat="47.32377" lon="-0.25415">
        <ele>73.2</ele>
        <time>2012-03-18T10:28:19Z</time>
      </trkpt>
      <trkpt lat="47.32353" lon="-0.25427">
        <ele>72.72</ele>
        <time>2012-03-18T10:28:25Z</time>
      </trkpt>
      <trkpt lat="47.32332" lon="-0.25438">
        <ele>72.24</ele>
        <time>2012-03-18T10:28:30Z</time>
      </trkpt>
      <trkpt lat="47.32324" lon="-0.25443">
        <ele>72.24</ele>
        <time>2012-03-18T10:28:32Z</time>
      </trkpt>
      <trkpt lat="47.32293" lon="-0.25458">
        <ele>72.24</ele>
        <time>2012-03-18T10:28:40Z</time>
      </trkpt>
      <trkpt lat="47.32279" lon="-0.25468">
        <ele>72.24</ele>
        <time>2012-03-18T10:28:44Z</time>
      </trkpt>
      <trkpt lat="47.32257" lon="-0.25485">
        <ele>72.24</ele>
        <time>2012-03-18T10:28:50Z</time>
      </trkpt>
      <trkpt lat="47.32234" lon="-0.25507">
        <ele>73.2</ele>
        <time>2012-03-18T10:28:57Z</time>
      </trkpt>
      <trkpt lat="47.32223" lon="-0.25517">
        <ele>72.72</ele>
        <time>2012-03-18T10:29:00Z</time>
      </trkpt>
      <trkpt lat="47.32201" lon="-0.25538">
        <ele>73.68</ele>
        <time>2012-03-18T10:29:06Z</time>
      </trkpt>
      <trkpt lat="47.32169" lon="-0.25559">
        <ele>74.64</ele>
        <time>2012-03-18T10:29:15Z</time>
      </trkpt>
      <trkpt lat="47.32136" lon="-0.25575">
        <ele>75.6</ele>
        <time>2012-03-18T10:29:24Z</time>
      </trkpt>
      <trkpt lat="47.321" lon="-0.25589">
        <ele>75.12</ele>
        <time>2012-03-18T10:29:33Z</time>
      </trkpt>
      <trkpt lat="47.32074" lon="-0.25594">
        <ele>75.12</ele>
        <time>2012-03-18T10:29:39Z</time>
      </trkpt>
      <trkpt lat="47.3205" lon="-0.25598">
        <ele>75.12</ele>
        <time>2012-03-18T10:29:45Z</time>
      </trkpt>
      <trkpt lat="47.32042" lon="-0.25616">
        <ele>75.6</ele>
        <time>2012-03-18T10:29:49Z</time>
      </trkpt>
      <trkpt lat="47.32038" lon="-0.25644">
        <ele>76.08</ele>
        <time>2012-03-18T10:29:54Z</time>
      </trkpt>
      <trkpt lat="47.32031" lon="-0.2569">
        <ele>76.56</ele>
        <time>2012-03-18T10:30:03Z</time>
      </trkpt>
      <trkpt lat="47.32027" lon="-0.25718">
        <ele>77.04</ele>
        <time>2012-03-18T10:30:09Z</time>
      </trkpt>
      <trkpt lat="47.32025" lon="-0.25746">
        <ele>77.04</ele>
        <time>2012-03-18T10:30:15Z</time>
      </trkpt>
      <trkpt lat="47.32022" lon="-0.25783">
        <ele>77.52</ele>
        <time>2012-03-18T10:30:22Z</time>
      </trkpt>
      <trkpt lat="47.32014" lon="-0.2583">
        <ele>77.52</ele>
        <time>2012-03-18T10:30:31Z</time>
      </trkpt>
      <trkpt lat="47.32006" lon="-0.25872">
        <ele>77.04</ele>
        <time>2012-03-18T10:30:39Z</time>
      </trkpt>
      <trkpt lat="47.32006" lon="-0.25904">
        <ele>77.52</ele>
        <time>2012-03-18T10:30:45Z</time>
      </trkpt>
      <trkpt lat="47.32009" lon="-0.2593">
        <ele>77.52</ele>
        <time>2012-03-18T10:30:50Z</time>
      </trkpt>
      <trkpt lat="47.32015" lon="-0.25961">
        <ele>77.52</ele>
        <time>2012-03-18T10:30:56Z</time>
      </trkpt>
      <trkpt lat="47.32018" lon="-0.25983">
        <ele>77.52</ele>
        <time>2012-03-18T10:31:01Z</time>
      </trkpt>
      <trkpt lat="47.32016" lon="-0.25988">
        <ele>78</ele>
        <time>2012-03-18T10:31:02Z</time>
      </trkpt>
      <trkpt lat="47.32004" lon="-0.26021">
        <ele>78.48</ele>
        <time>2012-03-18T10:31:09Z</time>
      </trkpt>
      <trkpt lat="47.31998" lon="-0.26045">
        <ele>78.48</ele>
        <time>2012-03-18T10:31:14Z</time>
      </trkpt>
      <trkpt lat="47.31981" lon="-0.26074">
        <ele>78.48</ele>
        <time>2012-03-18T10:31:21Z</time>
      </trkpt>
      <trkpt lat="47.31966" lon="-0.26102">
        <ele>78</ele>
        <time>2012-03-18T10:31:27Z</time>
      </trkpt>
      <trkpt lat="47.31958" lon="-0.26122">
        <ele>78</ele>
        <time>2012-03-18T10:31:31Z</time>
      </trkpt>
      <trkpt lat="47.31952" lon="-0.26136">
        <ele>76.08</ele>
        <time>2012-03-18T10:31:34Z</time>
      </trkpt>
      <trkpt lat="47.3195" lon="-0.26165">
        <ele>71.76</ele>
        <time>2012-03-18T10:31:39Z</time>
      </trkpt>
      <trkpt lat="47.3195" lon="-0.26186">
        <ele>68.87</ele>
        <time>2012-03-18T10:31:43Z</time>
      </trkpt>
      <trkpt lat="47.31949" lon="-0.26204">
        <ele>65.51</ele>
        <time>2012-03-18T10:31:46Z</time>
      </trkpt>
      <trkpt lat="47.31947" lon="-0.26213">
        <ele>64.07</ele>
        <time>2012-03-18T10:31:47Z</time>
      </trkpt>
      <trkpt lat="47.31939" lon="-0.26258">
        <ele>60.22</ele>
        <time>2012-03-18T10:31:51Z</time>
      </trkpt>
      <trkpt lat="47.31915" lon="-0.263">
        <ele>60.7</ele>
        <time>2012-03-18T10:31:56Z</time>
      </trkpt>
      <trkpt lat="47.31895" lon="-0.26325">
        <ele>62.14</ele>
        <time>2012-03-18T10:32:01Z</time>
      </trkpt>
      <trkpt lat="47.3187" lon="-0.26354">
        <ele>64.07</ele>
        <time>2012-03-18T10:32:09Z</time>
      </trkpt>
      <trkpt lat="47.31855" lon="-0.2635">
        <ele>64.07</ele>
        <time>2012-03-18T10:32:14Z</time>
      </trkpt>
      <trkpt lat="47.31836" lon="-0.26325">
        <ele>65.03</ele>
        <time>2012-03-18T10:32:22Z</time>
      </trkpt>
      <trkpt lat="47.31817" lon="-0.26295">
        <ele>65.51</ele>
        <time>2012-03-18T10:32:30Z</time>
      </trkpt>
      <trkpt lat="47.31792" lon="-0.26253">
        <ele>65.99</ele>
        <time>2012-03-18T10:32:41Z</time>
      </trkpt>
      <trkpt lat="47.31772" lon="-0.26214">
        <ele>67.43</ele>
        <time>2012-03-18T10:32:51Z</time>
      </trkpt>
      <trkpt lat="47.31757" lon="-0.26183">
        <ele>68.87</ele>
        <time>2012-03-18T10:33:00Z</time>
      </trkpt>
      <trkpt lat="47.31747" lon="-0.26186">
        <ele>69.83</ele>
        <time>2012-03-18T10:33:05Z</time>
      </trkpt>
      <trkpt lat="47.31735" lon="-0.26201">
        <ele>70.79</ele>
        <time>2012-03-18T10:33:12Z</time>
      </trkpt>
      <trkpt lat="47.31721" lon="-0.26216">
        <ele>72.24</ele>
        <time>2012-03-18T10:33:20Z</time>
      </trkpt>
      <trkpt lat="47.31707" lon="-0.26229">
        <ele>74.16</ele>
        <time>2012-03-18T10:33:29Z</time>
      </trkpt>
      <trkpt lat="47.31695" lon="-0.26238">
        <ele>75.6</ele>
        <time>2012-03-18T10:33:37Z</time>
      </trkpt>
      <trkpt lat="47.31682" lon="-0.26248">
        <ele>77.52</ele>
        <time>2012-03-18T10:33:47Z</time>
      </trkpt>
      <trkpt lat="47.31673" lon="-0.26255">
        <ele>78.48</ele>
        <time>2012-03-18T10:33:53Z</time>
      </trkpt>
      <trkpt lat="47.31665" lon="-0.2626">
        <ele>78.97</ele>
        <time>2012-03-18T10:33:58Z</time>
      </trkpt>
      <trkpt lat="47.3165" lon="-0.26271">
        <ele>80.41</ele>
        <time>2012-03-18T10:34:08Z</time>
      </trkpt>
      <trkpt lat="47.31638" lon="-0.26278">
        <ele>80.89</ele>
        <time>2012-03-18T10:34:15Z</time>
      </trkpt>
      <trkpt lat="47.31617" lon="-0.26297">
        <ele>81.85</ele>
        <time>2012-03-18T10:34:26Z</time>
      </trkpt>
      <trkpt lat="47.31597" lon="-0.26318">
        <ele>81.85</ele>
        <time>2012-03-18T10:34:34Z</time>
      </trkpt>
      <trkpt lat="47.31576" lon="-0.26343">
        <ele>81.85</ele>
        <time>2012-03-18T10:34:42Z</time>
      </trkpt>
      <trkpt lat="47.31553" lon="-0.26371">
        <ele>81.85</ele>
        <time>2012-03-18T10:34:51Z</time>
      </trkpt>
      <trkpt lat="47.31524" lon="-0.26406">
        <ele>81.85</ele>
        <time>2012-03-18T10:35:02Z</time>
      </trkpt>
      <trkpt lat="47.31502" lon="-0.26433">
        <ele>81.85</ele>
        <time>2012-03-18T10:35:11Z</time>
      </trkpt>
      <trkpt lat="47.31482" lon="-0.26458">
        <ele>81.37</ele>
        <time>2012-03-18T10:35:19Z</time>
      </trkpt>
      <trkpt lat="47.31458" lon="-0.26486">
        <ele>81.37</ele>
        <time>2012-03-18T10:35:28Z</time>
      </trkpt>
      <trkpt lat="47.31435" lon="-0.26513">
        <ele>80.89</ele>
        <time>2012-03-18T10:35:37Z</time>
      </trkpt>
      <trkpt lat="47.31408" lon="-0.26544">
        <ele>81.85</ele>
        <time>2012-03-18T10:35:48Z</time>
      </trkpt>
      <trkpt lat="47.31395" lon="-0.26539">
        <ele>81.85</ele>
        <time>2012-03-18T10:35:53Z</time>
      </trkpt>
      <trkpt lat="47.31391" lon="-0.26532">
        <ele>82.33</ele>
        <time>2012-03-18T10:35:55Z</time>
      </trkpt>
      <trkpt lat="47.31369" lon="-0.26502">
        <ele>81.85</ele>
        <time>2012-03-18T10:36:03Z</time>
      </trkpt>
      <trkpt lat="47.31343" lon="-0.26466">
        <ele>82.33</ele>
        <time>2012-03-18T10:36:11Z</time>
      </trkpt>
      <trkpt lat="47.31327" lon="-0.26443">
        <ele>81.37</ele>
        <time>2012-03-18T10:36:16Z</time>
      </trkpt>
      <trkpt lat="47.31321" lon="-0.26432">
        <ele>81.37</ele>
        <time>2012-03-18T10:36:18Z</time>
      </trkpt>
      <trkpt lat="47.31302" lon="-0.26405">
        <ele>80.41</ele>
        <time>2012-03-18T10:36:25Z</time>
      </trkpt>
      <trkpt lat="47.31292" lon="-0.26411">
        <ele>79.93</ele>
        <time>2012-03-18T10:36:30Z</time>
      </trkpt>
      <trkpt lat="47.3128" lon="-0.26442">
        <ele>78.97</ele>
        <time>2012-03-18T10:36:37Z</time>
      </trkpt>
      <trkpt lat="47.31266" lon="-0.26471">
        <ele>76.56</ele>
        <time>2012-03-18T10:36:42Z</time>
      </trkpt>
      <trkpt lat="47.31259" lon="-0.26495">
        <ele>75.12</ele>
        <time>2012-03-18T10:36:46Z</time>
      </trkpt>
      <trkpt lat="47.31253" lon="-0.26535">
        <ele>73.2</ele>
        <time>2012-03-18T10:36:52Z</time>
      </trkpt>
      <trkpt lat="47.31241" lon="-0.26565">
        <ele>71.27</ele>
        <time>2012-03-18T10:36:56Z</time>
      </trkpt>
      <trkpt lat="47.31224" lon="-0.2659">
        <ele>70.79</ele>
        <time>2012-03-18T10:37:00Z</time>
      </trkpt>
      <trkpt lat="47.31205" lon="-0.26612">
        <ele>68.39</ele>
        <time>2012-03-18T10:37:04Z</time>
      </trkpt>
      <trkpt lat="47.31179" lon="-0.26636">
        <ele>66.95</ele>
        <time>2012-03-18T10:37:09Z</time>
      </trkpt>
      <trkpt lat="47.31161" lon="-0.26651">
        <ele>65.99</ele>
        <time>2012-03-18T10:37:13Z</time>
      </trkpt>
      <trkpt lat="47.31122" lon="-0.26685">
        <ele>62.14</ele>
        <time>2012-03-18T10:37:22Z</time>
      </trkpt>
      <trkpt lat="47.31118" lon="-0.26689">
        <ele>62.14</ele>
        <time>2012-03-18T10:37:23Z</time>
      </trkpt>
      <trkpt lat="47.31103" lon="-0.26709">
        <ele>60.22</ele>
        <time>2012-03-18T10:37:27Z</time>
      </trkpt>
      <trkpt lat="47.3109" lon="-0.26728">
        <ele>59.26</ele>
        <time>2012-03-18T10:37:32Z</time>
      </trkpt>
      <trkpt lat="47.31082" lon="-0.26736">
        <ele>58.78</ele>
        <time>2012-03-18T10:37:38Z</time>
      </trkpt>
      <trkpt lat="47.31081" lon="-0.26738">
        <ele>59.26</ele>
        <time>2012-03-18T10:37:45Z</time>
      </trkpt>
      <trkpt lat="47.31081" lon="-0.26738">
        <ele>58.78</ele>
        <time>2012-03-18T10:37:54Z</time>
      </trkpt>
      <trkpt lat="47.3108" lon="-0.2674">
        <ele>59.74</ele>
        <time>2012-03-18T10:38:00Z</time>
      </trkpt>
      <trkpt lat="47.31078" lon="-0.26746">
        <ele>58.78</ele>
        <time>2012-03-18T10:38:02Z</time>
      </trkpt>
      <trkpt lat="47.31072" lon="-0.26755">
        <ele>58.78</ele>
        <time>2012-03-18T10:38:06Z</time>
      </trkpt>
      <trkpt lat="47.31066" lon="-0.26774">
        <ele>58.78</ele>
        <time>2012-03-18T10:38:13Z</time>
      </trkpt>
      <trkpt lat="47.31059" lon="-0.26793">
        <ele>58.3</ele>
        <time>2012-03-18T10:38:19Z</time>
      </trkpt>
      <trkpt lat="47.31058" lon="-0.2681">
        <ele>57.82</ele>
        <time>2012-03-18T10:38:24Z</time>
      </trkpt>
      <trkpt lat="47.31059" lon="-0.26838">
        <ele>56.86</ele>
        <time>2012-03-18T10:38:29Z</time>
      </trkpt>
      <trkpt lat="47.31059" lon="-0.26865">
        <ele>56.86</ele>
        <time>2012-03-18T10:38:33Z</time>
      </trkpt>
      <trkpt lat="47.31058" lon="-0.26884">
        <ele>56.37</ele>
        <time>2012-03-18T10:38:36Z</time>
      </trkpt>
      <trkpt lat="47.31056" lon="-0.26897">
        <ele>55.41</ele>
        <time>2012-03-18T10:38:38Z</time>
      </trkpt>
      <trkpt lat="47.31054" lon="-0.2693">
        <ele>54.93</ele>
        <time>2012-03-18T10:38:43Z</time>
      </trkpt>
      <trkpt lat="47.31048" lon="-0.26967">
        <ele>54.45</ele>
        <time>2012-03-18T10:38:48Z</time>
      </trkpt>
      <trkpt lat="47.31038" lon="-0.27004">
        <ele>53.01</ele>
        <time>2012-03-18T10:38:54Z</time>
      </trkpt>
      <trkpt lat="47.31036" lon="-0.2703">
        <ele>52.53</ele>
        <time>2012-03-18T10:38:59Z</time>
      </trkpt>
      <trkpt lat="47.31038" lon="-0.27037">
        <ele>52.53</ele>
        <time>2012-03-18T10:39:00Z</time>
      </trkpt>
      <trkpt lat="47.31047" lon="-0.27061">
        <ele>52.05</ele>
        <time>2012-03-18T10:39:04Z</time>
      </trkpt>
      <trkpt lat="47.3105" lon="-0.27084">
        <ele>51.57</ele>
        <time>2012-03-18T10:39:08Z</time>
      </trkpt>
      <trkpt lat="47.3105" lon="-0.27096">
        <ele>51.09</ele>
        <time>2012-03-18T10:39:10Z</time>
      </trkpt>
      <trkpt lat="47.31041" lon="-0.27112">
        <ele>51.09</ele>
        <time>2012-03-18T10:39:14Z</time>
      </trkpt>
      <trkpt lat="47.31007" lon="-0.2714">
        <ele>51.09</ele>
        <time>2012-03-18T10:39:23Z</time>
      </trkpt>
      <trkpt lat="47.30982" lon="-0.27163">
        <ele>51.57</ele>
        <time>2012-03-18T10:39:30Z</time>
      </trkpt>
      <trkpt lat="47.30957" lon="-0.27196">
        <ele>50.13</ele>
        <time>2012-03-18T10:39:38Z</time>
      </trkpt>
      <trkpt lat="47.30926" lon="-0.27231">
        <ele>51.09</ele>
        <time>2012-03-18T10:39:48Z</time>
      </trkpt>
      <trkpt lat="47.30892" lon="-0.27264">
        <ele>51.09</ele>
        <time>2012-03-18T10:39:58Z</time>
      </trkpt>
      <trkpt lat="47.30886" lon="-0.27271">
        <ele>51.09</ele>
        <time>2012-03-18T10:40:00Z</time>
      </trkpt>
      <trkpt lat="47.30867" lon="-0.27287">
        <ele>51.09</ele>
        <time>2012-03-18T10:40:05Z</time>
      </trkpt>
      <trkpt lat="47.30837" lon="-0.27317">
        <ele>51.09</ele>
        <time>2012-03-18T10:40:14Z</time>
      </trkpt>
      <trkpt lat="47.30826" lon="-0.27326">
        <ele>51.57</ele>
        <time>2012-03-18T10:40:17Z</time>
      </trkpt>
      <trkpt lat="47.30796" lon="-0.27355">
        <ele>51.57</ele>
        <time>2012-03-18T10:40:26Z</time>
      </trkpt>
      <trkpt lat="47.3077" lon="-0.2738">
        <ele>51.57</ele>
        <time>2012-03-18T10:40:34Z</time>
      </trkpt>
      <trkpt lat="47.30742" lon="-0.27403">
        <ele>52.05</ele>
        <time>2012-03-18T10:40:42Z</time>
      </trkpt>
      <trkpt lat="47.30706" lon="-0.27429">
        <ele>52.53</ele>
        <time>2012-03-18T10:40:52Z</time>
      </trkpt>
      <trkpt lat="47.30689" lon="-0.27443">
        <ele>52.05</ele>
        <time>2012-03-18T10:40:57Z</time>
      </trkpt>
      <trkpt lat="47.30677" lon="-0.27449">
        <ele>52.53</ele>
        <time>2012-03-18T10:41:00Z</time>
      </trkpt>
      <trkpt lat="47.30647" lon="-0.27448">
        <ele>52.05</ele>
        <time>2012-03-18T10:41:08Z</time>
      </trkpt>
      <trkpt lat="47.30621" lon="-0.27435">
        <ele>52.53</ele>
        <time>2012-03-18T10:41:15Z</time>
      </trkpt>
      <trkpt lat="47.30604" lon="-0.27447">
        <ele>53.01</ele>
        <time>2012-03-18T10:41:21Z</time>
      </trkpt>
      <trkpt lat="47.30585" lon="-0.27467">
        <ele>53.49</ele>
        <time>2012-03-18T10:41:28Z</time>
      </trkpt>
      <trkpt lat="47.30569" lon="-0.27494">
        <ele>54.93</ele>
        <time>2012-03-18T10:41:35Z</time>
      </trkpt>
      <trkpt lat="47.30561" lon="-0.27507">
        <ele>54.45</ele>
        <time>2012-03-18T10:41:38Z</time>
      </trkpt>
      <trkpt lat="47.30543" lon="-0.27538">
        <ele>55.41</ele>
        <time>2012-03-18T10:41:45Z</time>
      </trkpt>
      <trkpt lat="47.30531" lon="-0.27561">
        <ele>55.41</ele>
        <time>2012-03-18T10:41:51Z</time>
      </trkpt>
      <trkpt lat="47.30513" lon="-0.27586">
        <ele>56.86</ele>
        <time>2012-03-18T10:41:58Z</time>
      </trkpt>
      <trkpt lat="47.3049" lon="-0.27604">
        <ele>57.34</ele>
        <time>2012-03-18T10:42:05Z</time>
      </trkpt>
      <trkpt lat="47.30461" lon="-0.27611">
        <ele>57.34</ele>
        <time>2012-03-18T10:42:13Z</time>
      </trkpt>
      <trkpt lat="47.30424" lon="-0.27613">
        <ele>56.86</ele>
        <time>2012-03-18T10:42:22Z</time>
      </trkpt>
      <trkpt lat="47.30407" lon="-0.27616">
        <ele>56.86</ele>
        <time>2012-03-18T10:42:26Z</time>
      </trkpt>
      <trkpt lat="47.3039" lon="-0.27619">
        <ele>55.89</ele>
        <time>2012-03-18T10:42:30Z</time>
      </trkpt>
      <trkpt lat="47.30372" lon="-0.27622">
        <ele>56.86</ele>
        <time>2012-03-18T10:42:34Z</time>
      </trkpt>
      <trkpt lat="47.30332" lon="-0.27629">
        <ele>56.37</ele>
        <time>2012-03-18T10:42:43Z</time>
      </trkpt>
      <trkpt lat="47.30306" lon="-0.27639">
        <ele>56.86</ele>
        <time>2012-03-18T10:42:49Z</time>
      </trkpt>
      <trkpt lat="47.30267" lon="-0.27663">
        <ele>56.86</ele>
        <time>2012-03-18T10:42:58Z</time>
      </trkpt>
      <trkpt lat="47.30243" lon="-0.27684">
        <ele>56.86</ele>
        <time>2012-03-18T10:43:05Z</time>
      </trkpt>
      <trkpt lat="47.30213" lon="-0.27709">
        <ele>58.3</ele>
        <time>2012-03-18T10:43:14Z</time>
      </trkpt>
      <trkpt lat="47.30187" lon="-0.27726">
        <ele>56.86</ele>
        <time>2012-03-18T10:43:21Z</time>
      </trkpt>
      <trkpt lat="47.30163" lon="-0.27744">
        <ele>57.34</ele>
        <time>2012-03-18T10:43:28Z</time>
      </trkpt>
      <trkpt lat="47.30146" lon="-0.27754">
        <ele>57.82</ele>
        <time>2012-03-18T10:43:33Z</time>
      </trkpt>
      <trkpt lat="47.30116" lon="-0.27774">
        <ele>58.3</ele>
        <time>2012-03-18T10:43:41Z</time>
      </trkpt>
      <trkpt lat="47.30095" lon="-0.27785">
        <ele>59.26</ele>
        <time>2012-03-18T10:43:47Z</time>
      </trkpt>
      <trkpt lat="47.30078" lon="-0.27797">
        <ele>58.78</ele>
        <time>2012-03-18T10:43:52Z</time>
      </trkpt>
      <trkpt lat="47.30054" lon="-0.27811">
        <ele>59.26</ele>
        <time>2012-03-18T10:43:59Z</time>
      </trkpt>
      <trkpt lat="47.30032" lon="-0.27818">
        <ele>59.26</ele>
        <time>2012-03-18T10:44:05Z</time>
      </trkpt>
      <trkpt lat="47.30008" lon="-0.27825">
        <ele>59.26</ele>
        <time>2012-03-18T10:44:11Z</time>
      </trkpt>
      <trkpt lat="47.29989" lon="-0.27827">
        <ele>59.26</ele>
        <time>2012-03-18T10:44:16Z</time>
      </trkpt>
      <trkpt lat="47.29965" lon="-0.27837">
        <ele>59.26</ele>
        <time>2012-03-18T10:44:23Z</time>
      </trkpt>
      <trkpt lat="47.29937" lon="-0.27857">
        <ele>59.26</ele>
        <time>2012-03-18T10:44:30Z</time>
      </trkpt>
      <trkpt lat="47.29913" lon="-0.27871">
        <ele>60.22</ele>
        <time>2012-03-18T10:44:37Z</time>
      </trkpt>
      <trkpt lat="47.29898" lon="-0.27882">
        <ele>61.18</ele>
        <time>2012-03-18T10:44:43Z</time>
      </trkpt>
      <trkpt lat="47.29893" lon="-0.27893">
        <ele>61.18</ele>
        <time>2012-03-18T10:44:49Z</time>
      </trkpt>
      <trkpt lat="47.29893" lon="-0.27891">
        <ele>60.22</ele>
        <time>2012-03-18T10:45:00Z</time>
      </trkpt>
      <trkpt lat="47.29893" lon="-0.27891">
        <ele>60.7</ele>
        <time>2012-03-18T10:45:15Z</time>
      </trkpt>
      <trkpt lat="47.29893" lon="-0.27891">
        <ele>60.7</ele>
        <time>2012-03-18T10:45:30Z</time>
      </trkpt>
      <trkpt lat="47.29893" lon="-0.27892">
        <ele>60.22</ele>
        <time>2012-03-18T10:45:31Z</time>
      </trkpt>
      <trkpt lat="47.29894" lon="-0.27894">
        <ele>61.18</ele>
        <time>2012-03-18T10:45:35Z</time>
      </trkpt>
      <trkpt lat="47.29897" lon="-0.27897">
        <ele>60.7</ele>
        <time>2012-03-18T10:45:41Z</time>
      </trkpt>
      <trkpt lat="47.29897" lon="-0.27897">
        <ele>60.7</ele>
        <time>2012-03-18T10:45:58Z</time>
      </trkpt>
      <trkpt lat="47.29897" lon="-0.27896">
        <ele>61.18</ele>
        <time>2012-03-18T10:46:20Z</time>
      </trkpt>
      <trkpt lat="47.29897" lon="-0.27896">
        <ele>61.18</ele>
        <time>2012-03-18T10:46:40Z</time>
      </trkpt>
      <trkpt lat="47.29896" lon="-0.27896">
        <ele>61.18</ele>
        <time>2012-03-18T10:46:59Z</time>
      </trkpt>
      <trkpt lat="47.29896" lon="-0.27896">
        <ele>61.18</ele>
        <time>2012-03-18T10:47:14Z</time>
      </trkpt>
      <trkpt lat="47.29896" lon="-0.27896">
        <ele>61.66</ele>
        <time>2012-03-18T10:47:34Z</time>
      </trkpt>
      <trkpt lat="47.29896" lon="-0.27896">
        <ele>61.18</ele>
        <time>2012-03-18T10:47:55Z</time>
      </trkpt>
      <trkpt lat="47.29896" lon="-0.27896">
        <ele>61.18</ele>
        <time>2012-03-18T10:48:14Z</time>
      </trkpt>
      <trkpt lat="47.29896" lon="-0.27896">
        <ele>61.66</ele>
        <time>2012-03-18T10:48:33Z</time>
      </trkpt>
      <trkpt lat="47.29896" lon="-0.27896">
        <ele>61.66</ele>
        <time>2012-03-18T10:48:51Z</time>
      </trkpt>
      <trkpt lat="47.29897" lon="-0.27897">
        <ele>61.66</ele>
        <time>2012-03-18T10:49:10Z</time>
      </trkpt>
      <trkpt lat="47.29897" lon="-0.27897">
        <ele>62.14</ele>
        <time>2012-03-18T10:49:28Z</time>
      </trkpt>
      <trkpt lat="47.29897" lon="-0.27897">
        <ele>61.66</ele>
        <time>2012-03-18T10:49:46Z</time>
      </trkpt>
      <trkpt lat="47.29897" lon="-0.27897">
        <ele>61.66</ele>
        <time>2012-03-18T10:50:05Z</time>
      </trkpt>
      <trkpt lat="47.29897" lon="-0.27898">
        <ele>61.18</ele>
        <time>2012-03-18T10:50:23Z</time>
      </trkpt>
      <trkpt lat="47.29897" lon="-0.27898">
        <ele>61.18</ele>
        <time>2012-03-18T10:50:43Z</time>
      </trkpt>
      <trkpt lat="47.29897" lon="-0.27898">
        <ele>61.18</ele>
        <time>2012-03-18T10:51:02Z</time>
      </trkpt>
      <trkpt lat="47.29897" lon="-0.27898">
        <ele>61.66</ele>
        <time>2012-03-18T10:51:18Z</time>
      </trkpt>
      <trkpt lat="47.29897" lon="-0.27898">
        <ele>61.18</ele>
        <time>2012-03-18T10:51:36Z</time>
      </trkpt>
      <trkpt lat="47.29897" lon="-0.27897">
        <ele>61.66</ele>
        <time>2012-03-18T10:51:54Z</time>
      </trkpt>
      <trkpt lat="47.29897" lon="-0.27897">
        <ele>61.66</ele>
        <time>2012-03-18T10:52:10Z</time>
      </trkpt>
      <trkpt lat="47.29897" lon="-0.27897">
        <ele>61.66</ele>
        <time>2012-03-18T10:52:32Z</time>
      </trkpt>
      <trkpt lat="47.29897" lon="-0.27897">
        <ele>61.66</ele>
        <time>2012-03-18T10:52:52Z</time>
      </trkpt>
      <trkpt lat="47.29897" lon="-0.27897">
        <ele>61.66</ele>
        <time>2012-03-18T10:53:02Z</time>
      </trkpt>
      <trkpt lat="47.29897" lon="-0.27897">
        <ele>61.66</ele>
        <time>2012-03-18T10:53:15Z</time>
      </trkpt>
      <trkpt lat="47.29897" lon="-0.27897">
        <ele>61.66</ele>
        <time>2012-03-18T10:53:17Z</time>
      </trkpt>
      <trkpt lat="47.29898" lon="-0.27891">
        <ele>61.66</ele>
        <time>2012-03-18T10:53:21Z</time>
      </trkpt>
      <trkpt lat="47.29891" lon="-0.27879">
        <ele>62.14</ele>
        <time>2012-03-18T10:53:28Z</time>
      </trkpt>
      <trkpt lat="47.29894" lon="-0.27884">
        <ele>61.66</ele>
        <time>2012-03-18T10:53:34Z</time>
      </trkpt>
      <trkpt lat="47.29898" lon="-0.27889">
        <ele>62.14</ele>
        <time>2012-03-18T10:53:37Z</time>
      </trkpt>
      <trkpt lat="47.29903" lon="-0.27906">
        <ele>61.18</ele>
        <time>2012-03-18T10:53:40Z</time>
      </trkpt>
      <trkpt lat="47.29906" lon="-0.27919">
        <ele>61.18</ele>
        <time>2012-03-18T10:53:42Z</time>
      </trkpt>
      <trkpt lat="47.2992" lon="-0.2797">
        <ele>61.66</ele>
        <time>2012-03-18T10:53:51Z</time>
      </trkpt>
      <trkpt lat="47.29928" lon="-0.28001">
        <ele>64.07</ele>
        <time>2012-03-18T10:53:58Z</time>
      </trkpt>
      <trkpt lat="47.29936" lon="-0.28029">
        <ele>66.47</ele>
        <time>2012-03-18T10:54:06Z</time>
      </trkpt>
      <trkpt lat="47.2994" lon="-0.28045">
        <ele>67.43</ele>
        <time>2012-03-18T10:54:11Z</time>
      </trkpt>
      <trkpt lat="47.29946" lon="-0.2807">
        <ele>69.35</ele>
        <time>2012-03-18T10:54:19Z</time>
      </trkpt>
      <trkpt lat="47.29952" lon="-0.28087">
        <ele>69.83</ele>
        <time>2012-03-18T10:54:25Z</time>
      </trkpt>
      <trkpt lat="47.2996" lon="-0.28105">
        <ele>71.76</ele>
        <time>2012-03-18T10:54:32Z</time>
      </trkpt>
      <trkpt lat="47.29967" lon="-0.28122">
        <ele>72.72</ele>
        <time>2012-03-18T10:54:38Z</time>
      </trkpt>
      <trkpt lat="47.29971" lon="-0.28141">
        <ele>72.72</ele>
        <time>2012-03-18T10:54:44Z</time>
      </trkpt>
      <trkpt lat="47.29972" lon="-0.28165">
        <ele>73.2</ele>
        <time>2012-03-18T10:54:50Z</time>
      </trkpt>
      <trkpt lat="47.29979" lon="-0.28195">
        <ele>73.2</ele>
        <time>2012-03-18T10:54:58Z</time>
      </trkpt>
      <trkpt lat="47.29985" lon="-0.28214">
        <ele>73.2</ele>
        <time>2012-03-18T10:55:03Z</time>
      </trkpt>
      <trkpt lat="47.29987" lon="-0.28216">
        <ele>72.72</ele>
        <time>2012-03-18T10:55:04Z</time>
      </trkpt>
      <trkpt lat="47.2999" lon="-0.28239">
        <ele>72.72</ele>
        <time>2012-03-18T10:55:09Z</time>
      </trkpt>
      <trkpt lat="47.3" lon="-0.28259">
        <ele>72.24</ele>
        <time>2012-03-18T10:55:14Z</time>
      </trkpt>
      <trkpt lat="47.3" lon="-0.28277">
        <ele>72.72</ele>
        <time>2012-03-18T10:55:18Z</time>
      </trkpt>
      <trkpt lat="47.30007" lon="-0.28299">
        <ele>73.68</ele>
        <time>2012-03-18T10:55:24Z</time>
      </trkpt>
      <trkpt lat="47.30012" lon="-0.28319">
        <ele>76.08</ele>
        <time>2012-03-18T10:55:31Z</time>
      </trkpt>
      <trkpt lat="47.30015" lon="-0.28322">
        <ele>76.56</ele>
        <time>2012-03-18T10:55:32Z</time>
      </trkpt>
      <trkpt lat="47.30017" lon="-0.28322">
        <ele>76.56</ele>
        <time>2012-03-18T10:55:33Z</time>
      </trkpt>
      <trkpt lat="47.3003" lon="-0.28307">
        <ele>77.52</ele>
        <time>2012-03-18T10:55:41Z</time>
      </trkpt>
      <trkpt lat="47.30039" lon="-0.2829">
        <ele>78</ele>
        <time>2012-03-18T10:55:48Z</time>
      </trkpt>
      <trkpt lat="47.30051" lon="-0.28271">
        <ele>78.48</ele>
        <time>2012-03-18T10:55:57Z</time>
      </trkpt>
      <trkpt lat="47.30064" lon="-0.2826">
        <ele>78.48</ele>
        <time>2012-03-18T10:56:05Z</time>
      </trkpt>
      <trkpt lat="47.30077" lon="-0.28252">
        <ele>78.97</ele>
        <time>2012-03-18T10:56:12Z</time>
      </trkpt>
      <trkpt lat="47.3009" lon="-0.28245">
        <ele>79.45</ele>
        <time>2012-03-18T10:56:18Z</time>
      </trkpt>
      <trkpt lat="47.30101" lon="-0.28238">
        <ele>80.41</ele>
        <time>2012-03-18T10:56:24Z</time>
      </trkpt>
      <trkpt lat="47.30115" lon="-0.28228">
        <ele>80.89</ele>
        <time>2012-03-18T10:56:31Z</time>
      </trkpt>
      <trkpt lat="47.30136" lon="-0.28213">
        <ele>80.89</ele>
        <time>2012-03-18T10:56:38Z</time>
      </trkpt>
      <trkpt lat="47.3016" lon="-0.28196">
        <ele>80.41</ele>
        <time>2012-03-18T10:56:45Z</time>
      </trkpt>
      <trkpt lat="47.30184" lon="-0.28179">
        <ele>78.97</ele>
        <time>2012-03-18T10:56:52Z</time>
      </trkpt>
      <trkpt lat="47.30192" lon="-0.28174">
        <ele>78.97</ele>
        <time>2012-03-18T10:56:54Z</time>
      </trkpt>
      <trkpt lat="47.30211" lon="-0.28165">
        <ele>78.48</ele>
        <time>2012-03-18T10:56:58Z</time>
      </trkpt>
      <trkpt lat="47.30237" lon="-0.28155">
        <ele>77.04</ele>
        <time>2012-03-18T10:57:06Z</time>
      </trkpt>
      <trkpt lat="47.30264" lon="-0.28146">
        <ele>76.08</ele>
        <time>2012-03-18T10:57:14Z</time>
      </trkpt>
      <trkpt lat="47.30275" lon="-0.28143">
        <ele>76.56</ele>
        <time>2012-03-18T10:57:18Z</time>
      </trkpt>
      <trkpt lat="47.30293" lon="-0.28146">
        <ele>78</ele>
        <time>2012-03-18T10:57:24Z</time>
      </trkpt>
      <trkpt lat="47.30309" lon="-0.2815">
        <ele>79.45</ele>
        <time>2012-03-18T10:57:30Z</time>
      </trkpt>
      <trkpt lat="47.30327" lon="-0.28161">
        <ele>81.37</ele>
        <time>2012-03-18T10:57:38Z</time>
      </trkpt>
      <trkpt lat="47.30337" lon="-0.28168">
        <ele>81.85</ele>
        <time>2012-03-18T10:57:43Z</time>
      </trkpt>
      <trkpt lat="47.3035" lon="-0.28182">
        <ele>83.29</ele>
        <time>2012-03-18T10:57:51Z</time>
      </trkpt>
      <trkpt lat="47.30357" lon="-0.28193">
        <ele>83.29</ele>
        <time>2012-03-18T10:57:57Z</time>
      </trkpt>
      <trkpt lat="47.30369" lon="-0.28208">
        <ele>86.18</ele>
        <time>2012-03-18T10:58:06Z</time>
      </trkpt>
      <trkpt lat="47.30379" lon="-0.28221">
        <ele>86.66</ele>
        <time>2012-03-18T10:58:14Z</time>
      </trkpt>
      <trkpt lat="47.3038" lon="-0.28223">
        <ele>87.14</ele>
        <time>2012-03-18T10:58:15Z</time>
      </trkpt>
      <trkpt lat="47.30384" lon="-0.28231">
        <ele>87.62</ele>
        <time>2012-03-18T10:58:19Z</time>
      </trkpt>
      <trkpt lat="47.30398" lon="-0.28246">
        <ele>88.58</ele>
        <time>2012-03-18T10:58:28Z</time>
      </trkpt>
      <trkpt lat="47.3041" lon="-0.28262">
        <ele>88.58</ele>
        <time>2012-03-18T10:58:36Z</time>
      </trkpt>
      <trkpt lat="47.30424" lon="-0.28282">
        <ele>89.06</ele>
        <time>2012-03-18T10:58:43Z</time>
      </trkpt>
      <trkpt lat="47.30438" lon="-0.28304">
        <ele>89.54</ele>
        <time>2012-03-18T10:58:51Z</time>
      </trkpt>
      <trkpt lat="47.30448" lon="-0.28319">
        <ele>89.54</ele>
        <time>2012-03-18T10:58:57Z</time>
      </trkpt>
      <trkpt lat="47.30459" lon="-0.28337">
        <ele>89.54</ele>
        <time>2012-03-18T10:59:04Z</time>
      </trkpt>
      <trkpt lat="47.30469" lon="-0.28354">
        <ele>90.5</ele>
        <time>2012-03-18T10:59:10Z</time>
      </trkpt>
      <trkpt lat="47.30481" lon="-0.28371">
        <ele>90.5</ele>
        <time>2012-03-18T10:59:16Z</time>
      </trkpt>
      <trkpt lat="47.30497" lon="-0.28396">
        <ele>90.98</ele>
        <time>2012-03-18T10:59:23Z</time>
      </trkpt>
      <trkpt lat="47.30512" lon="-0.28423">
        <ele>90.02</ele>
        <time>2012-03-18T10:59:29Z</time>
      </trkpt>
      <trkpt lat="47.30515" lon="-0.28428">
        <ele>89.54</ele>
        <time>2012-03-18T10:59:30Z</time>
      </trkpt>
      <trkpt lat="47.30532" lon="-0.2846">
        <ele>90.02</ele>
        <time>2012-03-18T10:59:37Z</time>
      </trkpt>
      <trkpt lat="47.30536" lon="-0.28471">
        <ele>89.54</ele>
        <time>2012-03-18T10:59:39Z</time>
      </trkpt>
      <trkpt lat="47.30551" lon="-0.28501">
        <ele>89.54</ele>
        <time>2012-03-18T10:59:45Z</time>
      </trkpt>
      <trkpt lat="47.30567" lon="-0.28526">
        <ele>89.54</ele>
        <time>2012-03-18T10:59:50Z</time>
      </trkpt>
      <trkpt lat="47.30581" lon="-0.28554">
        <ele>90.5</ele>
        <time>2012-03-18T10:59:55Z</time>
      </trkpt>
      <trkpt lat="47.30596" lon="-0.28593">
        <ele>90.98</ele>
        <time>2012-03-18T11:00:02Z</time>
      </trkpt>
      <trkpt lat="47.30601" lon="-0.28612">
        <ele>90.5</ele>
        <time>2012-03-18T11:00:05Z</time>
      </trkpt>
      <trkpt lat="47.30603" lon="-0.28655">
        <ele>90.5</ele>
        <time>2012-03-18T11:00:11Z</time>
      </trkpt>
      <trkpt lat="47.30591" lon="-0.28717">
        <ele>90.02</ele>
        <time>2012-03-18T11:00:20Z</time>
      </trkpt>
      <trkpt lat="47.30581" lon="-0.2875">
        <ele>90.02</ele>
        <time>2012-03-18T11:00:25Z</time>
      </trkpt>
      <trkpt lat="47.30576" lon="-0.28759">
        <ele>90.5</ele>
        <time>2012-03-18T11:00:27Z</time>
      </trkpt>
      <trkpt lat="47.30564" lon="-0.28775">
        <ele>90.98</ele>
        <time>2012-03-18T11:00:31Z</time>
      </trkpt>
      <trkpt lat="47.30558" lon="-0.28803">
        <ele>90.98</ele>
        <time>2012-03-18T11:00:36Z</time>
      </trkpt>
      <trkpt lat="47.30559" lon="-0.28844">
        <ele>89.06</ele>
        <time>2012-03-18T11:00:43Z</time>
      </trkpt>
      <trkpt lat="47.30559" lon="-0.28863">
        <ele>89.06</ele>
        <time>2012-03-18T11:00:46Z</time>
      </trkpt>
      <trkpt lat="47.30556" lon="-0.28878">
        <ele>88.1</ele>
        <time>2012-03-18T11:00:48Z</time>
      </trkpt>
      <trkpt lat="47.30541" lon="-0.28915">
        <ele>87.62</ele>
        <time>2012-03-18T11:00:54Z</time>
      </trkpt>
      <trkpt lat="47.30538" lon="-0.28921">
        <ele>88.1</ele>
        <time>2012-03-18T11:00:55Z</time>
      </trkpt>
      <trkpt lat="47.30512" lon="-0.28972">
        <ele>86.66</ele>
        <time>2012-03-18T11:01:04Z</time>
      </trkpt>
      <trkpt lat="47.3049" lon="-0.29019">
        <ele>82.33</ele>
        <time>2012-03-18T11:01:10Z</time>
      </trkpt>
      <trkpt lat="47.30478" lon="-0.2904">
        <ele>80.89</ele>
        <time>2012-03-18T11:01:13Z</time>
      </trkpt>
      <trkpt lat="47.30464" lon="-0.29071">
        <ele>76.08</ele>
        <time>2012-03-18T11:01:18Z</time>
      </trkpt>
      <trkpt lat="47.30459" lon="-0.29079">
        <ele>74.64</ele>
        <time>2012-03-18T11:01:20Z</time>
      </trkpt>
      <trkpt lat="47.30459" lon="-0.29096">
        <ele>73.2</ele>
        <time>2012-03-18T11:01:25Z</time>
      </trkpt>
      <trkpt lat="47.30471" lon="-0.29125">
        <ele>70.79</ele>
        <time>2012-03-18T11:01:30Z</time>
      </trkpt>
      <trkpt lat="47.30478" lon="-0.29138">
        <ele>70.31</ele>
        <time>2012-03-18T11:01:32Z</time>
      </trkpt>
      <trkpt lat="47.30496" lon="-0.29168">
        <ele>67.43</ele>
        <time>2012-03-18T11:01:36Z</time>
      </trkpt>
      <trkpt lat="47.30508" lon="-0.29192">
        <ele>65.51</ele>
        <time>2012-03-18T11:01:39Z</time>
      </trkpt>
      <trkpt lat="47.30512" lon="-0.292">
        <ele>64.55</ele>
        <time>2012-03-18T11:01:40Z</time>
      </trkpt>
      <trkpt lat="47.30525" lon="-0.29223">
        <ele>62.62</ele>
        <time>2012-03-18T11:01:45Z</time>
      </trkpt>
      <trkpt lat="47.30531" lon="-0.29227">
        <ele>61.66</ele>
        <time>2012-03-18T11:01:46Z</time>
      </trkpt>
      <trkpt lat="47.30534" lon="-0.29232">
        <ele>61.66</ele>
        <time>2012-03-18T11:01:48Z</time>
      </trkpt>
      <trkpt lat="47.3054" lon="-0.2925">
        <ele>61.66</ele>
        <time>2012-03-18T11:01:53Z</time>
      </trkpt>
      <trkpt lat="47.30555" lon="-0.29238">
        <ele>61.18</ele>
        <time>2012-03-18T11:01:58Z</time>
      </trkpt>
      <trkpt lat="47.30565" lon="-0.29243">
        <ele>61.66</ele>
        <time>2012-03-18T11:02:01Z</time>
      </trkpt>
      <trkpt lat="47.30582" lon="-0.29265">
        <ele>63.1</ele>
        <time>2012-03-18T11:02:09Z</time>
      </trkpt>
      <trkpt lat="47.30584" lon="-0.29267">
        <ele>63.1</ele>
        <time>2012-03-18T11:02:10Z</time>
      </trkpt>
      <trkpt lat="47.30589" lon="-0.29272">
        <ele>63.58</ele>
        <time>2012-03-18T11:02:14Z</time>
      </trkpt>
      <trkpt lat="47.30596" lon="-0.29288">
        <ele>64.55</ele>
        <time>2012-03-18T11:02:21Z</time>
      </trkpt>
      <trkpt lat="47.30606" lon="-0.29307">
        <ele>65.51</ele>
        <time>2012-03-18T11:02:28Z</time>
      </trkpt>
      <trkpt lat="47.30613" lon="-0.29319">
        <ele>66.47</ele>
        <time>2012-03-18T11:02:33Z</time>
      </trkpt>
      <trkpt lat="47.30621" lon="-0.29332">
        <ele>67.43</ele>
        <time>2012-03-18T11:02:39Z</time>
      </trkpt>
      <trkpt lat="47.30622" lon="-0.29334">
        <ele>67.43</ele>
        <time>2012-03-18T11:02:40Z</time>
      </trkpt>
      <trkpt lat="47.3063" lon="-0.29347">
        <ele>67.91</ele>
        <time>2012-03-18T11:02:46Z</time>
      </trkpt>
      <trkpt lat="47.30638" lon="-0.29356">
        <ele>68.39</ele>
        <time>2012-03-18T11:02:51Z</time>
      </trkpt>
      <trkpt lat="47.30648" lon="-0.29371">
        <ele>70.31</ele>
        <time>2012-03-18T11:02:59Z</time>
      </trkpt>
      <trkpt lat="47.30651" lon="-0.29374">
        <ele>69.83</ele>
        <time>2012-03-18T11:03:01Z</time>
      </trkpt>
      <trkpt lat="47.30662" lon="-0.29386">
        <ele>71.27</ele>
        <time>2012-03-18T11:03:08Z</time>
      </trkpt>
      <trkpt lat="47.30668" lon="-0.29393">
        <ele>72.24</ele>
        <time>2012-03-18T11:03:13Z</time>
      </trkpt>
      <trkpt lat="47.30674" lon="-0.29407">
        <ele>74.16</ele>
        <time>2012-03-18T11:03:21Z</time>
      </trkpt>
      <trkpt lat="47.30686" lon="-0.29422">
        <ele>75.12</ele>
        <time>2012-03-18T11:03:30Z</time>
      </trkpt>
      <trkpt lat="47.30689" lon="-0.2943">
        <ele>75.6</ele>
        <time>2012-03-18T11:03:35Z</time>
      </trkpt>
      <trkpt lat="47.30701" lon="-0.29442">
        <ele>77.52</ele>
        <time>2012-03-18T11:03:44Z</time>
      </trkpt>
      <trkpt lat="47.30708" lon="-0.29455">
        <ele>78.48</ele>
        <time>2012-03-18T11:03:52Z</time>
      </trkpt>
      <trkpt lat="47.30713" lon="-0.29466">
        <ele>80.41</ele>
        <time>2012-03-18T11:03:59Z</time>
      </trkpt>
      <trkpt lat="47.30714" lon="-0.29467">
        <ele>80.41</ele>
        <time>2012-03-18T11:04:00Z</time>
      </trkpt>
      <trkpt lat="47.3072" lon="-0.29477">
        <ele>81.37</ele>
        <time>2012-03-18T11:04:06Z</time>
      </trkpt>
      <trkpt lat="47.30725" lon="-0.29485">
        <ele>82.81</ele>
        <time>2012-03-18T11:04:11Z</time>
      </trkpt>
      <trkpt lat="47.30734" lon="-0.29499">
        <ele>84.25</ele>
        <time>2012-03-18T11:04:20Z</time>
      </trkpt>
      <trkpt lat="47.30736" lon="-0.29502">
        <ele>84.25</ele>
        <time>2012-03-18T11:04:22Z</time>
      </trkpt>
      <trkpt lat="47.30741" lon="-0.29508">
        <ele>84.73</ele>
        <time>2012-03-18T11:04:27Z</time>
      </trkpt>
      <trkpt lat="47.30743" lon="-0.2951">
        <ele>85.21</ele>
        <time>2012-03-18T11:04:29Z</time>
      </trkpt>
      <trkpt lat="47.30749" lon="-0.29522">
        <ele>86.66</ele>
        <time>2012-03-18T11:04:37Z</time>
      </trkpt>
      <trkpt lat="47.3075" lon="-0.29524">
        <ele>86.66</ele>
        <time>2012-03-18T11:04:38Z</time>
      </trkpt>
      <trkpt lat="47.30751" lon="-0.29539">
        <ele>87.14</ele>
        <time>2012-03-18T11:04:45Z</time>
      </trkpt>
      <trkpt lat="47.30751" lon="-0.29551">
        <ele>87.62</ele>
        <time>2012-03-18T11:04:50Z</time>
      </trkpt>
      <trkpt lat="47.30751" lon="-0.29562">
        <ele>88.1</ele>
        <time>2012-03-18T11:04:54Z</time>
      </trkpt>
      <trkpt lat="47.3075" lon="-0.2958">
        <ele>88.1</ele>
        <time>2012-03-18T11:05:01Z</time>
      </trkpt>
      <trkpt lat="47.30749" lon="-0.29602">
        <ele>89.06</ele>
        <time>2012-03-18T11:05:08Z</time>
      </trkpt>
      <trkpt lat="47.30749" lon="-0.29613">
        <ele>90.02</ele>
        <time>2012-03-18T11:05:12Z</time>
      </trkpt>
      <trkpt lat="47.30744" lon="-0.29631">
        <ele>90.02</ele>
        <time>2012-03-18T11:05:18Z</time>
      </trkpt>
      <trkpt lat="47.30743" lon="-0.29637">
        <ele>89.54</ele>
        <time>2012-03-18T11:05:20Z</time>
      </trkpt>
      <trkpt lat="47.3074" lon="-0.29658">
        <ele>90.02</ele>
        <time>2012-03-18T11:05:25Z</time>
      </trkpt>
      <trkpt lat="47.30737" lon="-0.29685">
        <ele>89.54</ele>
        <time>2012-03-18T11:05:31Z</time>
      </trkpt>
      <trkpt lat="47.30732" lon="-0.29711">
        <ele>90.5</ele>
        <time>2012-03-18T11:05:36Z</time>
      </trkpt>
      <trkpt lat="47.30726" lon="-0.29749">
        <ele>89.54</ele>
        <time>2012-03-18T11:05:43Z</time>
      </trkpt>
      <trkpt lat="47.30722" lon="-0.29777">
        <ele>90.5</ele>
        <time>2012-03-18T11:05:48Z</time>
      </trkpt>
      <trkpt lat="47.30718" lon="-0.2982">
        <ele>90.02</ele>
        <time>2012-03-18T11:05:56Z</time>
      </trkpt>
      <trkpt lat="47.30718" lon="-0.29844">
        <ele>89.06</ele>
        <time>2012-03-18T11:06:00Z</time>
      </trkpt>
      <trkpt lat="47.30714" lon="-0.29876">
        <ele>88.58</ele>
        <time>2012-03-18T11:06:05Z</time>
      </trkpt>
      <trkpt lat="47.30711" lon="-0.299">
        <ele>88.58</ele>
        <time>2012-03-18T11:06:09Z</time>
      </trkpt>
      <trkpt lat="47.30706" lon="-0.29921">
        <ele>88.1</ele>
        <time>2012-03-18T11:06:13Z</time>
      </trkpt>
      <trkpt lat="47.30701" lon="-0.29948">
        <ele>88.1</ele>
        <time>2012-03-18T11:06:17Z</time>
      </trkpt>
      <trkpt lat="47.30693" lon="-0.29992">
        <ele>89.54</ele>
        <time>2012-03-18T11:06:25Z</time>
      </trkpt>
      <trkpt lat="47.30689" lon="-0.30023">
        <ele>90.02</ele>
        <time>2012-03-18T11:06:31Z</time>
      </trkpt>
      <trkpt lat="47.30685" lon="-0.30045">
        <ele>90.98</ele>
        <time>2012-03-18T11:06:35Z</time>
      </trkpt>
      <trkpt lat="47.30684" lon="-0.30073">
        <ele>91.94</ele>
        <time>2012-03-18T11:06:41Z</time>
      </trkpt>
      <trkpt lat="47.30681" lon="-0.30097">
        <ele>92.42</ele>
        <time>2012-03-18T11:06:47Z</time>
      </trkpt>
      <trkpt lat="47.30681" lon="-0.30102">
        <ele>92.42</ele>
        <time>2012-03-18T11:06:48Z</time>
      </trkpt>
      <trkpt lat="47.3068" lon="-0.30121">
        <ele>92.9</ele>
        <time>2012-03-18T11:06:54Z</time>
      </trkpt>
      <trkpt lat="47.30679" lon="-0.30134">
        <ele>93.39</ele>
        <time>2012-03-18T11:06:58Z</time>
      </trkpt>
      <trkpt lat="47.30673" lon="-0.30168">
        <ele>94.35</ele>
        <time>2012-03-18T11:07:07Z</time>
      </trkpt>
      <trkpt lat="47.30667" lon="-0.30192">
        <ele>94.83</ele>
        <time>2012-03-18T11:07:13Z</time>
      </trkpt>
      <trkpt lat="47.30658" lon="-0.30229">
        <ele>95.31</ele>
        <time>2012-03-18T11:07:21Z</time>
      </trkpt>
      <trkpt lat="47.30649" lon="-0.30263">
        <ele>95.31</ele>
        <time>2012-03-18T11:07:29Z</time>
      </trkpt>
      <trkpt lat="47.30643" lon="-0.30289">
        <ele>95.79</ele>
        <time>2012-03-18T11:07:35Z</time>
      </trkpt>
      <trkpt lat="47.30633" lon="-0.30326">
        <ele>95.79</ele>
        <time>2012-03-18T11:07:43Z</time>
      </trkpt>
      <trkpt lat="47.30621" lon="-0.30374">
        <ele>96.75</ele>
        <time>2012-03-18T11:07:53Z</time>
      </trkpt>
      <trkpt lat="47.3061" lon="-0.30414">
        <ele>96.75</ele>
        <time>2012-03-18T11:08:01Z</time>
      </trkpt>
      <trkpt lat="47.30598" lon="-0.3046">
        <ele>96.27</ele>
        <time>2012-03-18T11:08:10Z</time>
      </trkpt>
      <trkpt lat="47.30595" lon="-0.3047">
        <ele>96.27</ele>
        <time>2012-03-18T11:08:12Z</time>
      </trkpt>
      <trkpt lat="47.3059" lon="-0.30491">
        <ele>96.75</ele>
        <time>2012-03-18T11:08:16Z</time>
      </trkpt>
      <trkpt lat="47.30577" lon="-0.30546">
        <ele>96.27</ele>
        <time>2012-03-18T11:08:27Z</time>
      </trkpt>
      <trkpt lat="47.30568" lon="-0.30586">
        <ele>96.75</ele>
        <time>2012-03-18T11:08:35Z</time>
      </trkpt>
      <trkpt lat="47.30564" lon="-0.30617">
        <ele>96.75</ele>
        <time>2012-03-18T11:08:42Z</time>
      </trkpt>
      <trkpt lat="47.30579" lon="-0.30622">
        <ele>96.75</ele>
        <time>2012-03-18T11:08:47Z</time>
      </trkpt>
      <trkpt lat="47.30583" lon="-0.30621">
        <ele>96.27</ele>
        <time>2012-03-18T11:08:48Z</time>
      </trkpt>
      <trkpt lat="47.3061" lon="-0.3061">
        <ele>96.75</ele>
        <time>2012-03-18T11:08:55Z</time>
      </trkpt>
      <trkpt lat="47.30622" lon="-0.30604">
        <ele>96.75</ele>
        <time>2012-03-18T11:08:58Z</time>
      </trkpt>
      <trkpt lat="47.30662" lon="-0.30589">
        <ele>95.31</ele>
        <time>2012-03-18T11:09:07Z</time>
      </trkpt>
      <trkpt lat="47.30671" lon="-0.30586">
        <ele>95.31</ele>
        <time>2012-03-18T11:09:09Z</time>
      </trkpt>
      <trkpt lat="47.30693" lon="-0.30587">
        <ele>94.83</ele>
        <time>2012-03-18T11:09:14Z</time>
      </trkpt>
      <trkpt lat="47.30706" lon="-0.30594">
        <ele>94.83</ele>
        <time>2012-03-18T11:09:17Z</time>
      </trkpt>
      <trkpt lat="47.30734" lon="-0.30613">
        <ele>93.87</ele>
        <time>2012-03-18T11:09:23Z</time>
      </trkpt>
      <trkpt lat="47.30776" lon="-0.30637">
        <ele>92.42</ele>
        <time>2012-03-18T11:09:31Z</time>
      </trkpt>
      <trkpt lat="47.30809" lon="-0.30659">
        <ele>91.94</ele>
        <time>2012-03-18T11:09:38Z</time>
      </trkpt>
      <trkpt lat="47.3084" lon="-0.30679">
        <ele>90.5</ele>
        <time>2012-03-18T11:09:44Z</time>
      </trkpt>
      <trkpt lat="47.30873" lon="-0.30699">
        <ele>90.98</ele>
        <time>2012-03-18T11:09:50Z</time>
      </trkpt>
      <trkpt lat="47.30886" lon="-0.30707">
        <ele>91.46</ele>
        <time>2012-03-18T11:09:53Z</time>
      </trkpt>
      <trkpt lat="47.30917" lon="-0.30727">
        <ele>91.94</ele>
        <time>2012-03-18T11:10:01Z</time>
      </trkpt>
      <trkpt lat="47.30921" lon="-0.3073">
        <ele>91.46</ele>
        <time>2012-03-18T11:10:02Z</time>
      </trkpt>
      <trkpt lat="47.30943" lon="-0.30744">
        <ele>90.98</ele>
        <time>2012-03-18T11:10:07Z</time>
      </trkpt>
      <trkpt lat="47.30968" lon="-0.30765">
        <ele>90.5</ele>
        <time>2012-03-18T11:10:13Z</time>
      </trkpt>
      <trkpt lat="47.30986" lon="-0.30769">
        <ele>89.54</ele>
        <time>2012-03-18T11:10:18Z</time>
      </trkpt>
      <trkpt lat="47.30988" lon="-0.30764">
        <ele>89.06</ele>
        <time>2012-03-18T11:10:19Z</time>
      </trkpt>
      <trkpt lat="47.30993" lon="-0.30734">
        <ele>87.14</ele>
        <time>2012-03-18T11:10:25Z</time>
      </trkpt>
      <trkpt lat="47.30994" lon="-0.3073">
        <ele>87.62</ele>
        <time>2012-03-18T11:10:26Z</time>
      </trkpt>
      <trkpt lat="47.30997" lon="-0.30727">
        <ele>88.1</ele>
        <time>2012-03-18T11:10:28Z</time>
      </trkpt>
      <trkpt lat="47.31009" lon="-0.30726">
        <ele>91.46</ele>
        <time>2012-03-18T11:10:35Z</time>
      </trkpt>
      <trkpt lat="47.31011" lon="-0.30726">
        <ele>90.5</ele>
        <time>2012-03-18T11:10:43Z</time>
      </trkpt>
      <trkpt lat="47.31012" lon="-0.30726">
        <ele>91.46</ele>
        <time>2012-03-18T11:10:49Z</time>
      </trkpt>
      <trkpt lat="47.31018" lon="-0.30725">
        <ele>91.94</ele>
        <time>2012-03-18T11:10:55Z</time>
      </trkpt>
      <trkpt lat="47.31029" lon="-0.30726">
        <ele>92.42</ele>
        <time>2012-03-18T11:11:01Z</time>
      </trkpt>
      <trkpt lat="47.31039" lon="-0.30727">
        <ele>93.39</ele>
        <time>2012-03-18T11:11:08Z</time>
      </trkpt>
      <trkpt lat="47.3105" lon="-0.30727">
        <ele>93.87</ele>
        <time>2012-03-18T11:11:14Z</time>
      </trkpt>
      <trkpt lat="47.31065" lon="-0.3073">
        <ele>94.35</ele>
        <time>2012-03-18T11:11:23Z</time>
      </trkpt>
      <trkpt lat="47.31071" lon="-0.3073">
        <ele>93.87</ele>
        <time>2012-03-18T11:11:28Z</time>
      </trkpt>
      <trkpt lat="47.31077" lon="-0.3073">
        <ele>94.35</ele>
        <time>2012-03-18T11:11:32Z</time>
      </trkpt>
      <trkpt lat="47.31086" lon="-0.3073">
        <ele>94.83</ele>
        <time>2012-03-18T11:11:36Z</time>
      </trkpt>
      <trkpt lat="47.31089" lon="-0.30729">
        <ele>94.83</ele>
        <time>2012-03-18T11:11:41Z</time>
      </trkpt>
      <trkpt lat="47.31095" lon="-0.3073">
        <ele>94.83</ele>
        <time>2012-03-18T11:11:45Z</time>
      </trkpt>
      <trkpt lat="47.31101" lon="-0.3073">
        <ele>95.31</ele>
        <time>2012-03-18T11:11:51Z</time>
      </trkpt>
      <trkpt lat="47.31102" lon="-0.30731">
        <ele>95.31</ele>
        <time>2012-03-18T11:11:52Z</time>
      </trkpt>
      <trkpt lat="47.31116" lon="-0.3073">
        <ele>94.83</ele>
        <time>2012-03-18T11:12:00Z</time>
      </trkpt>
      <trkpt lat="47.31125" lon="-0.3073">
        <ele>95.79</ele>
        <time>2012-03-18T11:12:04Z</time>
      </trkpt>
      <trkpt lat="47.31128" lon="-0.30731">
        <ele>95.31</ele>
        <time>2012-03-18T11:12:06Z</time>
      </trkpt>
      <trkpt lat="47.31138" lon="-0.30733">
        <ele>95.79</ele>
        <time>2012-03-18T11:12:11Z</time>
      </trkpt>
      <trkpt lat="47.31149" lon="-0.30733">
        <ele>94.83</ele>
        <time>2012-03-18T11:12:18Z</time>
      </trkpt>
      <trkpt lat="47.3115" lon="-0.30733">
        <ele>94.83</ele>
        <time>2012-03-18T11:12:24Z</time>
      </trkpt>
      <trkpt lat="47.31152" lon="-0.30734">
        <ele>95.31</ele>
        <time>2012-03-18T11:12:30Z</time>
      </trkpt>
      <trkpt lat="47.31153" lon="-0.30734">
        <ele>95.31</ele>
        <time>2012-03-18T11:12:32Z</time>
      </trkpt>
      <trkpt lat="47.31156" lon="-0.30734">
        <ele>94.83</ele>
        <time>2012-03-18T11:12:34Z</time>
      </trkpt>
      <trkpt lat="47.31167" lon="-0.30735">
        <ele>95.31</ele>
        <time>2012-03-18T11:12:41Z</time>
      </trkpt>
      <trkpt lat="47.31168" lon="-0.30735">
        <ele>95.31</ele>
        <time>2012-03-18T11:12:50Z</time>
      </trkpt>
      <trkpt lat="47.31168" lon="-0.30735">
        <ele>95.31</ele>
        <time>2012-03-18T11:13:07Z</time>
      </trkpt>
      <trkpt lat="47.31168" lon="-0.30735">
        <ele>95.31</ele>
        <time>2012-03-18T11:13:21Z</time>
      </trkpt>
      <trkpt lat="47.31169" lon="-0.30736">
        <ele>95.79</ele>
        <time>2012-03-18T11:13:32Z</time>
      </trkpt>
      <trkpt lat="47.31177" lon="-0.30736">
        <ele>95.31</ele>
        <time>2012-03-18T11:13:37Z</time>
      </trkpt>
      <trkpt lat="47.3118" lon="-0.30735">
        <ele>95.31</ele>
        <time>2012-03-18T11:13:39Z</time>
      </trkpt>
      <trkpt lat="47.31191" lon="-0.30737">
        <ele>95.79</ele>
        <time>2012-03-18T11:13:45Z</time>
      </trkpt>
      <trkpt lat="47.31208" lon="-0.30736">
        <ele>95.79</ele>
        <time>2012-03-18T11:13:52Z</time>
      </trkpt>
      <trkpt lat="47.3122" lon="-0.30735">
        <ele>95.79</ele>
        <time>2012-03-18T11:13:58Z</time>
      </trkpt>
      <trkpt lat="47.31237" lon="-0.30736">
        <ele>95.79</ele>
        <time>2012-03-18T11:14:03Z</time>
      </trkpt>
      <trkpt lat="47.31257" lon="-0.30739">
        <ele>95.79</ele>
        <time>2012-03-18T11:14:11Z</time>
      </trkpt>
      <trkpt lat="47.31263" lon="-0.3074">
        <ele>96.27</ele>
        <time>2012-03-18T11:14:16Z</time>
      </trkpt>
      <trkpt lat="47.3127" lon="-0.30739">
        <ele>95.79</ele>
        <time>2012-03-18T11:14:22Z</time>
      </trkpt>
      <trkpt lat="47.31287" lon="-0.30741">
        <ele>95.31</ele>
        <time>2012-03-18T11:14:29Z</time>
      </trkpt>
      <trkpt lat="47.31307" lon="-0.3074">
        <ele>95.79</ele>
        <time>2012-03-18T11:14:36Z</time>
      </trkpt>
      <trkpt lat="47.31321" lon="-0.30742">
        <ele>95.31</ele>
        <time>2012-03-18T11:14:41Z</time>
      </trkpt>
      <trkpt lat="47.31338" lon="-0.30743">
        <ele>94.83</ele>
        <time>2012-03-18T11:14:46Z</time>
      </trkpt>
      <trkpt lat="47.31358" lon="-0.30745">
        <ele>94.83</ele>
        <time>2012-03-18T11:14:52Z</time>
      </trkpt>
      <trkpt lat="47.31362" lon="-0.30744">
        <ele>94.83</ele>
        <time>2012-03-18T11:14:53Z</time>
      </trkpt>
      <trkpt lat="47.31372" lon="-0.30757">
        <ele>94.35</ele>
        <time>2012-03-18T11:14:58Z</time>
      </trkpt>
      <trkpt lat="47.31373" lon="-0.30796">
        <ele>94.83</ele>
        <time>2012-03-18T11:15:06Z</time>
      </trkpt>
      <trkpt lat="47.31374" lon="-0.30842">
        <ele>94.83</ele>
        <time>2012-03-18T11:15:15Z</time>
      </trkpt>
      <trkpt lat="47.31374" lon="-0.30885">
        <ele>94.83</ele>
        <time>2012-03-18T11:15:24Z</time>
      </trkpt>
      <trkpt lat="47.31375" lon="-0.3092">
        <ele>95.31</ele>
        <time>2012-03-18T11:15:32Z</time>
      </trkpt>
      <trkpt lat="47.31375" lon="-0.30928">
        <ele>94.83</ele>
        <time>2012-03-18T11:15:34Z</time>
      </trkpt>
      <trkpt lat="47.31372" lon="-0.30954">
        <ele>94.83</ele>
        <time>2012-03-18T11:15:41Z</time>
      </trkpt>
      <trkpt lat="47.3137" lon="-0.30987">
        <ele>94.83</ele>
        <time>2012-03-18T11:15:49Z</time>
      </trkpt>
      <trkpt lat="47.3137" lon="-0.30989">
        <ele>94.35</ele>
        <time>2012-03-18T11:15:52Z</time>
      </trkpt>
      <trkpt lat="47.31372" lon="-0.30988">
        <ele>94.35</ele>
        <time>2012-03-18T11:15:54Z</time>
      </trkpt>
      <trkpt lat="47.31382" lon="-0.30983">
        <ele>94.83</ele>
        <time>2012-03-18T11:15:59Z</time>
      </trkpt>
      <trkpt lat="47.31415" lon="-0.30979">
        <ele>94.83</ele>
        <time>2012-03-18T11:16:09Z</time>
      </trkpt>
      <trkpt lat="47.31437" lon="-0.30977">
        <ele>93.87</ele>
        <time>2012-03-18T11:16:15Z</time>
      </trkpt>
      <trkpt lat="47.31459" lon="-0.30974">
        <ele>93.39</ele>
        <time>2012-03-18T11:16:21Z</time>
      </trkpt>
      <trkpt lat="47.31495" lon="-0.30969">
        <ele>92.9</ele>
        <time>2012-03-18T11:16:30Z</time>
      </trkpt>
      <trkpt lat="47.31512" lon="-0.30967">
        <ele>92.9</ele>
        <time>2012-03-18T11:16:34Z</time>
      </trkpt>
      <trkpt lat="47.3152" lon="-0.30966">
        <ele>92.9</ele>
        <time>2012-03-18T11:16:36Z</time>
      </trkpt>
      <trkpt lat="47.3156" lon="-0.3096">
        <ele>92.42</ele>
        <time>2012-03-18T11:16:45Z</time>
      </trkpt>
      <trkpt lat="47.31608" lon="-0.30954">
        <ele>90.98</ele>
        <time>2012-03-18T11:16:55Z</time>
      </trkpt>
      <trkpt lat="47.31657" lon="-0.30949">
        <ele>90.02</ele>
        <time>2012-03-18T11:17:04Z</time>
      </trkpt>
      <trkpt lat="47.31701" lon="-0.30943">
        <ele>89.54</ele>
        <time>2012-03-18T11:17:12Z</time>
      </trkpt>
      <trkpt lat="47.31725" lon="-0.30941">
        <ele>88.1</ele>
        <time>2012-03-18T11:17:17Z</time>
      </trkpt>
      <trkpt lat="47.31741" lon="-0.30956">
        <ele>87.62</ele>
        <time>2012-03-18T11:17:22Z</time>
      </trkpt>
      <trkpt lat="47.31767" lon="-0.31022">
        <ele>86.18</ele>
        <time>2012-03-18T11:17:31Z</time>
      </trkpt>
      <trkpt lat="47.3177" lon="-0.31029">
        <ele>85.69</ele>
        <time>2012-03-18T11:17:32Z</time>
      </trkpt>
      <trkpt lat="47.31795" lon="-0.31095">
        <ele>85.21</ele>
        <time>2012-03-18T11:17:41Z</time>
      </trkpt>
      <trkpt lat="47.31813" lon="-0.31142">
        <ele>85.69</ele>
        <time>2012-03-18T11:17:48Z</time>
      </trkpt>
      <trkpt lat="47.31819" lon="-0.31166">
        <ele>84.73</ele>
        <time>2012-03-18T11:17:52Z</time>
      </trkpt>
      <trkpt lat="47.31829" lon="-0.31188">
        <ele>85.21</ele>
        <time>2012-03-18T11:17:56Z</time>
      </trkpt>
      <trkpt lat="47.31835" lon="-0.31199">
        <ele>85.21</ele>
        <time>2012-03-18T11:17:58Z</time>
      </trkpt>
      <trkpt lat="47.31847" lon="-0.31224">
        <ele>85.21</ele>
        <time>2012-03-18T11:18:02Z</time>
      </trkpt>
      <trkpt lat="47.3187" lon="-0.3127">
        <ele>86.18</ele>
        <time>2012-03-18T11:18:09Z</time>
      </trkpt>
      <trkpt lat="47.31891" lon="-0.31314">
        <ele>87.62</ele>
        <time>2012-03-18T11:18:16Z</time>
      </trkpt>
      <trkpt lat="47.31896" lon="-0.31327">
        <ele>88.1</ele>
        <time>2012-03-18T11:18:18Z</time>
      </trkpt>
      <trkpt lat="47.31905" lon="-0.31344">
        <ele>88.1</ele>
        <time>2012-03-18T11:18:21Z</time>
      </trkpt>
      <trkpt lat="47.31923" lon="-0.31383">
        <ele>90.02</ele>
        <time>2012-03-18T11:18:29Z</time>
      </trkpt>
      <trkpt lat="47.31939" lon="-0.31415">
        <ele>90.5</ele>
        <time>2012-03-18T11:18:36Z</time>
      </trkpt>
      <trkpt lat="47.31957" lon="-0.31454">
        <ele>90.98</ele>
        <time>2012-03-18T11:18:44Z</time>
      </trkpt>
      <trkpt lat="47.31969" lon="-0.3148">
        <ele>90.98</ele>
        <time>2012-03-18T11:18:50Z</time>
      </trkpt>
      <trkpt lat="47.3198" lon="-0.31499">
        <ele>90.98</ele>
        <time>2012-03-18T11:18:57Z</time>
      </trkpt>
      <trkpt lat="47.31984" lon="-0.31501">
        <ele>90.98</ele>
        <time>2012-03-18T11:19:03Z</time>
      </trkpt>
      <trkpt lat="47.31991" lon="-0.31496">
        <ele>90.98</ele>
        <time>2012-03-18T11:19:07Z</time>
      </trkpt>
      <trkpt lat="47.32016" lon="-0.31487">
        <ele>90.98</ele>
        <time>2012-03-18T11:19:14Z</time>
      </trkpt>
      <trkpt lat="47.32053" lon="-0.31471">
        <ele>91.46</ele>
        <time>2012-03-18T11:19:23Z</time>
      </trkpt>
      <trkpt lat="47.32082" lon="-0.31459">
        <ele>91.46</ele>
        <time>2012-03-18T11:19:30Z</time>
      </trkpt>
      <trkpt lat="47.32099" lon="-0.31455">
        <ele>90.98</ele>
        <time>2012-03-18T11:19:35Z</time>
      </trkpt>
      <trkpt lat="47.32124" lon="-0.31447">
        <ele>90.98</ele>
        <time>2012-03-18T11:19:41Z</time>
      </trkpt>
      <trkpt lat="47.32136" lon="-0.31443">
        <ele>90.5</ele>
        <time>2012-03-18T11:19:44Z</time>
      </trkpt>
      <trkpt lat="47.32169" lon="-0.31428">
        <ele>90.5</ele>
        <time>2012-03-18T11:19:52Z</time>
      </trkpt>
      <trkpt lat="47.32198" lon="-0.31417">
        <ele>89.54</ele>
        <time>2012-03-18T11:19:59Z</time>
      </trkpt>
      <trkpt lat="47.32225" lon="-0.31408">
        <ele>89.06</ele>
        <time>2012-03-18T11:20:05Z</time>
      </trkpt>
      <trkpt lat="47.32238" lon="-0.31403">
        <ele>89.06</ele>
        <time>2012-03-18T11:20:08Z</time>
      </trkpt>
      <trkpt lat="47.32261" lon="-0.31395">
        <ele>89.06</ele>
        <time>2012-03-18T11:20:14Z</time>
      </trkpt>
      <trkpt lat="47.32277" lon="-0.3139">
        <ele>89.54</ele>
        <time>2012-03-18T11:20:18Z</time>
      </trkpt>
      <trkpt lat="47.32304" lon="-0.31379">
        <ele>89.06</ele>
        <time>2012-03-18T11:20:25Z</time>
      </trkpt>
      <trkpt lat="47.32335" lon="-0.31371">
        <ele>89.06</ele>
        <time>2012-03-18T11:20:33Z</time>
      </trkpt>
      <trkpt lat="47.32349" lon="-0.31385">
        <ele>89.54</ele>
        <time>2012-03-18T11:20:38Z</time>
      </trkpt>
      <trkpt lat="47.32375" lon="-0.31422">
        <ele>89.06</ele>
        <time>2012-03-18T11:20:47Z</time>
      </trkpt>
      <trkpt lat="47.32387" lon="-0.31439">
        <ele>89.54</ele>
        <time>2012-03-18T11:20:51Z</time>
      </trkpt>
      <trkpt lat="47.32407" lon="-0.31478">
        <ele>89.06</ele>
        <time>2012-03-18T11:20:59Z</time>
      </trkpt>
      <trkpt lat="47.32426" lon="-0.31519">
        <ele>89.54</ele>
        <time>2012-03-18T11:21:07Z</time>
      </trkpt>
      <trkpt lat="47.32444" lon="-0.31555">
        <ele>89.54</ele>
        <time>2012-03-18T11:21:14Z</time>
      </trkpt>
      <trkpt lat="47.32464" lon="-0.31594">
        <ele>90.02</ele>
        <time>2012-03-18T11:21:22Z</time>
      </trkpt>
      <trkpt lat="47.32466" lon="-0.31597">
        <ele>89.54</ele>
        <time>2012-03-18T11:21:23Z</time>
      </trkpt>
      <trkpt lat="47.32463" lon="-0.31613">
        <ele>89.06</ele>
        <time>2012-03-18T11:21:27Z</time>
      </trkpt>
      <trkpt lat="47.3244" lon="-0.31626">
        <ele>89.06</ele>
        <time>2012-03-18T11:21:34Z</time>
      </trkpt>
      <trkpt lat="47.32415" lon="-0.31634">
        <ele>90.02</ele>
        <time>2012-03-18T11:21:41Z</time>
      </trkpt>
      <trkpt lat="47.32385" lon="-0.31645">
        <ele>89.54</ele>
        <time>2012-03-18T11:21:50Z</time>
      </trkpt>
      <trkpt lat="47.32359" lon="-0.31655">
        <ele>90.02</ele>
        <time>2012-03-18T11:21:58Z</time>
      </trkpt>
      <trkpt lat="47.32341" lon="-0.31678">
        <ele>89.54</ele>
        <time>2012-03-18T11:22:05Z</time>
      </trkpt>
      <trkpt lat="47.32322" lon="-0.31683">
        <ele>90.02</ele>
        <time>2012-03-18T11:22:11Z</time>
      </trkpt>
      <trkpt lat="47.32289" lon="-0.31694">
        <ele>90.5</ele>
        <time>2012-03-18T11:22:21Z</time>
      </trkpt>
      <trkpt lat="47.32261" lon="-0.31705">
        <ele>90.98</ele>
        <time>2012-03-18T11:22:30Z</time>
      </trkpt>
      <trkpt lat="47.32237" lon="-0.31714">
        <ele>90.02</ele>
        <time>2012-03-18T11:22:38Z</time>
      </trkpt>
      <trkpt lat="47.32212" lon="-0.31724">
        <ele>90.5</ele>
        <time>2012-03-18T11:22:46Z</time>
      </trkpt>
      <trkpt lat="47.32192" lon="-0.31732">
        <ele>89.54</ele>
        <time>2012-03-18T11:22:53Z</time>
      </trkpt>
      <trkpt lat="47.32168" lon="-0.31738">
        <ele>90.5</ele>
        <time>2012-03-18T11:23:01Z</time>
      </trkpt>
      <trkpt lat="47.32147" lon="-0.31746">
        <ele>90.5</ele>
        <time>2012-03-18T11:23:08Z</time>
      </trkpt>
      <trkpt lat="47.32124" lon="-0.31755">
        <ele>90.5</ele>
        <time>2012-03-18T11:23:16Z</time>
      </trkpt>
      <trkpt lat="47.32119" lon="-0.31758">
        <ele>90.5</ele>
        <time>2012-03-18T11:23:18Z</time>
      </trkpt>
      <trkpt lat="47.32106" lon="-0.31777">
        <ele>90.5</ele>
        <time>2012-03-18T11:23:25Z</time>
      </trkpt>
      <trkpt lat="47.32101" lon="-0.31764">
        <ele>90.5</ele>
        <time>2012-03-18T11:23:29Z</time>
      </trkpt>
      <trkpt lat="47.3209" lon="-0.31732">
        <ele>90.5</ele>
        <time>2012-03-18T11:23:36Z</time>
      </trkpt>
      <trkpt lat="47.32088" lon="-0.31727">
        <ele>90.98</ele>
        <time>2012-03-18T11:23:37Z</time>
      </trkpt>
      <trkpt lat="47.32077" lon="-0.31724">
        <ele>90.5</ele>
        <time>2012-03-18T11:23:41Z</time>
      </trkpt>
      <trkpt lat="47.32074" lon="-0.31732">
        <ele>90.5</ele>
        <time>2012-03-18T11:23:43Z</time>
      </trkpt>
      <trkpt lat="47.32069" lon="-0.31762">
        <ele>90.02</ele>
        <time>2012-03-18T11:23:49Z</time>
      </trkpt>
      <trkpt lat="47.32059" lon="-0.31804">
        <ele>90.98</ele>
        <time>2012-03-18T11:23:57Z</time>
      </trkpt>
      <trkpt lat="47.32051" lon="-0.31838">
        <ele>91.46</ele>
        <time>2012-03-18T11:24:04Z</time>
      </trkpt>
      <trkpt lat="47.32042" lon="-0.31871">
        <ele>91.94</ele>
        <time>2012-03-18T11:24:11Z</time>
      </trkpt>
      <trkpt lat="47.32034" lon="-0.31903">
        <ele>92.42</ele>
        <time>2012-03-18T11:24:18Z</time>
      </trkpt>
      <trkpt lat="47.32025" lon="-0.31938">
        <ele>92.42</ele>
        <time>2012-03-18T11:24:26Z</time>
      </trkpt>
      <trkpt lat="47.3202" lon="-0.31956">
        <ele>92.9</ele>
        <time>2012-03-18T11:24:31Z</time>
      </trkpt>
      <trkpt lat="47.32012" lon="-0.31988">
        <ele>93.39</ele>
        <time>2012-03-18T11:24:39Z</time>
      </trkpt>
      <trkpt lat="47.32005" lon="-0.32015">
        <ele>93.87</ele>
        <time>2012-03-18T11:24:46Z</time>
      </trkpt>
      <trkpt lat="47.31999" lon="-0.32044">
        <ele>93.39</ele>
        <time>2012-03-18T11:24:53Z</time>
      </trkpt>
      <trkpt lat="47.31991" lon="-0.32073">
        <ele>93.87</ele>
        <time>2012-03-18T11:25:00Z</time>
      </trkpt>
      <trkpt lat="47.31987" lon="-0.32106">
        <ele>94.35</ele>
        <time>2012-03-18T11:25:08Z</time>
      </trkpt>
      <trkpt lat="47.31993" lon="-0.32136">
        <ele>93.87</ele>
        <time>2012-03-18T11:25:15Z</time>
      </trkpt>
      <trkpt lat="47.32005" lon="-0.3217">
        <ele>94.35</ele>
        <time>2012-03-18T11:25:23Z</time>
      </trkpt>
      <trkpt lat="47.32013" lon="-0.32193">
        <ele>93.39</ele>
        <time>2012-03-18T11:25:29Z</time>
      </trkpt>
      <trkpt lat="47.32021" lon="-0.32222">
        <ele>94.35</ele>
        <time>2012-03-18T11:25:36Z</time>
      </trkpt>
      <trkpt lat="47.3203" lon="-0.3225">
        <ele>93.87</ele>
        <time>2012-03-18T11:25:43Z</time>
      </trkpt>
      <trkpt lat="47.32043" lon="-0.3228">
        <ele>93.87</ele>
        <time>2012-03-18T11:25:51Z</time>
      </trkpt>
      <trkpt lat="47.32053" lon="-0.32304">
        <ele>94.35</ele>
        <time>2012-03-18T11:25:57Z</time>
      </trkpt>
      <trkpt lat="47.32069" lon="-0.32335">
        <ele>93.87</ele>
        <time>2012-03-18T11:26:05Z</time>
      </trkpt>
      <trkpt lat="47.32086" lon="-0.32369">
        <ele>93.39</ele>
        <time>2012-03-18T11:26:14Z</time>
      </trkpt>
      <trkpt lat="47.32095" lon="-0.32398">
        <ele>93.87</ele>
        <time>2012-03-18T11:26:21Z</time>
      </trkpt>
      <trkpt lat="47.32106" lon="-0.32434">
        <ele>92.9</ele>
        <time>2012-03-18T11:26:29Z</time>
      </trkpt>
      <trkpt lat="47.3211" lon="-0.32443">
        <ele>92.9</ele>
        <time>2012-03-18T11:26:31Z</time>
      </trkpt>
      <trkpt lat="47.32131" lon="-0.32445">
        <ele>92.42</ele>
        <time>2012-03-18T11:26:37Z</time>
      </trkpt>
      <trkpt lat="47.32172" lon="-0.32443">
        <ele>92.9</ele>
        <time>2012-03-18T11:26:48Z</time>
      </trkpt>
      <trkpt lat="47.3221" lon="-0.32439">
        <ele>92.9</ele>
        <time>2012-03-18T11:26:58Z</time>
      </trkpt>
      <trkpt lat="47.32243" lon="-0.32437">
        <ele>92.9</ele>
        <time>2012-03-18T11:27:07Z</time>
      </trkpt>
      <trkpt lat="47.32272" lon="-0.32435">
        <ele>92.9</ele>
        <time>2012-03-18T11:27:15Z</time>
      </trkpt>
      <trkpt lat="47.32304" lon="-0.32431">
        <ele>92.9</ele>
        <time>2012-03-18T11:27:24Z</time>
      </trkpt>
      <trkpt lat="47.32332" lon="-0.3243">
        <ele>93.39</ele>
        <time>2012-03-18T11:27:32Z</time>
      </trkpt>
      <trkpt lat="47.32359" lon="-0.32432">
        <ele>92.42</ele>
        <time>2012-03-18T11:27:40Z</time>
      </trkpt>
      <trkpt lat="47.3237" lon="-0.32453">
        <ele>92.42</ele>
        <time>2012-03-18T11:27:45Z</time>
      </trkpt>
      <trkpt lat="47.32377" lon="-0.32476">
        <ele>92.9</ele>
        <time>2012-03-18T11:27:49Z</time>
      </trkpt>
      <trkpt lat="47.32393" lon="-0.32522">
        <ele>92.42</ele>
        <time>2012-03-18T11:27:57Z</time>
      </trkpt>
      <trkpt lat="47.32412" lon="-0.32584">
        <ele>90.5</ele>
        <time>2012-03-18T11:28:06Z</time>
      </trkpt>
      <trkpt lat="47.32436" lon="-0.32661">
        <ele>90.5</ele>
        <time>2012-03-18T11:28:17Z</time>
      </trkpt>
      <trkpt lat="47.32451" lon="-0.32718">
        <ele>90.02</ele>
        <time>2012-03-18T11:28:25Z</time>
      </trkpt>
      <trkpt lat="47.32469" lon="-0.32775">
        <ele>90.02</ele>
        <time>2012-03-18T11:28:33Z</time>
      </trkpt>
      <trkpt lat="47.32483" lon="-0.32819">
        <ele>90.5</ele>
        <time>2012-03-18T11:28:39Z</time>
      </trkpt>
      <trkpt lat="47.32497" lon="-0.32908">
        <ele>90.02</ele>
        <time>2012-03-18T11:28:50Z</time>
      </trkpt>
      <trkpt lat="47.32505" lon="-0.32983">
        <ele>90.5</ele>
        <time>2012-03-18T11:28:59Z</time>
      </trkpt>
      <trkpt lat="47.3251" lon="-0.33028">
        <ele>89.54</ele>
        <time>2012-03-18T11:29:04Z</time>
      </trkpt>
      <trkpt lat="47.32518" lon="-0.33097">
        <ele>88.1</ele>
        <time>2012-03-18T11:29:12Z</time>
      </trkpt>
      <trkpt lat="47.32526" lon="-0.33175">
        <ele>87.62</ele>
        <time>2012-03-18T11:29:21Z</time>
      </trkpt>
      <trkpt lat="47.32534" lon="-0.3325">
        <ele>87.62</ele>
        <time>2012-03-18T11:29:30Z</time>
      </trkpt>
      <trkpt lat="47.32536" lon="-0.33283">
        <ele>88.1</ele>
        <time>2012-03-18T11:29:34Z</time>
      </trkpt>
      <trkpt lat="47.32536" lon="-0.33315">
        <ele>87.62</ele>
        <time>2012-03-18T11:29:38Z</time>
      </trkpt>
      <trkpt lat="47.32533" lon="-0.33348">
        <ele>87.14</ele>
        <time>2012-03-18T11:29:42Z</time>
      </trkpt>
      <trkpt lat="47.32525" lon="-0.33424">
        <ele>83.29</ele>
        <time>2012-03-18T11:29:49Z</time>
      </trkpt>
      <trkpt lat="47.32525" lon="-0.33468">
        <ele>79.93</ele>
        <time>2012-03-18T11:29:52Z</time>
      </trkpt>
      <trkpt lat="47.32525" lon="-0.33499">
        <ele>78</ele>
        <time>2012-03-18T11:29:54Z</time>
      </trkpt>
      <trkpt lat="47.32534" lon="-0.33594">
        <ele>73.68</ele>
        <time>2012-03-18T11:30:00Z</time>
      </trkpt>
      <trkpt lat="47.32534" lon="-0.33658">
        <ele>71.27</ele>
        <time>2012-03-18T11:30:05Z</time>
      </trkpt>
      <trkpt lat="47.32533" lon="-0.33731">
        <ele>68.87</ele>
        <time>2012-03-18T11:30:11Z</time>
      </trkpt>
      <trkpt lat="47.32533" lon="-0.33745">
        <ele>68.87</ele>
        <time>2012-03-18T11:30:12Z</time>
      </trkpt>
      <trkpt lat="47.32532" lon="-0.33758">
        <ele>68.87</ele>
        <time>2012-03-18T11:30:13Z</time>
      </trkpt>
      <trkpt lat="47.32536" lon="-0.33799">
        <ele>66.47</ele>
        <time>2012-03-18T11:30:16Z</time>
      </trkpt>
      <trkpt lat="47.32544" lon="-0.33852">
        <ele>64.55</ele>
        <time>2012-03-18T11:30:20Z</time>
      </trkpt>
      <trkpt lat="47.32535" lon="-0.33956">
        <ele>62.14</ele>
        <time>2012-03-18T11:30:28Z</time>
      </trkpt>
      <trkpt lat="47.32538" lon="-0.3404">
        <ele>60.7</ele>
        <time>2012-03-18T11:30:35Z</time>
      </trkpt>
      <trkpt lat="47.32545" lon="-0.34104">
        <ele>58.78</ele>
        <time>2012-03-18T11:30:40Z</time>
      </trkpt>
      <trkpt lat="47.32558" lon="-0.34205">
        <ele>57.34</ele>
        <time>2012-03-18T11:30:48Z</time>
      </trkpt>
      <trkpt lat="47.32576" lon="-0.34289">
        <ele>56.86</ele>
        <time>2012-03-18T11:30:55Z</time>
      </trkpt>
      <trkpt lat="47.32593" lon="-0.34376">
        <ele>56.37</ele>
        <time>2012-03-18T11:31:02Z</time>
      </trkpt>
      <trkpt lat="47.32608" lon="-0.34419">
        <ele>55.41</ele>
        <time>2012-03-18T11:31:06Z</time>
      </trkpt>
      <trkpt lat="47.32629" lon="-0.34455">
        <ele>55.41</ele>
        <time>2012-03-18T11:31:10Z</time>
      </trkpt>
      <trkpt lat="47.3265" lon="-0.34514">
        <ele>55.41</ele>
        <time>2012-03-18T11:31:16Z</time>
      </trkpt>
      <trkpt lat="47.3266" lon="-0.34604">
        <ele>54.45</ele>
        <time>2012-03-18T11:31:24Z</time>
      </trkpt>
      <trkpt lat="47.32663" lon="-0.34677">
        <ele>54.45</ele>
        <time>2012-03-18T11:31:31Z</time>
      </trkpt>
      <trkpt lat="47.32663" lon="-0.34685">
        <ele>53.97</ele>
        <time>2012-03-18T11:31:32Z</time>
      </trkpt>
      <trkpt lat="47.32655" lon="-0.34711">
        <ele>53.01</ele>
        <time>2012-03-18T11:31:36Z</time>
      </trkpt>
      <trkpt lat="47.32651" lon="-0.34766">
        <ele>53.01</ele>
        <time>2012-03-18T11:31:43Z</time>
      </trkpt>
      <trkpt lat="47.32655" lon="-0.34807">
        <ele>51.09</ele>
        <time>2012-03-18T11:31:49Z</time>
      </trkpt>
      <trkpt lat="47.32657" lon="-0.3482">
        <ele>51.09</ele>
        <time>2012-03-18T11:31:52Z</time>
      </trkpt>
      <trkpt lat="47.32672" lon="-0.3482">
        <ele>50.61</ele>
        <time>2012-03-18T11:31:58Z</time>
      </trkpt>
      <trkpt lat="47.3269" lon="-0.34819">
        <ele>51.09</ele>
        <time>2012-03-18T11:32:05Z</time>
      </trkpt>
      <trkpt lat="47.32702" lon="-0.34815">
        <ele>51.57</ele>
        <time>2012-03-18T11:32:11Z</time>
      </trkpt>
      <trkpt lat="47.32707" lon="-0.34815">
        <ele>51.57</ele>
        <time>2012-03-18T11:32:13Z</time>
      </trkpt>
      <trkpt lat="47.32714" lon="-0.34801">
        <ele>52.05</ele>
        <time>2012-03-18T11:32:18Z</time>
      </trkpt>
      <trkpt lat="47.32713" lon="-0.34789">
        <ele>51.57</ele>
        <time>2012-03-18T11:32:21Z</time>
      </trkpt>
      <trkpt lat="47.32712" lon="-0.34781">
        <ele>52.53</ele>
        <time>2012-03-18T11:32:23Z</time>
      </trkpt>
      <trkpt lat="47.32722" lon="-0.34771">
        <ele>53.01</ele>
        <time>2012-03-18T11:32:28Z</time>
      </trkpt>
      <trkpt lat="47.32725" lon="-0.34775">
        <ele>52.53</ele>
        <time>2012-03-18T11:32:33Z</time>
      </trkpt>
      <trkpt lat="47.32725" lon="-0.34775">
        <ele>52.53</ele>
        <time>2012-03-18T11:32:41Z</time>
      </trkpt>
      <trkpt lat="47.32725" lon="-0.34775">
        <ele>52.53</ele>
        <time>2012-03-18T11:33:00Z</time>
      </trkpt>
      <trkpt lat="47.32725" lon="-0.34776">
        <ele>52.53</ele>
        <time>2012-03-18T11:33:16Z</time>
      </trkpt>
      <trkpt lat="47.32725" lon="-0.34776">
        <ele>52.05</ele>
        <time>2012-03-18T11:33:35Z</time>
      </trkpt>
      <trkpt lat="47.32725" lon="-0.34776">
        <ele>52.53</ele>
        <time>2012-03-18T11:33:50Z</time>
      </trkpt>
      <trkpt lat="47.32725" lon="-0.34776">
        <ele>52.05</ele>
        <time>2012-03-18T11:34:04Z</time>
      </trkpt>
      <trkpt lat="47.32725" lon="-0.34776">
        <ele>51.09</ele>
        <time>2012-03-18T11:34:23Z</time>
      </trkpt>
    </trkseg>
  </trk>
</gpx>